GFSNW_sfc_30mbdewp_000.txt.gz
Dewpoint
37 35 36 40 42 45 45 40 33 47 49 36 36 31 28 31 38 39 37 35 32 31 31 31 29 27 28 32 33 31 34 32 25 26 30 31 28 26 27 21 18 21 19 15
37 34 37 40 43 45 44 38 41 48 45 31 33 33 31 34 38 38 37 35 34 35 33 28 31 30 30 33 34 32 33 30 24 25 29 32 31 30 26 26 27 20 16 13
37 34 36 40 44 45 46 38 34 40 42 39 33 30 30 31 36 36 38 37 36 35 34 33 30 30 30 33 34 35 34 32 28 21 27 31 28 30 30 27 24 21 21 20
37 34 35 40 44 45 47 41 35 36 31 35 32 31 31 31 31 37 37 37 36 36 33 33 32 32 31 33 34 36 36 29 32 32 31 32 32 31 30 28 26 22 20 20
35 34 36 40 45 46 43 39 37 37 35 35 31 31 34 32 33 36 36 35 35 37 35 33 28 32 32 32 34 35 37 29 32 29 33 32 30 32 33 32 28 26 24 23
34 35 37 40 44 46 39 40 43 37 36 36 32 31 33 32 35 36 37 38 38 37 37 39 38 36 35 36 36 35 34 31 29 26 32 32 26 30 31 31 33 27 25 26
35 35 36 38 43 46 43 41 42 39 34 35 32 34 33 36 37 35 39 39 38 39 43 41 40 38 37 37 37 38 34 30 31 27 31 25 32 36 33 31 33 32 28 32
35 35 36 38 42 44 44 44 42 42 35 35 34 35 36 36 37 38 38 39 41 43 41 38 35 34 35 35 37 37 37 33 30 28 29 30 32 37 32 31 31 33 33 33
37 35 37 38 41 42 44 44 46 44 37 34 35 36 38 38 37 38 40 42 45 44 41 36 29 25 28 28 33 35 37 36 32 30 28 20 26 38 41 38 32 36 35 35
37 36 37 37 40 41 44 44 47 44 40 41 39 36 37 40 38 36 38 39 40 42 37 34 32 30 31 28 30 31 33 33 30 29 28 29 31 34 39 31 28 31 37 37
37 37 37 36 39 41 44 42 47 45 42 42 41 41 40 40 39 36 40 38 40 39 35 34 34 33 32 31 30 33 31 29 29 30 28 24 33 35 31 30 31 31 35 36
37 36 37 36 37 41 44 40 43 46 45 42 45 44 43 42 41 40 41 39 40 40 38 37 37 35 33 32 28 35 32 32 30 30 28 31 33 32 34 33 32 32 33 34
37 37 38 36 37 39 42 41 42 42 44 42 43 41 44 46 45 45 40 42 42 43 45 40 37 35 35 32 31 33 35 36 34 33 32 34 33 35 34 34 33 34 34 33
37 37 35 36 37 39 41 40 41 40 42 39 38 45 43 47 47 46 45 45 46 46 45 42 38 35 36 33 34 34 35 36 34 33 34 32 32 34 33 34 34 34 34 33
34 34 34 35 37 39 41 41 41 41 41 39 41 43 45 47 46 46 46 45 44 43 41 40 39 37 36 36 35 33 35 35 34 32 34 33 32 34 33 33 33 32 32 31
34 33 33 34 36 39 40 37 46 47 47 42 37 44 44 46 46 45 45 45 44 43 42 42 43 42 39 36 34 36 35 35 36 35 33 33 34 33 33 32 32 31 31 30
32 34 33 34 35 38 36 36 42 43 43 42 37 37 44 45 44 44 45 46 44 44 41 42 43 42 42 39 35 36 36 36 33 34 33 33 33 33 33 32 32 32 30 30
32 34 35 36 38 38 38 40 42 43 41 44 38 37 40 45 42 41 46 43 44 44 42 42 40 40 40 37 37 37 35 34 33 33 33 33 33 33 32 31 30 29 29 29
37 36 38 42 38 35 39 40 42 44 44 38 38 34 32 44 42 42 43 43 39 43 40 40 40 38 36 37 37 36 34 34 32 32 32 32 32 31 31 30 28 27 28 28
34 37 33 34 35 39 40 43 42 42 43 42 38 38 36 40 41 40 40 39 38 35 38 39 37 36 38 38 36 36 35 32 31 30 30 30 30 30 29 28 28 28 28 28
34 31 31 36 39 38 40 37 37 38 36 40 39 37 37 41 38 38 38 36 35 32 33 35 34 33 36 36 38 37 34 32 32 32 31 31 31 29 28 27 27 26 26 25
34 34 37 36 33 32 31 32 35 35 32 37 37 37 37 39 39 37 36 34 33 30 32 33 30 32 33 33 37 35 33 32 31 31 30 30 29 27 26 25 24 24 24 22
36 33 30 29 30 27 29 27 31 32 36 37 37 36 36 36 36 34 34 33 30 31 30 29 30 32 31 32 34 34 32 32 30 29 28 26 26 26 25 25 25 23 22 21
28 26 23 25 26 29 30 29 31 32 34 37 35 34 34 34 34 32 32 32 31 27 26 25 27 27 28 32 33 32 31 29 27 26 26 26 26 26 26 25 24 23 22 22
27 27 23 26 31 32 32 33 32 34 37 35 33 33 32 31 31 29 30 28 26 27 25 26 26 26 30 32 31 30 28 26 26 26 25 25 26 26 26 26 25 24 23 22
29 27 26 29 28 27 30 32 32 34 37 35 34 31 30 30 29 28 27 26 24 24 27 27 26 28 30 30 29 27 26 26 26 25 25 25 25 25 25 25 24 22 21 19
25 28 30 29 27 29 30 31 33 36 36 34 31 30 29 27 27 27 26 26 26 27 25 27 27 29 29 28 27 26 26 25 25 25 24 24 25 24 23 22 19 17 16 15

GFSNW_sfc_30mbdewp_003.txt.gz
Dewpoint
38 39 37 37 40 45 45 39 34 45 47 35 33 32 29 34 36 38 37 34 32 30 30 30 29 27 27 32 34 33 33 31 26 25 29 31 29 27 27 23 20 24 20 17
38 38 35 37 41 45 44 37 40 46 42 30 32 34 33 36 38 38 36 34 35 34 31 29 30 30 31 34 33 31 34 30 23 23 29 31 31 30 28 27 26 22 18 16
38 35 36 37 41 44 46 38 34 40 41 39 34 31 32 32 37 38 38 36 36 35 34 32 31 31 32 33 34 35 35 32 26 20 24 31 28 29 31 30 24 21 21 21
38 35 37 39 42 46 46 41 34 36 32 35 32 32 31 33 32 36 37 36 35 34 33 33 33 33 32 33 34 35 35 29 31 31 30 31 31 31 30 29 27 22 20 21
38 35 38 40 42 46 42 36 37 37 37 36 31 33 30 30 33 36 36 34 35 36 35 31 30 32 32 31 34 36 37 30 32 29 33 32 29 31 31 30 29 27 25 25
39 36 38 39 42 45 39 40 42 41 36 34 30 30 32 32 34 35 37 37 36 36 36 37 37 37 36 35 34 34 34 32 29 25 31 31 27 30 31 32 32 29 26 26
38 37 37 39 41 43 44 42 41 38 34 33 31 31 33 34 35 36 39 38 38 39 43 42 42 41 40 38 37 36 35 31 30 27 29 23 34 36 34 31 29 32 30 29
38 38 37 38 39 41 43 43 41 40 34 35 33 33 32 33 36 37 38 39 40 43 42 36 35 34 34 35 37 37 37 34 30 27 28 31 28 33 33 31 30 31 33 33
38 38 38 38 38 40 43 44 45 42 38 34 34 34 37 36 36 38 39 42 45 44 39 36 30 25 27 27 31 36 37 37 32 30 27 25 25 37 34 35 28 32 32 33
38 38 37 38 38 39 43 43 45 41 39 40 37 34 37 40 39 37 38 39 39 43 37 33 31 29 30 27 28 30 32 32 29 29 28 29 31 35 39 28 26 31 35 34
38 37 37 39 38 38 42 40 44 39 39 42 42 42 39 40 39 36 39 39 40 39 34 34 34 31 32 31 29 32 30 30 28 30 28 24 33 36 33 30 31 32 36 38
37 37 38 37 37 37 41 38 41 42 39 42 45 44 44 43 41 40 41 39 39 39 37 37 37 35 32 31 27 34 31 31 30 31 27 30 33 33 33 34 32 33 34 36
34 34 34 35 35 37 40 40 41 37 41 41 42 41 44 46 45 45 40 42 42 42 45 41 37 36 35 31 31 32 35 36 34 33 32 33 34 33 34 34 33 34 34 33
33 33 34 35 35 36 39 40 41 37 35 38 37 44 43 47 47 46 45 44 46 46 45 39 38 36 36 33 33 34 35 36 34 33 34 34 34 33 34 34 34 33 32 31
34 34 34 35 35 36 39 40 41 41 35 37 40 43 45 47 46 46 46 45 44 43 41 39 37 38 36 35 35 33 35 35 33 32 35 34 33 34 34 33 32 32 31 30
34 33 32 35 35 36 38 35 43 43 43 39 37 44 44 46 46 45 45 45 45 43 41 39 41 42 37 35 34 36 35 36 36 35 34 33 34 34 33 32 32 32 31 30
34 34 35 36 36 37 35 34 41 43 42 39 37 36 44 46 45 45 44 46 44 43 41 39 41 43 43 40 36 36 37 38 35 35 34 33 34 33 33 32 32 31 29 28
34 36 37 37 39 39 37 41 43 43 40 41 36 35 38 45 41 41 45 43 44 44 41 43 41 41 40 37 38 38 36 35 34 33 34 34 34 33 32 31 30 29 28 27
36 36 38 42 39 36 37 39 40 44 41 38 37 32 31 44 42 42 43 44 39 43 40 40 40 38 36 37 38 37 36 35 34 32 33 33 33 32 31 30 29 28 27 27
34 35 33 33 34 39 40 42 39 39 41 42 38 36 35 39 40 40 40 40 38 34 38 39 36 37 38 38 39 37 36 34 32 32 31 31 31 31 30 29 28 27 27 27
33 31 31 36 39 39 38 34 36 37 36 39 39 37 36 41 37 38 38 35 35 32 33 35 34 33 36 35 37 38 35 33 32 32 32 32 32 31 28 28 28 28 28 26
35 35 37 37 33 32 29 31 35 35 32 38 37 37 37 39 39 38 37 34 34 30 31 32 30 32 33 32 35 37 34 32 32 31 31 32 31 29 28 27 27 27 25 24
35 31 28 29 30 27 27 27 31 33 35 37 37 36 37 37 36 35 34 33 31 31 30 28 30 31 31 32 33 34 32 32 30 30 30 29 27 27 26 25 25 24 22 21
26 25 23 26 26 27 29 29 30 33 34 35 36 35 34 34 34 33 32 32 31 27 25 25 27 28 28 30 32 33 31 30 28 27 27 27 26 25 25 24 23 22 21 19
26 25 23 26 29 30 31 32 32 34 35 36 34 33 33 32 32 30 31 28 26 27 26 26 27 27 28 31 32 31 29 27 26 26 26 26 26 25 24 23 22 21 20 19
28 25 24 27 25 24 27 29 30 36 36 36 34 32 31 31 31 29 28 27 24 24 28 28 26 28 30 31 30 29 27 26 26 26 26 26 25 24 23 23 22 21 20 18
25 25 29 27 25 25 26 28 31 36 35 34 34 31 31 28 28 28 28 27 27 28 28 25 28 29 29 29 28 27 26 26 25 26 26 25 25 23 22 20 20 19 17 16

GFSNW_sfc_30mbdewp_006.txt.gz
Dewpoint
39 40 35 38 39 42 45 39 31 44 47 34 34 32 34 36 35 38 35 32 30 28 30 29 28 28 27 30 34 32 31 30 26 26 26 28 25 25 26 24 22 26 19 16
39 39 36 38 39 43 44 36 37 44 45 31 32 35 35 38 36 37 35 34 32 32 30 29 29 29 31 32 32 31 32 31 23 23 29 29 28 27 27 31 30 24 20 15
39 38 36 39 41 44 46 37 32 39 38 38 34 31 32 34 38 38 37 35 35 33 30 31 30 30 32 32 32 34 33 30 26 20 22 27 29 29 32 30 25 21 22 21
39 39 37 40 43 45 44 38 35 37 32 34 32 32 33 32 32 37 37 34 33 32 30 31 31 32 32 33 34 34 33 29 31 30 29 30 32 31 32 29 28 24 22 20
38 38 38 41 43 44 41 35 37 37 37 34 32 34 31 31 35 34 34 33 35 34 31 31 31 33 33 31 33 33 35 30 33 29 32 31 31 33 33 32 31 27 26 25
38 38 39 41 42 43 40 40 41 41 37 35 30 32 31 31 34 36 38 35 35 34 36 36 36 35 34 34 33 33 34 32 30 25 29 29 28 32 33 33 33 30 26 27
38 38 38 39 40 42 42 42 41 39 34 34 30 31 34 32 32 36 37 37 37 39 42 42 41 40 40 39 37 35 34 33 31 27 30 25 33 36 36 34 35 33 30 29
38 38 38 39 39 41 42 44 41 39 35 33 32 32 31 36 37 36 37 39 39 42 41 37 34 35 35 35 37 37 36 34 30 27 28 28 29 32 36 33 30 31 32 31
38 38 37 40 38 40 42 44 43 41 37 34 33 34 33 31 33 37 38 43 45 44 40 36 30 26 26 27 32 37 36 36 33 30 26 24 28 32 35 34 29 32 32 31
37 37 38 39 37 38 41 41 41 40 36 40 36 34 36 40 38 37 39 40 40 43 36 33 31 30 30 27 27 30 32 32 29 30 28 28 31 32 39 27 28 32 34 33
34 35 35 35 36 36 40 41 42 37 35 37 43 41 39 40 38 35 39 38 40 39 34 33 32 32 31 31 30 31 29 30 29 30 27 26 32 35 30 32 33 33 35 39
34 33 33 34 35 36 38 37 43 41 37 40 46 45 44 42 41 40 41 39 39 38 36 36 36 33 34 32 28 33 30 32 30 30 29 31 33 34 35 34 34 34 35 38
34 33 33 34 33 34 36 38 41 37 36 42 42 41 45 46 45 46 40 41 42 42 44 41 38 35 37 32 32 32 34 36 35 34 33 33 34 35 35 34 34 34 37 34
35 34 34 33 34 35 36 37 39 37 35 33 38 44 43 47 47 46 45 44 45 45 45 39 37 36 37 35 34 34 35 36 35 34 35 35 34 34 34 34 33 33 34 32
35 35 35 34 35 36 37 38 39 40 35 33 39 43 45 46 46 46 46 45 44 43 40 39 36 38 37 36 35 34 36 35 32 30 35 34 34 34 34 33 32 31 30 29
35 36 35 35 35 36 37 35 43 43 40 34 36 44 43 44 45 45 45 45 44 44 41 39 39 41 38 36 35 36 35 36 36 35 34 34 34 34 34 33 32 31 30 28
35 35 34 35 36 38 33 33 40 41 41 35 37 36 44 46 45 45 43 45 45 43 41 40 39 40 42 39 34 36 38 37 36 36 34 34 34 33 33 33 32 30 28 27
34 34 34 36 40 38 36 38 41 43 39 39 36 35 38 45 41 40 44 43 43 43 41 42 41 41 41 37 39 39 38 36 36 35 34 34 34 33 32 31 30 28 27 26
34 35 37 40 37 35 38 40 41 43 39 36 37 32 31 44 42 42 43 44 39 42 40 40 40 37 35 38 39 39 38 37 36 34 34 34 33 32 31 31 30 29 27 26
34 35 34 33 35 38 40 40 37 38 39 39 37 36 35 39 39 40 39 40 38 35 37 39 36 36 39 39 40 40 38 36 34 33 32 33 32 32 31 31 30 28 26 25
35 32 31 35 39 38 38 32 33 35 35 39 39 37 36 41 36 37 39 36 36 33 34 35 34 34 36 36 35 37 38 36 34 33 34 34 33 31 30 29 28 27 26 24
33 35 38 37 33 32 31 31 34 34 32 38 37 37 37 39 40 38 37 35 34 30 32 32 30 33 34 32 33 35 36 34 33 32 32 33 33 31 29 28 28 27 25 23
34 31 28 29 30 27 27 24 29 32 34 36 37 37 38 38 37 36 35 33 31 32 31 29 32 33 32 30 33 34 33 33 32 31 32 32 30 29 28 28 26 25 23 22
27 25 24 26 25 27 28 28 29 33 33 35 36 36 35 35 35 34 32 32 32 28 26 27 30 29 28 29 32 33 32 31 30 30 29 29 29 28 27 27 25 23 21 20
26 26 23 25 27 29 31 31 31 33 35 35 35 34 33 33 33 31 32 29 27 27 26 29 29 28 28 31 32 32 30 29 29 29 28 28 27 26 26 25 24 22 20 19
28 26 25 27 25 24 26 27 28 35 35 35 35 34 32 33 32 29 29 28 26 26 30 31 28 28 30 31 31 30 29 27 27 27 27 26 25 24 23 22 21 20 18 17
25 25 29 29 26 24 26 26 27 32 32 32 33 31 32 29 29 28 30 28 29 30 30 27 28 29 30 30 29 28 27 27 27 27 26 25 24 23 21 20 20 18 17 15

GFSNW_sfc_30mbdewp_009.txt.gz
Dewpoint
40 40 38 40 41 45 45 39 32 45 43 34 35 33 35 36 32 37 32 30 27 26 26 26 25 26 26 30 31 29 29 28 26 25 26 27 26 27 26 25 20 25 21 19
39 39 39 40 42 45 45 36 37 44 45 30 33 35 36 34 35 36 33 31 29 28 27 26 27 27 29 29 31 29 30 30 24 27 27 26 26 26 25 28 30 25 22 19
39 39 39 40 42 45 45 35 33 38 40 39 34 34 36 35 39 36 35 33 31 29 28 30 27 29 32 30 31 33 31 29 27 20 22 25 29 30 30 31 27 24 23 22
39 39 39 41 44 45 42 38 36 37 33 34 36 35 35 35 34 36 34 32 30 28 27 28 28 30 31 32 32 32 31 30 29 29 28 29 29 30 30 31 31 28 25 22
38 39 40 42 43 44 40 36 36 38 35 32 30 31 31 31 33 32 30 30 30 30 27 29 29 30 30 30 32 32 34 30 32 29 30 30 30 31 34 35 34 33 33 31
38 39 40 41 42 43 40 40 41 40 37 32 29 30 30 32 34 36 36 34 33 32 34 35 35 35 33 33 32 32 33 33 30 25 27 28 29 34 35 35 35 34 30 32
38 38 39 40 40 42 42 41 41 38 34 31 29 31 32 31 34 35 36 36 35 39 41 41 40 38 37 37 36 36 34 32 31 27 30 26 30 34 36 35 34 33 33 34
38 38 39 39 38 40 42 42 40 38 33 32 31 31 34 33 34 36 37 38 40 42 40 35 32 35 35 35 38 37 35 33 30 27 26 26 32 31 36 36 33 33 34 34
35 36 36 36 37 38 40 42 41 39 36 32 32 31 32 32 33 34 36 43 44 42 40 35 30 30 26 28 34 37 36 35 32 29 26 24 28 32 36 38 29 32 35 37
35 34 34 34 36 37 38 41 40 40 36 38 38 32 33 34 33 37 40 40 40 42 37 33 31 31 30 26 27 30 33 33 29 29 28 28 29 32 39 29 28 33 36 37
35 34 34 33 35 35 37 37 41 36 35 37 40 38 36 40 37 36 39 39 39 39 34 33 33 33 31 30 28 30 29 29 29 30 28 25 32 33 32 33 34 33 36 39
36 35 34 33 34 34 36 34 38 42 36 37 41 42 45 43 41 37 40 40 38 39 36 37 36 34 33 30 26 31 29 29 29 29 29 32 34 34 35 35 34 34 35 42
36 36 35 35 33 33 35 34 36 38 36 38 43 40 44 46 45 46 39 42 42 41 43 40 38 35 37 33 30 31 32 33 33 34 32 33 34 35 35 34 34 35 36 37
37 36 35 33 35 34 35 35 35 37 34 32 39 44 43 47 47 46 45 44 45 45 44 40 37 35 38 34 34 34 35 36 34 34 34 34 35 34 34 33 34 37 35 34
35 36 35 36 35 34 36 35 35 36 34 32 38 42 45 46 46 45 45 44 43 43 41 39 37 38 37 35 37 34 35 34 34 30 35 35 34 34 34 33 33 33 31 31
35 35 37 36 35 34 34 32 42 41 38 34 35 43 43 44 45 45 44 44 44 44 41 39 40 40 39 36 33 32 32 33 34 33 35 34 35 34 34 32 32 31 30 29
37 35 35 35 35 36 33 30 40 41 42 35 35 38 44 46 45 45 44 45 44 43 41 40 40 39 42 37 32 33 35 37 36 37 35 35 34 34 33 32 31 30 29 28
35 35 35 37 39 38 35 36 39 40 38 38 35 36 39 45 41 40 44 42 43 43 41 41 39 41 40 36 37 37 37 37 38 37 36 35 35 33 33 31 29 28 27 26
36 35 37 40 36 32 37 40 41 42 38 33 37 33 32 44 41 42 42 44 39 43 40 40 40 38 35 36 38 39 39 38 38 36 35 34 33 33 32 31 30 28 27 26
34 35 34 32 35 39 40 39 36 36 37 37 36 37 36 40 40 39 40 41 38 35 37 39 37 36 38 37 37 38 40 38 36 35 34 34 34 33 32 31 30 28 27 25
34 31 31 35 38 39 36 31 31 33 33 38 39 35 35 41 36 37 40 36 37 33 35 34 34 33 35 37 34 35 37 39 36 36 35 35 34 33 32 31 30 28 25 24
33 34 37 36 34 32 30 31 32 33 33 38 37 37 37 40 41 39 38 35 35 30 33 33 31 34 36 34 32 33 36 38 36 34 33 34 34 33 32 30 28 26 24 23
35 32 30 30 32 28 28 26 28 31 32 34 36 37 38 39 39 37 36 33 31 33 31 30 32 35 34 29 30 34 34 35 34 33 33 34 33 32 30 28 26 25 23 21
28 27 25 28 27 27 28 28 29 32 33 34 35 36 36 36 36 36 32 33 32 29 27 29 34 34 30 29 32 34 33 32 32 32 32 32 31 30 30 28 26 23 22 22
27 27 25 26 28 30 31 32 32 33 35 34 35 35 35 34 34 33 33 30 27 28 29 34 35 31 30 31 32 33 32 31 30 31 31 30 30 28 28 27 25 23 22 21
29 27 26 27 27 28 29 29 30 34 32 35 35 34 33 33 34 30 29 28 27 32 32 33 31 30 30 30 31 31 30 29 29 29 29 29 27 27 26 25 22 21 21 19
25 25 28 27 27 27 27 25 26 29 31 31 32 31 31 32 31 29 32 31 32 30 31 31 30 29 29 29 30 30 29 28 28 28 27 27 26 24 23 21 20 19 18 16

GFSNW_sfc_30mbdewp_012.txt.gz
Dewpoint
39 39 38 40 42 46 46 38 33 44 43 34 35 33 34 39 34 36 30 28 27 25 26 28 27 27 27 29 30 28 28 28 26 27 28 29 28 27 27 24 20 23 22 20
40 39 39 40 42 47 45 37 38 44 44 30 33 35 36 37 36 36 32 29 28 27 26 26 27 28 28 30 30 29 29 29 24 27 27 26 26 26 26 27 28 24 22 20
40 40 40 42 43 45 44 38 32 37 39 39 34 34 36 36 40 35 33 31 30 27 27 29 27 29 31 29 31 32 30 29 26 23 25 28 29 30 29 29 27 25 25 25
38 39 41 42 43 45 43 39 35 37 33 36 35 37 37 35 34 35 33 31 29 27 26 27 27 28 31 31 33 31 31 29 30 30 29 28 28 29 29 31 32 28 28 30
38 38 42 42 42 44 41 38 36 39 34 36 37 35 36 34 32 33 29 29 29 28 27 30 26 29 29 31 32 31 32 29 33 29 29 29 28 30 31 31 33 35 35 33
38 39 41 41 41 43 40 40 41 40 35 32 30 31 30 32 34 35 36 33 31 32 36 36 36 36 34 33 32 31 34 33 29 25 27 28 28 31 34 35 36 35 32 35
36 36 36 37 38 40 42 40 41 38 32 32 28 31 31 32 36 34 36 35 35 39 40 40 39 38 37 36 34 35 34 32 30 27 28 24 28 33 35 35 36 35 34 35
36 35 35 35 37 38 39 42 39 38 34 31 30 31 32 32 34 36 37 39 41 42 40 36 32 35 35 35 36 36 36 34 30 26 26 25 28 32 34 35 33 34 35 38
37 35 35 34 35 36 37 42 42 39 36 32 36 30 32 32 32 35 39 43 44 42 40 34 30 29 29 30 33 37 37 35 33 29 25 22 29 33 37 38 32 33 38 39
37 36 35 34 35 35 36 39 41 40 36 38 39 32 33 33 34 37 39 40 40 42 36 32 31 30 32 27 29 31 33 34 30 29 27 28 29 33 37 30 29 34 34 39
37 37 36 35 34 34 36 35 42 37 35 36 38 40 39 39 38 37 40 39 39 38 34 33 33 33 33 30 30 31 30 29 29 30 28 24 32 33 32 34 35 34 34 40
38 37 36 35 35 34 34 32 35 38 37 36 39 39 40 42 44 40 40 40 38 39 36 36 36 33 35 33 28 31 29 30 30 29 28 30 35 34 35 35 35 34 34 40
36 37 36 36 34 35 34 36 35 37 35 35 39 41 43 45 45 46 40 42 41 41 43 39 38 34 36 32 32 33 31 32 33 33 33 34 35 35 35 34 34 35 37 38
35 35 35 35 35 36 34 35 36 35 35 30 38 44 43 47 47 46 45 44 45 45 43 39 36 35 38 36 35 35 35 35 34 33 34 35 35 34 34 33 35 37 36 35
37 37 36 36 37 37 35 37 36 36 34 30 35 39 45 46 46 45 45 44 44 43 41 39 36 38 37 36 36 34 35 35 34 34 35 35 34 34 34 33 34 33 32 32
36 36 38 36 36 36 35 29 40 39 37 33 32 43 44 45 45 44 44 44 42 43 41 39 40 40 38 35 33 33 34 35 35 34 35 35 35 34 33 32 32 31 31 30
36 36 36 36 37 36 32 30 38 42 39 33 32 38 44 45 44 43 44 45 44 44 42 40 39 39 40 38 33 34 33 34 36 36 36 35 34 34 33 32 31 30 29 28
36 36 35 39 41 38 35 36 38 40 36 36 32 37 40 45 41 41 44 43 43 43 41 41 39 40 40 36 38 37 37 37 37 38 36 35 34 33 32 30 29 28 26 26
36 35 37 40 37 31 37 40 40 39 36 30 35 33 33 44 42 43 42 43 39 43 39 39 40 38 35 37 38 38 39 39 38 37 35 34 33 33 31 30 29 27 26 25
35 37 33 32 34 39 40 39 35 33 35 35 34 38 35 40 40 39 40 42 37 34 37 39 37 36 38 39 39 38 38 39 37 36 34 34 33 33 31 30 29 28 26 24
34 31 30 35 39 39 36 31 30 32 32 37 38 38 36 40 36 37 40 36 37 32 34 33 34 34 36 35 33 33 34 36 37 37 36 36 35 33 32 31 29 28 25 24
34 34 37 37 34 32 29 30 31 31 32 37 38 37 39 40 41 37 37 34 35 29 34 33 30 34 33 30 29 31 35 35 37 37 35 35 35 34 33 31 28 26 24 21
37 33 29 30 31 27 27 26 29 31 32 34 36 36 38 39 40 36 34 32 30 33 31 29 31 34 31 30 31 33 35 34 34 33 34 34 35 34 32 29 26 24 22 20
27 26 25 26 26 26 28 29 30 32 33 34 35 36 37 36 36 35 31 33 32 27 27 28 34 32 31 31 32 32 33 33 32 32 33 34 33 32 30 27 26 25 20 20
26 25 24 25 28 30 31 32 32 33 34 34 35 35 35 34 34 34 33 29 26 27 28 33 31 31 30 29 30 31 31 31 32 32 32 31 31 31 30 29 25 22 21 20
27 26 24 27 27 27 29 29 31 33 32 34 34 34 33 33 33 30 28 27 26 31 29 31 31 29 29 29 29 30 30 29 29 30 30 30 29 28 26 24 23 22 21 19
24 25 27 29 28 28 28 26 27 29 31 31 31 31 31 33 31 28 30 29 31 28 29 30 29 29 29 28 29 30 29 28 28 28 28 28 27 26 23 22 22 20 19 17

GFSNW_sfc_30mbdewp_015.txt.gz
Dewpoint
39 40 41 40 45 47 44 38 33 41 45 34 35 32 34 38 36 38 36 29 27 27 32 29 27 27 28 30 30 28 27 27 26 26 29 30 29 27 27 21 19 23 22 20
40 39 41 41 45 46 44 37 37 43 44 32 32 35 37 38 38 35 32 30 28 29 28 27 27 28 29 30 29 28 28 26 23 25 28 29 27 28 27 27 27 23 21 19
39 40 41 42 43 46 41 37 29 34 39 39 35 34 36 34 38 36 33 30 27 27 27 29 27 30 29 31 32 32 29 30 24 21 25 28 27 28 28 27 27 24 24 23
36 37 39 41 43 45 42 39 34 36 31 33 34 37 37 34 33 34 32 30 29 28 27 28 28 31 30 30 33 31 32 28 30 29 29 30 29 28 28 28 29 27 26 28
37 36 36 40 42 44 41 37 36 37 35 36 36 37 35 35 34 35 31 29 32 32 30 30 27 30 31 29 32 31 32 27 31 28 28 29 28 29 29 29 30 30 31 31
37 36 36 38 40 41 40 40 41 39 34 35 34 32 34 33 35 34 36 34 36 35 36 37 37 35 34 32 31 31 33 31 28 22 27 28 27 29 29 31 34 35 32 35
37 37 36 35 37 38 41 39 40 37 33 33 30 31 32 35 35 34 37 37 37 39 40 40 38 37 37 35 33 34 34 32 30 24 28 21 29 31 34 33 35 36 36 37
38 37 36 35 35 36 36 42 38 37 33 35 30 31 33 34 37 37 37 40 42 42 40 36 33 33 34 34 35 35 36 33 29 25 25 25 29 33 34 34 32 34 35 40
37 37 37 36 35 35 36 42 42 38 34 35 38 35 33 32 33 34 40 42 43 41 39 34 28 28 29 31 33 36 36 35 32 30 24 21 29 32 37 37 31 34 35 39
38 38 37 37 36 34 35 37 41 39 35 38 36 37 34 33 36 36 38 38 39 41 35 32 30 29 33 29 29 31 33 33 29 29 27 27 30 32 38 29 27 35 34 38
39 37 37 36 35 35 34 33 38 37 35 35 35 37 40 40 38 33 38 37 38 37 34 32 31 31 33 32 31 31 30 29 29 31 28 22 30 36 33 32 35 35 34 37
39 37 35 37 37 34 35 32 34 37 35 35 37 36 37 37 40 43 40 39 38 38 36 34 35 33 33 33 29 32 30 30 29 29 27 29 32 34 35 35 35 34 35 36
39 37 35 37 34 35 35 34 35 35 34 33 34 35 40 41 41 45 40 40 41 40 42 38 37 34 35 30 32 34 33 32 31 32 32 32 35 35 35 34 33 34 38 35
34 36 36 36 35 36 37 35 35 35 33 29 32 41 42 46 46 46 45 44 45 44 42 38 37 34 38 34 36 35 35 35 34 33 34 35 35 34 34 33 37 36 38 37
36 37 35 36 36 37 36 36 36 36 32 29 32 37 40 46 46 45 45 44 43 42 40 39 36 38 37 36 35 34 35 33 33 33 35 35 35 34 34 33 34 33 33 32
35 36 38 36 37 37 37 29 40 37 36 31 27 41 44 45 45 45 44 44 44 43 40 39 40 40 37 35 33 33 34 35 35 35 35 35 35 34 33 32 32 32 31 30
37 37 36 36 37 39 33 29 37 41 37 31 29 35 44 44 44 43 43 44 43 43 41 40 40 39 40 37 32 34 36 37 37 37 36 35 34 34 32 32 31 31 29 28
37 37 36 37 40 38 34 35 39 39 34 33 28 34 40 45 42 40 44 43 44 43 41 41 39 39 39 34 37 38 39 39 38 38 36 36 35 32 31 30 29 27 26 25
36 37 39 40 38 33 37 41 40 39 34 29 31 33 33 44 41 42 42 43 38 41 39 38 40 36 34 37 39 39 38 38 38 36 35 34 33 32 30 29 28 26 25 24
36 37 32 32 34 38 39 38 34 32 34 33 31 39 36 41 40 39 39 41 37 35 38 40 37 34 38 33 32 32 31 33 36 36 35 34 33 32 30 29 28 27 25 23
33 30 29 34 38 37 35 31 29 31 30 35 36 39 36 41 35 37 39 36 37 32 34 33 32 34 31 31 30 31 32 34 35 36 37 36 35 33 31 30 29 28 25 23
32 34 37 37 34 32 28 28 31 30 31 37 37 37 39 39 41 36 37 34 35 29 34 32 28 33 31 31 30 32 33 34 34 35 37 36 35 34 32 31 31 28 25 21
37 32 29 29 31 25 26 26 30 31 32 34 35 35 38 38 39 36 34 30 29 32 31 28 30 31 30 30 30 31 32 33 33 33 34 35 35 34 33 30 27 23 21 22
27 25 23 25 25 26 26 29 30 32 32 33 35 36 36 36 35 34 31 32 32 27 26 27 30 30 30 29 29 29 30 30 33 32 33 34 35 35 33 29 25 24 24 25
25 26 21 24 28 29 31 32 32 33 34 34 35 35 36 33 33 33 32 29 26 26 26 29 29 30 29 29 28 29 30 29 29 31 32 32 33 32 31 30 28 27 28 22
26 25 24 27 26 27 27 28 30 33 31 34 34 33 33 33 31 30 27 26 25 27 28 29 30 28 29 28 28 28 29 29 28 29 30 30 30 31 30 29 28 24 21 19
24 24 27 28 28 27 27 26 27 29 31 31 32 30 30 33 31 28 29 28 28 28 29 28 27 27 28 28 28 28 28 28 28 28 28 28 28 26 24 23 22 21 20 19

GFSNW_sfc_30mbdewp_018.txt.gz
Dewpoint
37 38 39 41 45 48 43 37 29 40 45 35 35 31 33 38 37 38 37 29 30 31 30 29 28 28 28 30 30 28 28 27 25 27 29 29 29 27 26 19 17 24 22 20
37 37 38 40 44 47 41 36 36 42 43 31 33 35 37 39 38 37 32 29 28 31 29 26 27 28 29 30 30 28 28 26 22 24 28 30 28 28 28 27 26 22 20 19
37 37 38 40 42 46 40 35 27 33 39 38 35 34 34 33 36 34 32 29 30 27 27 28 29 28 29 31 31 31 29 28 22 19 23 28 26 28 28 27 25 23 23 22
38 37 37 38 41 44 41 38 35 37 33 33 36 36 35 34 33 35 32 28 27 28 27 28 30 30 30 32 35 33 30 27 29 29 29 29 28 28 28 27 27 25 24 26
38 37 37 38 40 42 40 36 36 36 35 36 36 36 34 34 34 35 32 33 32 30 30 30 29 30 29 29 32 31 32 28 30 28 28 29 28 28 29 28 28 28 28 28
38 38 37 36 38 39 38 38 40 39 34 34 33 31 33 34 35 35 37 35 35 35 36 37 35 32 31 31 30 31 30 29 26 23 25 27 26 28 29 29 30 30 30 33
39 38 38 36 36 38 39 39 39 36 31 34 32 31 35 34 35 33 37 38 36 39 40 40 36 37 36 32 32 34 33 30 29 23 26 20 27 28 30 29 31 35 35 36
39 39 38 37 36 36 35 42 37 35 31 35 34 35 34 35 37 37 37 41 42 42 39 34 33 32 32 34 34 34 34 32 27 24 24 25 28 33 32 32 31 34 35 34
40 39 38 37 36 35 34 40 41 38 33 34 37 37 35 33 33 34 38 42 42 41 38 33 27 26 29 31 34 36 34 34 31 28 24 20 25 32 37 36 29 35 34 34
39 38 36 38 35 36 34 34 37 38 34 36 35 36 36 37 35 33 38 38 38 40 34 32 29 28 33 29 28 31 33 33 30 29 27 26 28 30 38 28 26 34 34 34
35 38 36 35 37 36 34 32 36 33 34 33 35 35 37 39 39 33 36 35 38 37 33 31 31 30 32 32 31 32 30 29 29 30 27 22 31 36 32 32 35 35 34 36
37 39 37 36 38 34 36 32 34 37 32 30 37 36 36 36 38 40 40 36 37 37 34 33 35 32 33 32 26 32 30 29 29 30 28 29 31 33 35 35 35 35 35 37
38 35 34 36 37 37 34 34 35 34 32 30 31 24 25 33 36 37 41 40 40 39 40 37 37 32 34 30 30 33 33 33 32 31 32 32 32 33 35 34 33 33 36 36
41 36 36 36 35 36 38 36 36 34 30 25 25 37 36 39 41 40 43 45 44 43 41 38 36 33 37 33 33 35 35 36 34 34 36 36 35 35 34 33 36 36 37 36
38 35 36 37 38 37 38 38 36 36 27 24 27 28 32 37 45 44 46 44 43 41 39 38 36 37 36 37 35 33 34 34 32 31 35 36 36 35 34 34 34 34 36 35
39 38 38 36 36 37 38 30 40 38 36 26 24 35 39 44 45 45 44 44 44 42 40 39 40 40 37 35 33 35 35 35 36 34 36 36 36 35 33 33 33 33 33 32
38 37 37 37 37 39 34 26 36 39 36 30 26 29 40 45 44 44 44 44 43 42 41 39 39 39 40 37 32 33 37 40 40 39 37 35 35 35 33 32 32 32 30 29
37 37 37 38 39 39 35 37 39 39 35 32 26 29 39 44 41 40 44 42 43 42 40 41 39 39 39 35 36 38 38 33 38 36 37 36 35 33 32 31 29 28 27 26
36 38 39 40 37 32 35 41 40 39 34 28 29 29 33 44 42 42 42 43 38 41 38 38 39 36 34 34 29 30 30 30 31 34 35 34 34 33 31 29 28 27 25 24
36 35 32 29 33 39 39 38 34 32 32 31 27 35 35 41 39 39 38 40 37 34 38 41 37 34 36 31 30 30 31 32 33 33 34 34 33 32 31 29 28 27 25 24
32 31 29 33 37 36 35 30 28 31 29 32 33 38 37 41 36 38 39 36 36 31 33 34 31 33 30 31 30 31 31 32 34 34 34 36 36 35 32 30 28 27 25 25
31 32 37 36 33 32 28 27 30 29 30 36 35 37 39 39 40 36 38 33 34 29 34 32 28 32 30 30 29 30 30 31 33 33 34 36 36 35 33 31 29 27 28 26
37 33 29 29 30 25 25 24 28 30 32 33 34 35 37 38 38 36 34 31 29 32 31 28 29 30 29 29 29 29 30 30 30 33 33 34 35 34 33 31 32 31 29 27
27 26 23 25 25 26 26 28 29 32 32 33 34 35 35 35 35 34 30 32 31 27 24 26 30 29 29 29 29 28 29 29 29 32 34 34 35 34 33 31 28 25 24 22
25 26 21 24 27 29 31 31 30 34 34 33 35 35 36 33 32 33 32 29 26 25 25 29 29 28 28 28 28 28 28 29 28 29 32 33 33 33 32 32 29 26 26 26
26 25 24 26 26 27 28 28 28 34 32 33 33 33 33 33 31 30 28 25 24 26 28 29 28 27 28 28 28 29 28 28 28 28 28 29 30 32 32 32 32 31 30 28
25 24 27 26 27 28 27 27 28 29 31 31 32 30 29 32 31 29 29 27 29 29 29 28 27 26 27 27 28 28 29 28 27 27 27 27 28 27 28 30 29 29 26 24

GFSNW_sfc_30mbdewp_021.txt.gz
Dewpoint
39 39 39 40 43 47 42 36 28 39 45 34 34 32 33 38 37 38 36 30 31 29 30 29 27 27 28 30 30 27 29 27 26 27 29 29 29 27 25 17 17 23 21 19
39 39 39 39 41 46 40 34 34 40 41 31 34 35 37 38 37 37 35 28 30 32 28 26 28 28 30 31 29 27 29 25 22 24 27 29 27 28 26 25 24 21 19 19
39 38 38 39 40 44 39 34 29 34 37 38 35 33 34 33 36 35 30 30 31 28 27 28 28 28 31 31 30 31 29 26 22 17 21 27 26 27 27 26 24 22 22 22
39 38 38 38 39 42 39 36 36 37 33 34 36 35 35 34 33 35 32 29 28 28 27 29 29 30 30 33 34 33 28 25 28 28 29 28 27 27 28 26 26 24 23 24
39 39 38 37 38 41 38 35 35 36 35 34 35 34 34 33 34 34 31 29 31 30 29 29 29 29 29 29 32 31 31 28 29 27 28 29 27 28 29 28 28 27 27 27
39 39 38 37 37 38 37 37 38 38 33 33 32 31 33 34 35 35 37 35 35 34 36 36 32 31 30 30 30 30 29 28 26 23 24 26 24 27 28 28 29 28 26 28
41 39 38 38 37 37 39 39 39 34 30 33 32 33 35 34 35 33 37 38 36 39 40 38 36 36 32 31 32 32 31 29 28 24 24 19 24 29 29 28 28 30 30 32
39 40 39 38 38 37 34 41 37 36 30 33 34 35 34 35 36 36 37 41 41 42 38 34 31 31 30 33 33 33 33 31 27 23 23 24 26 33 32 31 30 33 33 34
38 40 36 38 36 37 33 37 39 36 33 31 36 36 36 33 32 33 38 42 42 41 37 32 28 26 28 30 33 36 34 32 31 27 23 18 24 34 37 36 28 34 35 34
37 36 39 36 37 38 34 33 35 34 32 34 35 34 36 37 34 32 37 38 38 38 34 30 28 28 32 29 29 31 32 33 29 28 27 26 28 29 37 28 28 33 35 34
41 36 39 37 36 37 34 32 35 31 29 30 34 35 34 36 38 33 35 36 37 36 31 31 30 30 33 32 31 32 30 29 29 31 27 22 33 36 32 32 35 35 35 35
43 38 35 35 38 37 37 31 34 36 31 26 34 33 33 36 37 37 40 35 36 36 33 32 33 32 33 32 28 33 30 30 29 30 27 29 33 34 35 35 35 34 34 36
41 43 38 36 36 37 37 35 35 34 32 29 29 24 27 30 28 29 34 40 40 39 38 35 35 31 34 31 30 32 33 33 32 32 33 32 33 34 34 34 34 33 34 36
41 42 36 35 36 35 38 36 37 35 32 25 22 30 29 34 31 32 34 39 44 42 40 36 35 31 35 31 31 33 34 35 34 33 34 36 36 36 35 34 34 36 37 36
41 42 39 38 38 38 37 38 38 37 33 23 23 26 22 23 22 39 37 37 43 41 38 37 34 36 36 36 35 33 33 33 32 31 34 35 35 36 35 34 34 34 36 36
40 41 38 38 37 37 37 32 37 38 37 30 20 27 30 37 37 42 41 41 44 42 39 38 39 40 36 34 33 33 35 36 39 37 38 36 37 37 35 34 33 33 34 35
41 40 38 37 37 38 34 27 32 39 37 27 22 25 33 34 44 45 44 46 44 42 40 38 39 39 39 37 32 34 38 36 34 38 35 37 37 36 34 33 32 33 31 32
41 38 38 39 40 39 34 36 38 38 34 32 25 26 32 41 40 40 44 42 41 42 39 41 39 40 39 34 35 30 30 30 30 33 33 34 36 35 33 32 31 30 29 28
38 38 39 39 37 32 34 40 41 39 34 27 28 26 30 43 41 42 42 41 36 41 38 38 38 36 34 33 29 29 30 30 31 32 34 34 34 34 32 31 29 29 27 26
35 34 35 28 33 38 40 37 33 32 32 30 26 31 30 41 38 39 38 40 36 32 36 40 36 35 32 30 30 30 30 31 32 32 32 33 33 33 33 31 30 28 27 25
31 30 29 33 36 34 34 30 28 30 27 31 31 33 37 41 36 37 39 35 36 31 33 35 33 32 30 30 29 30 30 30 31 32 33 34 34 34 35 33 30 28 26 24
30 32 36 36 33 31 28 26 29 28 28 35 32 36 38 40 41 36 37 33 34 29 34 32 26 31 29 29 28 29 29 30 30 31 33 33 35 36 36 34 31 28 26 25
36 34 29 29 30 25 23 23 26 29 32 33 33 34 37 39 39 36 34 29 29 32 31 27 29 29 28 28 28 28 29 29 29 31 34 34 36 35 34 32 29 28 26 26
26 24 22 24 24 26 26 28 29 32 32 33 33 34 35 36 34 34 29 32 31 28 25 25 29 28 28 28 28 28 28 28 28 29 32 34 34 34 32 32 31 30 28 28
25 25 19 22 26 27 30 31 30 32 34 33 33 35 35 34 32 32 32 30 25 25 24 28 29 28 28 27 27 28 29 28 28 28 28 29 31 33 33 32 30 29 28 28
26 25 22 24 25 25 27 27 28 33 32 33 32 32 32 32 31 30 27 26 24 25 29 29 27 27 27 27 26 27 29 28 27 27 27 27 28 28 32 33 32 31 29 29
24 22 26 26 26 25 28 27 29 32 31 30 31 30 29 32 29 28 29 27 28 29 29 28 26 26 26 26 25 26 28 28 27 27 27 27 26 26 28 31 31 32 31 30

GFSNW_sfc_30mbdewp_024.txt.gz
Dewpoint
40 40 40 40 42 46 40 35 29 38 44 35 35 33 35 38 37 38 34 31 30 30 30 28 27 28 27 30 30 28 29 27 26 27 29 30 28 26 24 15 16 21 20 15
40 40 39 39 40 44 40 33 32 37 40 32 33 34 36 37 36 36 34 28 30 30 28 26 27 28 30 31 28 27 29 24 22 24 27 29 27 28 25 23 22 20 16 16
40 40 39 39 39 43 39 34 29 35 37 38 35 33 34 33 36 34 30 30 30 28 27 29 27 28 31 31 29 31 29 25 21 16 20 27 26 27 26 25 23 21 21 20
40 40 39 39 39 42 39 36 34 37 32 33 35 35 35 33 32 35 32 29 28 28 27 29 28 30 31 32 33 32 28 25 27 27 28 28 27 27 27 25 25 21 22 23
41 40 39 38 38 41 38 34 35 35 34 34 33 33 33 34 34 35 30 29 33 29 28 28 28 29 29 29 32 30 31 27 29 25 27 28 28 28 28 27 27 26 26 26
41 41 39 38 37 39 36 36 38 37 32 32 31 31 33 33 34 35 37 35 34 33 35 36 32 31 31 30 30 30 29 27 24 22 24 25 23 26 27 28 29 28 25 26
39 41 39 38 38 37 39 39 39 34 29 32 32 33 34 34 35 33 37 38 35 39 39 37 35 32 31 31 32 31 29 28 28 23 23 16 22 28 29 28 28 29 28 28
40 39 39 38 37 39 34 38 36 35 30 31 32 35 35 35 35 36 37 40 41 42 37 32 30 30 29 32 33 33 31 30 26 23 22 23 26 32 29 29 29 31 30 30
39 38 38 37 37 39 33 34 36 34 30 29 34 33 35 33 32 33 38 42 42 40 35 31 27 21 26 27 33 35 33 32 30 25 20 18 22 34 37 34 28 33 34 34
43 41 38 40 37 38 33 32 35 32 29 31 35 33 34 38 34 31 37 38 38 37 33 30 27 27 31 28 29 30 32 32 28 27 25 26 27 29 37 28 27 32 35 35
41 43 40 36 37 38 34 32 35 30 26 27 29 35 34 34 38 33 35 36 36 35 31 30 30 29 32 31 31 32 29 28 28 28 26 20 32 35 31 32 34 35 35 35
41 41 42 42 36 36 38 33 34 36 31 26 30 29 29 30 30 33 37 35 34 35 32 32 31 30 33 32 28 33 29 29 29 29 27 28 32 34 35 35 33 34 34 34
39 40 42 39 37 37 36 35 35 35 32 31 30 28 28 31 30 28 33 39 40 38 37 34 34 31 33 29 30 31 33 33 31 32 32 33 34 35 35 34 34 34 34 35
40 39 40 42 39 37 37 37 37 35 33 26 23 27 26 32 31 29 27 33 34 40 39 35 34 30 34 30 30 31 33 35 33 33 34 34 35 36 35 35 34 34 36 37
42 40 39 42 39 39 38 38 38 37 32 26 26 28 28 28 25 24 25 29 30 34 39 36 34 35 35 35 34 32 34 32 31 30 34 36 36 37 36 36 35 34 35 36
40 40 42 41 38 38 37 33 36 37 38 30 23 25 25 28 33 25 22 34 34 37 40 36 38 38 34 33 31 33 34 36 37 37 39 37 36 38 38 36 35 34 34 36
39 42 40 38 39 38 34 29 30 39 39 29 22 22 30 35 33 34 36 40 40 40 40 37 38 39 38 35 30 35 36 31 31 33 35 37 36 35 36 35 33 33 32 33
41 40 37 40 40 39 35 34 38 38 34 32 23 24 30 38 34 34 40 40 40 42 40 40 38 39 38 33 35 32 30 30 31 32 33 33 34 34 34 33 32 31 30 29
41 35 40 39 37 32 32 40 40 39 34 26 27 25 25 37 36 40 39 40 34 41 38 38 37 35 32 35 33 29 30 29 30 31 32 33 33 34 34 32 31 30 30 27
35 34 34 28 33 37 39 37 32 32 32 30 25 31 27 35 38 37 37 39 34 31 35 39 37 33 32 29 30 30 30 30 30 30 31 32 32 33 33 33 32 30 29 27
30 28 29 32 36 34 34 29 28 29 27 30 30 31 30 41 35 36 37 35 35 30 34 34 33 31 31 29 29 29 29 29 30 30 31 32 33 33 33 34 34 32 29 27
34 32 35 35 32 30 27 26 29 28 27 34 32 34 36 39 40 36 36 32 33 28 35 33 28 30 28 28 28 28 28 29 30 30 31 34 35 35 35 35 35 32 28 25
36 34 29 28 28 24 23 20 25 26 32 33 32 31 37 38 39 35 34 31 29 32 32 28 28 29 28 28 28 28 29 29 29 29 30 34 34 35 33 33 31 29 26 25
26 24 20 23 22 24 24 26 28 31 31 32 33 33 34 36 34 34 30 31 31 27 25 25 29 28 28 28 28 28 28 28 28 28 29 31 33 35 34 32 30 28 27 26
23 24 15 21 24 26 27 30 29 30 32 31 32 33 35 33 32 33 32 29 26 26 24 27 29 28 27 26 25 27 28 28 27 27 28 27 28 31 33 33 31 30 29 28
25 24 20 23 24 24 26 27 27 33 31 31 32 31 31 31 32 29 27 25 24 25 28 29 28 27 27 27 24 26 28 27 27 27 27 27 26 26 29 33 32 31 30 30
24 21 24 25 25 24 25 27 28 32 30 28 30 29 29 32 29 27 29 27 27 28 28 28 26 26 27 25 23 25 26 25 25 26 27 27 26 26 26 25 28 32 31 30

GFSNW_sfc_30mbdewp_027.txt.gz
Dewpoint
41 41 40 41 40 44 40 34 31 37 42 33 37 34 35 38 37 38 31 31 30 30 29 28 28 27 27 30 30 27 28 27 26 27 29 30 28 26 22 16 16 20 19 12
41 41 40 40 40 44 40 33 32 36 40 30 33 33 34 37 35 34 32 29 31 30 28 26 27 28 30 30 28 28 28 24 23 25 27 29 27 27 24 21 22 20 14 13
42 41 40 40 39 43 38 34 28 34 37 38 34 33 34 33 36 33 30 30 29 27 27 29 27 27 32 31 29 32 29 25 20 13 19 27 26 27 25 24 21 20 19 18
42 41 40 39 38 42 38 35 34 36 31 33 34 35 34 32 32 35 32 29 28 27 26 28 28 30 31 31 34 31 28 24 26 26 26 28 27 27 27 25 24 20 20 21
41 41 40 39 38 40 37 34 34 36 34 33 33 32 33 33 34 35 30 29 32 29 27 26 27 29 29 29 32 30 30 28 28 24 27 28 27 28 27 27 26 25 25 25
41 40 39 39 38 38 36 36 38 37 32 31 31 31 33 33 34 36 37 35 33 33 34 37 34 31 30 31 30 30 28 27 24 21 24 25 22 26 28 28 28 27 25 26
41 39 39 38 39 36 38 38 38 34 28 31 32 32 34 35 36 33 37 38 34 37 38 36 33 32 32 31 31 31 28 27 27 23 22 17 20 28 28 28 28 29 28 28
42 40 39 39 37 37 35 34 35 33 28 30 31 33 34 35 34 36 36 40 40 41 36 31 29 28 29 32 33 32 31 29 26 23 21 21 26 30 28 28 29 29 29 29
42 44 41 40 38 38 34 33 35 32 28 25 32 31 33 33 32 32 37 42 42 39 34 30 26 22 25 28 32 34 32 30 26 24 20 16 22 34 35 34 30 33 32 32
40 41 43 41 37 39 33 32 34 30 27 29 31 30 31 36 35 32 33 38 38 37 33 29 27 25 29 26 27 29 31 32 28 26 23 24 26 31 36 28 28 32 35 35
40 40 40 43 41 37 36 34 34 30 25 25 25 33 33 31 35 34 34 36 36 34 32 29 29 28 31 29 29 28 28 28 26 25 23 20 31 33 29 32 33 34 34 35
42 40 40 43 40 37 38 35 35 35 29 27 28 27 27 27 28 28 33 36 35 35 32 31 30 29 32 31 26 33 29 28 28 27 25 27 33 34 35 35 33 34 34 34
43 41 38 41 43 41 36 36 37 35 32 29 30 30 30 31 30 29 29 35 41 37 37 33 32 30 32 29 29 31 33 33 30 31 31 32 32 34 36 35 35 35 34 34
43 42 42 41 41 41 39 37 38 36 32 26 24 27 26 27 30 30 30 30 33 32 37 36 34 31 34 30 30 30 32 33 32 32 33 34 35 36 36 36 36 35 35 36
44 41 40 41 43 40 39 38 37 37 32 25 27 29 29 28 30 30 29 27 25 27 32 37 34 34 33 33 33 31 34 33 33 32 34 34 35 37 37 37 37 37 36 35
44 42 41 43 38 39 37 32 36 38 37 29 23 27 25 26 28 28 27 26 28 32 33 38 36 36 33 31 31 32 33 34 36 36 39 38 38 37 37 33 34 34 34 34
43 42 42 37 40 38 33 29 30 39 37 30 22 19 25 35 31 28 26 25 30 34 33 38 37 38 36 33 30 33 35 35 32 32 33 34 36 34 33 34 35 34 32 32
42 42 37 40 40 38 35 34 38 38 34 31 23 21 27 36 32 26 33 31 32 37 36 39 37 39 37 32 34 33 30 30 30 32 32 32 33 34 34 35 33 32 31 30
42 37 36 40 36 32 32 39 41 39 33 25 26 23 23 35 35 36 35 37 31 37 36 38 36 35 32 33 35 32 30 30 30 30 30 31 32 32 33 33 32 31 31 30
34 34 34 30 33 36 38 38 32 32 32 30 24 30 26 33 34 34 34 35 33 30 35 39 36 33 32 30 30 29 29 29 30 29 29 30 31 31 33 33 33 33 32 30
30 27 29 32 36 33 33 29 28 29 26 30 29 30 29 36 32 35 37 34 34 30 34 34 33 31 31 29 28 29 29 29 29 30 30 31 31 33 33 34 34 34 33 30
36 34 35 35 31 29 27 26 29 28 25 33 31 32 34 36 40 36 35 33 33 27 36 33 29 30 28 28 28 28 28 28 29 30 30 33 34 35 35 34 35 35 34 29
35 34 30 28 28 24 22 20 24 26 30 32 32 30 35 38 38 34 33 29 28 32 31 28 28 28 28 28 28 28 28 28 28 28 29 31 33 35 35 33 30 30 28 26
26 24 16 23 22 24 24 24 27 29 30 30 31 31 33 35 33 34 30 31 31 27 24 24 28 27 28 27 27 28 28 28 28 27 28 28 29 32 35 34 34 32 27 26
21 22 10 18 24 25 26 28 29 29 31 29 29 31 34 33 31 33 31 29 25 25 24 26 28 28 27 24 24 27 27 27 27 27 27 27 27 27 28 33 32 31 29 27
25 24 20 22 23 22 25 26 26 31 31 31 30 29 30 30 31 29 27 26 23 25 26 28 28 27 26 24 23 25 27 25 24 26 27 27 26 26 26 30 30 32 30 30
22 19 23 23 23 22 23 27 27 29 29 27 29 27 29 32 29 27 29 26 27 26 28 28 27 26 27 24 23 24 22 20 23 25 27 27 26 25 25 24 24 26 31 31

GFSNW_sfc_30mbdewp_030.txt.gz
Dewpoint
43 42 41 41 40 44 43 37 36 41 44 37 38 35 36 37 37 37 31 31 31 29 30 29 29 25 29 30 29 27 28 29 26 27 29 29 28 26 22 18 20 21 19 12
42 42 41 41 39 43 43 36 36 41 43 32 33 34 35 36 34 34 31 30 31 30 29 27 28 29 30 31 29 28 28 27 24 26 28 29 28 27 25 23 24 22 16 13
43 42 41 40 39 41 41 37 31 38 40 38 35 34 33 33 36 33 31 31 29 28 27 28 27 28 32 31 29 32 28 26 23 17 23 28 27 27 25 25 22 20 17 17
42 41 41 39 39 40 40 38 34 35 34 34 35 35 34 32 32 35 32 29 28 26 26 27 27 30 30 31 34 31 29 26 27 25 26 29 28 27 27 25 24 21 19 20
43 40 40 39 39 40 38 34 34 35 34 33 33 32 33 33 34 35 30 29 30 29 26 25 26 29 29 28 33 29 30 29 29 25 27 28 28 28 27 27 26 25 24 23
43 41 40 39 39 38 36 37 38 37 32 32 31 32 33 34 35 36 37 34 33 32 33 35 34 31 30 30 29 29 29 29 26 23 25 25 23 25 27 28 28 26 24 25
42 43 42 41 39 37 37 36 38 32 29 31 32 32 34 34 35 35 37 38 34 35 35 33 32 32 32 31 31 30 29 29 28 25 24 19 23 28 28 27 27 28 27 27
42 43 42 41 40 37 34 35 35 33 25 29 29 32 33 34 34 35 37 39 41 40 36 31 28 28 29 32 33 31 30 29 27 24 22 22 23 29 28 28 29 28 28 28
41 40 42 43 40 38 34 35 36 32 27 22 29 29 31 32 33 33 37 41 42 39 35 31 26 22 24 27 31 34 32 30 25 24 21 16 23 34 35 32 29 32 30 30
42 40 42 43 44 40 35 34 35 31 24 23 30 27 28 34 36 33 33 38 39 38 34 29 27 25 26 26 26 29 30 30 26 25 22 21 24 33 36 27 29 33 34 35
43 43 42 42 44 39 38 37 36 31 28 25 24 30 27 24 29 33 35 36 37 36 33 31 28 27 29 28 27 27 26 26 27 27 24 20 29 32 27 31 33 33 35 36
44 43 41 40 43 43 40 36 35 36 31 28 28 26 25 25 27 29 30 35 36 36 35 33 32 30 31 30 26 31 27 28 25 25 24 27 32 33 36 36 35 35 35 35
43 44 42 42 42 43 42 37 37 36 33 31 29 28 30 32 28 27 23 31 38 38 37 35 34 31 33 29 29 30 33 33 30 30 29 30 31 34 35 35 35 36 35 35
42 43 42 41 42 43 41 38 39 37 34 26 26 30 27 28 31 30 29 27 31 30 33 37 36 32 34 31 30 30 32 33 31 31 33 34 35 35 36 37 37 37 37 36
43 43 42 42 42 39 39 40 39 38 33 25 25 30 29 29 28 29 30 28 27 27 28 31 35 35 34 33 32 31 34 33 31 29 33 32 34 36 38 38 37 36 36 37
43 43 42 43 38 40 38 32 37 39 38 30 23 29 27 26 28 29 29 29 28 29 27 29 37 37 34 32 31 32 33 35 35 33 35 37 38 37 38 34 34 34 35 35
43 42 43 40 39 39 34 30 32 39 37 30 23 22 24 30 32 29 28 29 27 26 27 29 35 38 36 34 29 31 33 34 35 34 34 34 35 35 34 33 34 35 35 33
43 43 40 37 41 39 36 35 39 39 35 30 22 22 25 33 31 26 28 26 26 29 29 34 34 38 37 34 34 34 34 32 31 32 32 32 32 32 33 34 34 33 33 32
42 37 37 40 37 33 33 38 40 39 35 26 25 23 23 36 33 34 29 29 23 28 32 34 36 34 33 34 34 33 32 31 32 31 30 30 32 32 33 33 34 32 32 32
35 34 34 32 33 36 38 37 33 32 32 31 25 30 26 32 34 33 33 33 31 26 32 38 34 33 33 31 31 31 30 30 30 29 30 31 32 32 33 33 34 34 34 33
34 31 29 33 36 34 32 29 29 29 26 29 29 29 28 35 29 31 34 31 32 29 32 33 32 31 31 29 29 29 29 29 29 30 30 31 31 32 34 35 34 35 35 34
37 35 36 36 32 30 27 26 29 28 26 32 30 32 33 33 39 36 36 32 33 28 36 33 30 31 28 28 28 28 28 29 29 30 30 32 34 34 35 34 33 33 35 35
36 33 29 28 28 24 23 21 25 27 30 31 30 28 33 36 38 35 33 30 29 33 31 27 29 29 28 28 28 28 28 29 29 29 29 29 31 34 35 34 34 29 28 27
26 21 7 20 21 24 25 24 27 30 30 29 29 29 31 34 33 34 30 31 31 28 25 25 29 28 28 28 28 28 28 28 28 28 28 28 29 31 33 34 34 34 32 28
22 20 10 15 24 25 27 27 28 30 31 30 28 28 31 32 31 33 31 28 25 24 24 27 30 29 27 25 26 27 26 26 27 28 27 27 27 27 27 31 32 32 31 28
25 23 20 21 21 21 24 25 26 30 31 31 30 27 28 30 31 29 28 27 24 25 28 29 29 28 25 23 24 26 25 22 23 27 27 27 26 25 25 25 24 28 31 31
22 20 23 23 22 21 22 25 27 29 28 26 27 26 28 29 29 27 29 27 28 28 30 29 29 27 26 22 23 23 19 20 22 24 26 27 26 26 25 25 24 24 27 31

GFSNW_sfc_30mbdewp_033.txt.gz
Dewpoint
44 43 42 41 41 41 44 40 39 43 44 38 36 33 36 37 35 35 31 30 29 27 28 27 27 25 29 30 28 26 29 29 27 28 29 29 28 25 24 20 22 19 19 14
43 43 42 41 40 40 42 37 36 43 44 33 30 33 33 35 32 32 29 28 30 30 27 26 28 28 30 31 29 27 28 28 25 26 28 29 28 27 25 23 24 24 16 15
43 42 41 40 40 40 42 38 37 38 38 38 31 30 30 31 36 31 30 29 29 28 26 26 27 28 31 31 30 30 28 26 26 21 26 27 27 27 27 25 23 19 16 18
43 42 41 40 39 39 41 37 35 36 35 34 35 35 34 31 31 34 31 29 28 25 24 24 25 28 29 30 33 30 29 28 27 24 27 29 28 26 26 26 25 19 17 16
42 43 42 41 39 38 37 34 35 35 34 34 33 33 33 32 32 33 28 28 28 26 24 23 24 27 27 26 31 28 30 28 30 25 27 27 27 27 26 26 25 23 22 21
43 43 42 41 40 34 30 34 37 35 33 33 31 32 33 34 35 35 35 33 29 28 29 32 31 29 28 29 29 28 28 31 27 24 25 25 23 25 26 26 27 25 22 23
42 42 42 42 41 36 30 32 36 32 29 29 31 32 34 34 35 35 35 36 33 34 34 32 31 30 30 30 29 29 28 30 29 26 25 20 25 27 26 26 26 27 26 25
42 41 41 42 42 39 34 34 31 28 22 21 26 31 32 33 34 34 36 38 40 37 36 30 28 28 28 29 30 29 28 27 27 25 22 21 19 24 26 26 27 27 27 27
42 41 42 43 43 42 36 36 36 29 23 23 27 25 28 32 32 32 36 41 42 40 35 30 24 22 22 25 29 32 29 27 26 23 21 17 24 30 30 30 29 30 28 28
43 43 42 43 42 40 38 36 36 31 24 18 26 23 28 31 34 32 33 37 39 40 33 28 25 23 24 22 24 27 28 27 25 23 21 21 23 35 34 29 30 33 32 33
43 43 41 41 41 42 40 37 37 31 28 27 26 24 22 19 23 28 35 35 37 37 33 29 28 24 25 23 25 26 25 24 24 23 22 20 27 34 30 32 33 34 35 36
43 43 43 42 42 42 42 36 36 36 33 29 30 29 27 25 24 26 30 34 35 37 34 31 29 25 27 26 23 27 24 25 23 24 24 26 29 29 34 35 35 35 36 36
43 43 43 42 41 42 43 39 38 37 34 29 27 27 29 30 31 28 20 25 34 35 34 37 35 30 28 26 26 28 28 29 28 27 27 28 29 34 34 36 36 36 36 36
43 43 42 42 41 42 41 38 37 36 33 27 24 30 28 28 30 29 27 24 28 29 32 33 36 32 30 27 28 28 29 32 30 28 29 33 32 31 33 36 37 37 38 38
43 43 42 42 43 39 40 39 38 39 33 26 27 30 29 28 27 28 28 27 26 26 27 30 32 34 33 33 32 29 32 31 30 28 29 29 30 34 36 37 38 36 35 36
42 42 42 42 40 40 38 31 38 39 38 31 23 28 27 25 26 27 28 28 27 26 25 26 29 36 37 30 27 27 30 32 32 30 34 35 36 38 37 37 36 35 35 35
42 42 43 40 37 41 34 31 35 39 38 29 24 25 24 25 31 30 29 28 29 27 27 23 25 31 32 35 27 29 31 32 34 37 36 35 35 35 36 34 33 34 34 35
43 43 40 36 41 39 35 37 39 39 35 32 23 23 26 31 31 27 28 26 27 26 22 23 23 26 31 32 34 32 33 34 35 34 33 33 32 31 32 33 34 34 33 33
41 37 37 40 37 33 34 38 40 40 35 27 26 24 26 35 33 33 28 27 21 22 23 22 23 27 29 35 34 34 34 33 33 33 32 31 31 32 33 34 34 34 33 33
36 32 31 32 32 36 37 37 33 32 32 31 25 32 27 32 33 31 31 29 29 22 23 29 30 31 36 35 32 34 32 31 31 31 31 31 33 34 34 34 35 35 35 35
35 33 30 33 36 34 32 29 29 30 27 30 30 30 28 35 28 30 33 31 32 28 31 32 31 32 34 32 30 30 30 30 30 30 31 31 32 33 34 35 36 34 34 35
37 35 35 35 32 31 28 28 30 29 28 32 30 30 31 34 36 31 33 31 31 28 33 31 30 31 30 29 29 28 29 29 30 30 31 31 33 34 34 35 34 32 30 33
36 32 29 29 29 25 23 21 24 25 31 30 29 27 30 34 37 34 33 30 30 34 31 28 30 30 29 29 29 28 29 29 29 29 30 30 30 33 34 34 35 35 31 27
28 24 12 24 23 25 26 26 27 31 31 29 28 27 29 33 31 33 30 32 32 28 26 26 32 30 29 29 29 28 28 28 28 29 29 29 29 30 32 34 34 34 33 33
28 25 19 18 25 28 29 30 28 30 31 30 28 28 29 29 31 32 31 29 26 24 25 31 33 30 28 28 28 27 26 26 27 28 28 27 27 27 27 27 27 31 32 32
28 26 24 24 23 26 27 28 28 31 31 30 30 27 27 28 30 29 29 28 26 28 31 32 30 29 26 24 26 26 23 20 22 26 27 27 26 26 26 26 25 25 28 32
25 25 26 26 26 24 24 22 24 29 28 26 27 25 27 29 27 28 31 29 32 32 33 31 31 28 24 22 23 23 18 19 20 22 24 26 25 21 19 20 26 27 25 26

GFSNW_sfc_30mbdewp_036.txt.gz
Dewpoint
44 43 42 42 41 41 43 43 38 43 46 40 36 33 34 36 33 34 30 30 29 27 27 25 25 27 29 30 28 27 29 29 28 32 32 31 34 31 30 27 23 20 19 15
43 43 43 42 41 39 41 38 37 44 44 34 31 33 33 34 32 31 29 28 30 29 26 25 27 28 31 31 30 28 29 29 25 26 29 29 28 28 29 25 25 23 18 15
43 43 43 42 40 40 42 38 36 40 42 37 35 31 30 32 36 32 30 29 29 28 26 26 27 28 31 31 30 29 28 27 27 22 25 29 27 27 27 25 22 21 20 18
43 43 43 42 40 40 42 36 34 35 35 35 35 34 33 30 32 34 31 29 28 26 24 24 26 29 30 31 31 30 30 26 25 24 27 29 29 27 27 26 26 21 20 18
43 42 43 42 41 39 35 34 34 35 34 34 33 33 32 32 32 33 28 29 28 26 25 24 25 28 27 26 30 29 31 28 29 23 27 27 27 28 26 27 27 26 25 22
42 42 42 43 41 37 28 30 35 36 33 32 31 33 33 33 35 35 35 35 33 28 34 34 32 29 28 28 29 28 29 30 26 24 25 25 21 25 27 26 27 26 24 23
42 42 42 43 42 39 33 33 35 30 29 27 31 32 33 33 34 34 36 37 35 33 34 32 31 30 29 29 29 29 29 30 29 26 25 17 23 27 27 26 27 27 26 25
43 43 42 43 43 41 36 34 32 28 22 17 23 25 28 32 34 34 36 40 40 36 36 31 28 28 28 28 29 29 28 29 28 25 23 23 23 27 26 26 26 27 27 27
43 43 42 43 42 40 38 36 37 30 24 18 21 20 20 30 32 32 36 40 42 40 37 31 26 26 24 26 29 31 29 28 25 25 21 19 28 28 30 29 29 30 28 28
43 43 42 42 42 42 41 38 37 33 26 22 24 24 29 29 31 32 33 36 38 40 34 28 27 24 24 23 22 27 29 28 26 24 21 22 33 33 33 30 30 29 29 29
43 43 43 43 42 42 42 38 37 33 29 28 28 25 22 21 19 22 28 33 36 35 32 30 29 26 26 23 24 26 26 26 25 25 23 20 35 34 32 33 34 35 35 36
43 43 43 42 42 42 43 38 38 36 34 29 32 32 31 29 26 24 24 29 32 37 36 33 31 27 24 25 23 26 25 26 24 24 24 28 30 32 35 36 35 36 37 36
43 43 43 42 42 41 43 40 40 38 33 30 30 27 29 31 31 30 23 24 32 31 33 33 36 32 29 24 25 26 27 28 27 27 27 28 29 34 35 36 36 37 37 36
43 42 42 43 42 43 39 38 38 37 33 27 25 30 28 29 28 31 30 27 26 28 31 31 33 33 31 28 28 29 29 29 28 29 29 32 31 32 35 36 37 37 37 37
43 42 42 42 42 40 41 39 39 40 34 26 28 31 29 27 28 29 29 28 27 27 26 28 27 34 35 33 33 31 32 31 30 28 30 29 31 33 35 37 38 36 35 36
43 43 43 43 39 40 39 34 39 38 38 31 24 29 28 26 26 27 27 28 28 28 26 24 27 32 32 31 28 30 29 31 32 31 34 36 37 38 38 37 36 35 34 35
43 43 43 40 39 41 35 33 37 40 38 30 24 25 26 25 30 31 30 30 28 27 26 24 24 24 33 30 28 31 30 29 32 36 37 36 36 36 36 34 33 34 34 34
43 42 40 37 41 39 37 38 40 39 35 32 24 23 27 31 31 29 29 27 29 30 27 25 22 24 24 23 31 36 37 33 35 35 33 33 32 32 32 34 34 34 34 34
41 36 37 40 37 33 35 38 39 40 35 27 27 24 25 36 33 34 30 28 23 25 23 22 21 21 24 25 25 34 36 34 34 33 32 31 32 33 34 35 35 34 34 34
39 33 32 32 33 36 36 37 33 32 32 32 26 31 27 33 32 32 31 31 27 25 24 26 23 23 24 28 36 36 32 32 33 32 32 31 32 34 34 34 35 35 35 35
36 32 30 34 36 35 32 30 29 30 28 30 29 31 29 32 28 29 34 30 30 26 29 27 30 29 32 34 32 30 30 30 30 31 31 32 32 34 34 35 36 35 32 31
37 34 35 34 31 31 28 27 30 29 28 32 31 29 29 31 35 30 32 29 31 27 32 29 29 31 32 32 30 30 30 29 30 31 31 32 33 34 35 35 35 35 34 28
37 32 29 29 29 24 21 19 24 25 31 31 30 27 28 31 35 32 33 30 30 34 30 30 31 30 29 29 29 28 29 30 30 30 30 30 31 33 34 34 34 34 34 33
30 25 13 23 23 25 26 26 28 31 30 30 29 29 27 29 30 32 28 33 32 28 26 28 32 30 29 29 29 28 28 29 29 29 30 29 29 29 30 31 30 33 33 33
29 26 19 16 26 28 29 30 27 29 32 31 28 28 29 28 28 31 31 29 26 28 27 32 32 30 29 28 28 27 26 27 27 28 27 27 27 26 26 26 26 26 30 32
28 26 23 25 21 25 27 28 27 30 30 30 30 27 26 27 29 28 28 28 27 30 32 33 32 31 27 26 27 24 20 21 24 26 26 26 26 25 25 26 27 26 26 27
26 25 28 27 27 25 26 23 25 29 27 25 25 23 25 27 26 27 31 30 31 34 34 33 32 30 27 23 25 21 17 19 20 22 24 25 25 20 15 14 17 25 26 25

GFSNW_sfc_30mbdewp_039.txt.gz
Dewpoint
44 43 43 43 42 42 41 40 37 43 46 39 37 32 34 36 34 34 32 30 29 28 27 26 28 29 29 31 32 33 31 32 29 32 37 37 34 31 28 25 23 20 20 16
44 43 43 43 42 41 40 38 37 44 44 34 31 33 34 35 33 32 30 29 29 29 27 26 28 29 31 31 30 28 30 29 26 28 32 34 33 33 33 29 26 22 16 14
43 43 43 43 41 41 41 39 34 38 43 39 35 32 30 33 35 33 31 29 29 28 25 25 28 29 31 31 30 30 29 28 25 21 23 29 28 30 32 33 28 24 23 19
43 42 43 43 42 42 41 36 34 35 33 34 34 34 33 31 31 35 31 30 28 28 24 25 27 30 31 31 30 30 30 25 24 26 28 29 28 27 28 28 25 22 21 19
42 42 43 44 43 38 31 32 33 35 34 34 33 33 33 34 34 33 30 30 28 26 30 29 26 28 28 27 30 29 31 28 27 21 26 27 25 28 28 28 26 26 26 24
43 43 43 43 43 37 29 32 34 36 32 31 32 33 33 34 35 34 35 36 34 32 33 34 32 29 28 28 29 28 30 28 24 23 26 25 20 24 25 27 28 27 24 25
43 43 43 43 41 41 33 33 33 30 25 20 25 26 30 32 33 34 35 38 34 33 36 34 31 30 29 29 29 29 30 28 27 25 25 15 15 27 26 25 27 28 27 26
44 43 43 43 42 42 35 35 33 29 22 20 18 20 21 28 33 34 37 40 41 41 38 31 28 28 27 28 29 29 31 29 26 23 23 21 24 27 25 26 25 28 27 26
43 43 42 43 42 43 38 37 36 32 24 20 21 19 26 29 30 33 38 40 41 40 37 33 26 24 25 26 27 31 30 29 26 26 21 18 27 28 29 29 24 30 28 27
43 43 44 43 42 42 42 38 37 33 28 27 27 23 25 24 23 28 33 30 35 39 34 30 26 24 24 24 24 24 27 28 26 25 23 22 25 29 32 26 28 30 29 29
43 43 43 42 42 43 41 39 37 32 29 29 28 26 23 22 23 21 25 32 36 35 32 29 28 26 25 24 24 26 25 24 25 26 23 19 34 33 31 33 35 33 32 32
43 43 43 42 42 42 42 38 40 37 33 28 32 32 32 31 29 25 24 24 31 34 34 34 34 28 25 25 23 27 24 26 24 25 24 26 35 32 35 35 34 36 36 37
44 42 42 43 43 43 41 38 39 38 34 29 28 28 29 31 31 31 24 28 31 30 32 32 34 32 32 26 24 26 27 28 26 27 27 28 29 34 36 36 36 37 37 36
44 43 42 43 43 41 40 38 39 37 33 25 25 30 29 31 29 31 31 30 29 28 30 25 30 31 34 30 30 29 28 29 27 27 29 31 30 34 36 36 37 37 36 36
44 43 43 43 43 39 41 38 38 39 32 25 25 30 30 27 30 30 32 31 28 27 24 25 22 31 29 32 31 29 32 30 28 27 30 29 29 32 36 36 37 37 37 36
44 43 43 42 40 40 39 34 38 39 38 31 24 29 28 26 27 27 28 28 28 28 27 25 25 29 31 28 26 24 26 31 33 30 33 34 37 37 37 37 37 35 35 35
43 43 42 40 40 38 33 30 35 39 37 30 24 24 28 25 29 31 30 30 29 28 27 25 24 24 29 27 20 24 27 34 36 35 37 36 37 36 36 35 34 34 34 34
42 41 37 38 40 39 35 38 40 39 34 31 24 24 27 32 31 30 30 28 29 29 27 27 25 24 23 21 21 23 22 30 35 34 35 36 35 33 33 34 34 34 34 34
40 36 38 40 35 32 34 38 40 39 34 26 25 24 23 36 33 34 31 29 25 27 25 23 22 19 19 21 22 22 30 35 35 35 33 32 32 33 34 35 35 35 34 35
39 34 33 31 32 36 37 37 33 32 32 32 25 30 26 32 32 31 31 30 25 24 23 26 21 20 22 24 27 37 35 35 36 33 32 31 32 33 34 35 35 35 35 33
35 31 30 34 37 34 32 28 28 30 28 30 29 30 28 31 28 28 33 29 28 25 27 24 27 29 32 33 31 31 31 34 34 34 32 33 33 34 34 35 35 35 34 30
34 33 35 34 30 29 26 25 28 27 25 31 30 29 29 30 34 30 31 28 30 24 31 27 27 31 32 33 32 32 32 34 33 33 32 33 34 34 35 35 35 34 35 31
36 31 27 28 26 20 15 13 19 18 28 30 29 24 28 29 33 31 31 29 29 33 29 29 30 31 30 31 32 32 32 33 34 31 31 31 32 33 34 34 33 34 34 34
27 22 14 21 19 20 21 20 22 27 30 27 28 27 27 28 28 31 27 32 32 26 26 27 31 32 30 29 29 29 29 32 32 32 30 29 29 29 28 27 26 28 31 32
27 23 17 14 23 25 28 28 25 26 30 29 27 27 29 26 27 29 30 28 25 28 26 31 32 32 32 28 28 26 25 26 27 27 27 26 26 26 26 26 26 26 27 30
26 25 22 24 20 20 25 25 25 28 29 29 29 26 25 26 28 26 27 27 25 26 30 34 34 32 32 30 27 23 19 21 25 25 28 28 25 23 23 23 22 26 26 25
26 23 26 26 25 24 25 26 24 29 25 22 24 20 21 25 24 24 30 24 27 32 33 33 32 32 31 31 27 23 17 18 20 22 24 24 25 19 13 12 16 23 26 26

GFSNW_sfc_30mbdewp_042.txt.gz
Dewpoint
44 43 43 43 42 43 41 39 36 43 45 38 36 31 34 36 34 34 32 30 29 28 27 27 29 29 31 37 35 33 33 33 28 31 37 37 34 32 30 27 25 22 20 17
43 42 43 44 42 42 40 37 37 44 44 33 29 33 34 35 33 32 30 29 29 29 26 26 29 29 31 35 33 33 31 30 26 28 32 35 35 35 32 28 26 22 19 15
43 43 44 44 42 41 41 37 33 36 42 40 36 32 31 33 35 33 31 29 29 28 25 28 28 29 30 31 30 31 31 29 24 21 23 31 31 33 33 30 26 23 22 20
43 43 44 44 41 39 38 34 34 35 31 34 33 34 34 31 32 34 32 30 28 27 24 27 28 30 30 31 30 31 28 25 26 26 29 29 29 30 32 32 29 27 25 26
43 43 43 42 42 35 30 31 32 35 33 34 33 34 34 33 34 33 32 31 32 30 30 29 27 29 28 27 30 29 30 27 25 22 26 27 25 28 31 32 32 31 27 24
43 43 43 43 42 35 29 32 33 35 29 25 33 33 33 34 34 35 36 37 33 31 32 33 34 30 29 28 28 29 29 27 24 20 26 25 21 24 26 29 29 30 27 26
44 43 43 43 43 38 32 33 32 27 21 22 23 20 25 25 31 33 36 38 34 36 40 36 32 30 29 30 29 30 29 26 25 24 23 17 19 26 25 26 28 29 27 27
43 43 43 43 42 43 36 35 32 28 19 20 15 19 23 29 32 34 37 39 40 41 37 30 28 28 28 28 29 29 30 29 24 23 22 21 22 27 26 25 23 27 29 28
43 44 43 42 43 43 38 36 35 31 24 22 24 21 28 26 29 33 37 38 36 39 36 32 26 23 24 25 26 30 30 29 26 26 21 16 23 28 28 28 23 30 29 29
43 43 43 43 43 43 40 37 36 31 27 28 27 24 23 24 20 22 30 25 33 37 33 30 27 24 27 25 24 26 28 28 27 25 23 23 24 29 31 24 25 33 30 29
43 43 43 43 42 43 39 38 38 32 29 28 28 27 25 25 24 21 24 31 34 34 31 29 27 26 25 24 25 25 24 23 24 26 25 19 30 32 29 31 34 34 31 30
44 43 42 43 43 43 41 35 39 38 32 29 33 32 32 31 29 27 25 23 32 33 33 33 33 30 27 25 23 27 24 25 24 26 25 25 30 32 33 35 34 35 36 35
44 42 42 43 43 41 40 37 38 37 32 28 26 26 28 32 31 31 24 27 29 30 32 31 32 30 33 28 25 26 27 28 26 26 26 27 28 33 35 36 35 36 37 37
43 42 42 43 43 40 41 36 38 35 33 25 25 30 30 31 29 31 31 29 29 30 29 23 27 30 34 31 30 30 29 29 27 27 28 30 30 30 34 36 37 37 36 36
43 43 43 43 41 40 37 38 38 38 29 22 24 30 30 27 30 30 31 30 28 27 23 24 19 27 27 28 31 24 29 29 28 27 29 28 28 30 34 36 36 37 37 37
43 43 43 41 39 42 38 33 37 39 37 29 22 29 27 28 27 28 28 29 28 28 26 25 26 27 28 23 24 26 21 24 35 33 35 35 34 35 35 36 37 37 36 35
43 42 40 40 40 36 31 29 34 39 36 28 23 27 29 25 27 31 30 29 29 28 27 26 24 23 29 26 21 16 18 19 20 26 35 36 37 35 37 37 35 35 34 34
41 38 38 40 40 37 32 38 40 39 32 30 23 23 26 34 31 31 31 29 29 29 27 27 26 25 23 19 20 20 22 23 24 32 36 35 36 34 34 34 34 33 33 34
38 39 40 36 33 30 32 38 40 39 32 24 23 22 21 33 32 34 32 30 25 27 25 25 23 20 18 20 21 22 24 31 34 35 35 35 34 34 34 34 35 34 35 35
38 34 31 28 32 36 37 36 31 31 31 29 23 28 24 30 30 29 31 30 25 23 24 25 22 19 21 28 33 31 30 36 36 32 32 33 34 34 34 35 35 35 35 33
33 30 29 33 37 33 31 28 27 28 26 29 28 29 26 30 27 28 31 29 28 24 26 23 23 26 33 34 33 34 33 34 36 36 36 35 35 34 34 35 35 35 35 31
32 32 34 33 30 27 24 22 24 25 23 29 28 28 29 29 33 30 31 27 29 23 30 26 25 31 33 32 32 32 33 33 34 35 35 34 34 35 35 35 35 34 34 34
33 27 24 24 23 14 10 8 13 15 25 28 27 22 26 28 31 31 30 28 28 32 28 27 28 32 33 32 30 32 32 32 32 33 33 34 34 33 33 33 31 33 33 33
24 18 12 17 16 18 18 16 18 24 29 26 27 26 26 27 26 30 27 29 32 26 23 23 26 32 33 32 32 28 28 31 31 31 31 31 32 29 27 26 26 27 29 32
24 19 15 13 21 23 25 26 24 24 29 28 26 25 27 25 25 27 28 27 25 22 20 24 29 35 33 32 31 27 21 22 27 30 30 29 30 29 26 27 27 26 26 26
25 23 20 22 19 17 24 24 24 26 28 27 28 24 22 23 25 24 23 24 20 21 27 30 33 32 32 32 31 30 22 19 23 24 28 28 25 22 18 19 19 26 26 25
24 23 25 25 24 24 24 25 24 28 23 18 22 16 18 23 21 22 26 25 24 28 30 32 31 31 31 33 31 30 28 20 26 26 28 28 28 27 16 11 15 22 25 25

GFSNW_sfc_30mbdewp_045.txt.gz
Dewpoint
43 43 43 43 44 43 40 38 37 43 45 38 36 31 33 35 34 35 33 30 29 27 27 30 29 32 34 37 35 32 32 30 27 32 37 37 34 31 30 24 24 23 20 19
43 43 43 44 43 42 40 37 37 43 44 33 29 32 33 35 33 32 30 29 29 29 26 27 29 29 33 37 35 32 33 30 26 28 33 36 34 34 32 28 26 23 22 21
42 43 44 43 42 41 40 35 33 36 41 40 35 33 31 32 34 32 31 30 29 27 25 29 28 29 31 34 34 33 31 29 25 21 23 32 31 33 34 29 28 26 24 24
43 43 43 43 41 39 36 34 34 34 31 34 33 34 35 32 30 33 32 30 29 27 24 27 29 30 30 31 31 33 30 26 27 26 28 31 31 31 33 31 30 27 27 25
43 43 43 43 43 34 31 29 31 34 32 31 33 34 34 34 34 34 32 33 32 31 29 28 28 29 29 28 30 30 30 26 24 23 26 28 27 28 32 33 32 30 29 29
43 43 43 43 42 34 29 31 33 34 24 25 33 28 33 31 34 35 37 37 32 30 32 34 34 31 29 28 28 29 28 27 24 20 25 24 19 22 25 30 32 32 30 30
43 43 43 43 43 37 32 33 31 26 19 23 18 19 22 26 30 32 34 39 34 37 41 38 32 30 29 30 29 31 28 25 23 22 22 15 19 22 25 25 28 32 32 30
44 44 43 42 43 42 35 35 30 25 18 21 16 22 27 30 31 33 37 37 36 40 37 29 27 28 28 28 29 30 29 27 24 22 22 20 20 26 25 24 22 26 29 30
43 43 43 43 43 43 37 36 34 29 21 23 26 22 25 23 25 31 32 33 32 37 35 31 25 22 24 25 28 29 30 29 25 25 21 16 20 29 28 28 23 29 29 27
43 43 43 43 42 42 38 37 35 29 26 28 27 24 23 22 20 22 27 22 33 36 32 29 28 24 27 25 23 27 28 28 27 26 24 24 25 26 30 23 22 34 32 30
43 43 43 43 43 42 38 38 38 32 27 28 29 29 26 25 24 20 22 29 30 33 30 29 27 27 25 24 26 25 25 24 23 26 24 19 27 31 28 29 34 35 35 31
44 42 43 43 42 41 39 33 38 38 30 29 33 32 32 31 29 26 24 23 32 32 31 31 32 30 29 25 23 27 24 24 23 26 25 27 28 33 32 34 34 35 36 34
43 42 43 43 42 41 39 36 38 34 29 25 26 26 28 31 32 31 24 27 27 29 31 29 31 28 32 27 26 26 27 28 26 26 26 27 28 28 33 35 35 36 37 37
43 42 43 43 40 42 39 36 37 34 31 23 25 29 29 30 30 30 30 29 29 30 28 23 24 28 33 30 30 30 30 30 28 27 28 28 29 31 31 32 36 37 36 36
43 43 43 41 40 39 38 37 38 37 29 21 24 29 30 28 30 30 31 30 28 27 23 22 21 25 26 26 28 26 24 23 25 23 32 32 32 32 35 34 35 37 36 36
43 43 41 40 42 39 36 31 35 39 36 27 21 28 27 28 27 28 29 30 29 29 26 24 26 27 27 20 21 24 26 21 22 21 22 28 29 35 37 35 36 37 37 36
43 40 41 40 40 35 28 28 34 39 35 27 23 26 29 26 29 32 30 29 29 28 27 26 24 23 28 26 20 17 19 19 21 24 25 27 30 34 35 36 37 37 35 34
39 40 39 39 39 36 31 36 40 37 32 27 21 21 26 34 31 31 31 29 30 29 27 27 26 25 23 18 20 21 22 24 26 32 35 35 36 36 34 34 34 34 33 34
38 41 40 34 31 27 30 37 40 37 30 23 22 21 18 30 30 33 32 30 25 28 25 25 23 21 19 25 29 30 33 31 30 34 35 34 35 35 35 35 34 33 34 35
41 34 30 25 31 36 37 35 31 30 31 27 24 26 23 28 27 27 31 30 25 22 24 25 22 20 24 33 34 34 33 33 33 34 33 34 33 33 35 36 35 35 34 33
32 29 27 32 37 32 30 27 26 27 24 28 28 27 25 28 25 26 30 29 28 22 26 22 23 25 28 35 33 33 34 33 33 35 36 34 34 33 35 35 36 35 35 32
31 31 33 32 28 24 20 19 22 22 17 27 27 28 28 28 32 30 31 27 29 23 28 25 23 21 28 34 33 32 32 32 32 33 33 34 34 34 35 35 34 34 34 34
30 24 23 22 20 11 3 4 12 14 23 26 25 20 26 28 30 29 30 26 27 31 26 25 20 25 31 34 33 32 29 31 32 31 32 32 32 33 31 29 27 30 31 32
21 14 11 14 13 15 15 13 15 20 28 26 26 24 25 27 26 27 25 26 30 25 18 18 23 26 33 34 34 31 27 21 27 31 31 30 30 30 30 29 27 27 27 29
21 17 8 12 21 23 24 25 24 24 28 26 24 24 25 24 24 26 25 24 24 20 18 22 25 30 32 32 33 32 30 23 20 25 30 30 30 29 29 28 24 26 26 25
23 21 17 21 18 17 22 23 23 24 27 27 25 22 21 21 24 21 21 21 21 19 23 26 28 31 30 29 31 32 31 28 19 24 26 28 28 27 26 18 15 23 26 25
21 19 25 22 21 21 24 25 24 27 22 16 21 14 14 22 19 19 23 24 23 23 25 28 30 29 28 29 29 30 31 30 26 25 28 30 30 29 28 27 19 19 23 23

GFSNW_sfc_30mbdewp_048.txt.gz
Dewpoint
43 43 44 44 43 42 40 38 36 43 44 37 35 31 32 35 34 35 33 30 29 28 34 33 31 32 33 37 36 31 32 29 28 32 37 37 34 30 28 23 23 23 20 19
43 44 44 44 42 42 39 36 38 44 44 32 29 31 33 34 32 32 30 28 29 28 27 28 29 30 33 37 34 32 33 30 26 27 31 35 35 34 32 28 26 23 22 21
43 44 44 43 41 43 40 35 33 36 41 39 35 33 32 32 35 33 31 30 29 26 27 29 29 30 34 36 34 34 32 29 25 21 22 29 31 34 34 30 28 27 25 25
43 44 44 43 40 41 36 33 33 34 32 34 33 34 35 32 29 33 33 30 30 27 26 27 29 30 31 34 36 36 31 27 27 27 26 31 31 30 33 32 31 28 27 27
44 44 43 43 39 36 31 29 31 34 29 29 32 32 33 33 34 33 33 34 32 30 28 29 28 29 29 28 30 34 30 26 24 23 26 29 28 28 31 32 32 32 31 30
43 43 43 43 39 33 28 31 32 32 23 26 32 24 29 27 32 35 38 37 31 31 34 36 35 32 29 29 28 29 28 26 24 20 24 24 21 24 26 30 32 32 30 31
44 43 43 43 41 35 32 33 29 25 21 19 18 22 23 28 30 33 36 38 33 38 40 38 33 30 29 29 30 30 27 25 22 20 22 14 17 22 24 25 26 32 33 33
43 43 43 43 43 39 34 34 30 22 19 21 18 24 25 29 30 33 37 34 31 33 36 29 27 27 28 28 29 30 28 26 23 21 21 19 19 26 25 24 23 25 28 30
43 43 42 42 42 41 36 35 33 28 20 23 26 22 24 22 25 31 30 30 31 36 34 30 24 22 24 25 28 30 29 28 24 25 21 16 17 28 28 27 22 28 31 30
43 43 43 43 42 41 37 37 33 28 26 27 27 22 22 22 20 23 25 22 31 35 31 29 27 25 26 25 23 26 27 28 26 26 23 23 25 28 29 23 22 32 34 33
43 43 43 43 42 41 37 36 38 30 27 28 30 29 26 24 23 20 22 29 29 31 29 29 27 26 25 24 26 26 25 24 24 26 22 18 26 31 27 27 33 34 35 35
43 43 43 43 41 41 36 33 37 35 28 29 33 32 32 31 28 26 24 25 31 31 30 30 29 28 30 25 22 27 24 25 23 25 23 26 27 31 32 33 33 34 35 36
43 43 43 42 41 40 37 36 37 31 26 26 26 27 29 30 31 31 23 26 28 29 31 30 30 27 30 26 25 26 27 28 26 26 26 28 30 30 32 32 33 35 36 37
42 43 43 41 41 40 37 35 36 32 28 23 25 29 29 30 30 31 30 29 29 29 27 22 25 26 31 29 29 29 30 30 28 26 26 28 30 30 29 27 34 36 37 36
42 43 42 41 40 38 38 37 37 35 26 23 24 28 29 28 30 31 31 30 28 27 23 22 22 24 24 26 26 23 24 23 21 22 26 23 23 25 23 30 35 36 36 36
43 43 40 40 39 38 34 30 33 38 34 23 22 27 27 28 27 28 29 30 29 29 26 24 26 27 25 17 17 22 25 20 20 23 21 23 24 26 28 35 34 35 37 37
43 40 41 42 40 34 28 26 32 38 33 25 24 25 28 30 31 32 29 29 29 28 27 26 24 23 28 25 19 19 23 27 32 34 30 30 30 32 35 36 35 35 37 35
40 40 40 38 38 35 32 37 39 35 29 25 17 17 26 33 30 31 32 30 29 28 27 27 26 25 23 18 23 29 31 33 32 32 33 32 34 35 35 35 35 34 34 33
40 40 39 33 30 27 30 38 38 34 27 22 21 18 13 28 28 31 32 31 24 28 25 25 24 22 23 28 30 31 32 31 31 32 33 34 33 33 35 35 36 35 35 34
41 35 27 24 32 36 37 32 29 29 30 26 23 26 20 26 25 25 29 30 26 22 25 26 24 24 26 28 31 34 32 32 32 29 29 32 32 32 33 33 36 36 35 33
32 28 27 32 36 31 28 25 23 24 21 27 27 25 23 28 24 25 30 28 28 22 25 24 24 23 24 32 33 34 33 31 31 32 32 33 33 32 31 32 36 36 35 34
31 31 33 30 26 22 16 17 20 20 14 27 25 26 26 27 30 29 30 26 28 22 28 25 23 21 25 32 33 33 33 30 28 30 31 31 32 32 31 32 31 32 33 34
28 24 22 20 18 7 -2 3 11 13 22 26 24 18 26 27 29 28 29 27 25 30 25 24 19 24 24 31 33 33 33 29 24 27 31 31 31 31 30 30 29 29 29 31
20 13 11 11 9 10 10 9 13 19 27 24 25 24 24 26 25 26 22 25 28 25 21 17 22 21 25 31 30 31 31 31 28 21 28 30 30 29 30 30 29 26 27 27
18 14 5 12 20 22 22 23 24 25 27 26 24 23 24 23 23 25 22 20 20 22 16 19 22 26 28 29 29 28 29 30 30 24 23 28 29 29 28 28 26 24 28 27
21 19 15 21 19 20 22 23 21 23 26 26 23 21 20 20 21 20 19 19 18 19 21 23 25 26 27 26 26 27 28 29 30 28 23 25 27 29 28 29 28 22 25 26
18 14 23 19 18 16 21 23 23 26 23 18 20 13 11 20 19 18 21 21 23 21 18 21 23 23 24 25 25 26 27 27 28 29 27 28 30 30 28 27 28 27 25 25

GFSNW_sfc_30mbdewp_051.txt.gz
Dewpoint
43 44 44 44 43 44 40 38 35 43 45 37 35 31 31 35 34 35 33 31 32 34 32 26 30 30 33 37 35 31 31 31 29 32 37 36 33 29 27 23 23 22 20 19
44 44 44 44 42 43 38 36 39 44 44 30 30 31 32 34 31 31 30 28 29 31 34 30 30 32 35 37 34 32 32 28 26 29 32 35 35 33 30 27 25 22 21 20
44 44 44 43 40 44 38 35 33 38 41 39 35 33 32 32 35 33 31 30 28 26 28 30 29 31 36 36 35 34 32 29 24 21 22 29 30 34 33 29 26 25 24 24
44 44 44 43 39 45 35 33 32 33 33 34 33 34 34 32 30 32 35 30 31 27 27 28 29 30 33 35 38 34 31 27 27 26 26 30 29 29 32 31 31 28 26 26
44 44 44 42 38 38 31 30 32 33 28 28 32 32 32 32 34 34 33 32 31 31 29 29 28 29 31 34 34 37 31 29 25 24 26 29 28 29 30 32 33 32 31 30
44 43 44 41 39 33 28 31 33 29 23 26 31 25 26 28 33 35 38 37 31 33 36 38 36 33 30 30 31 32 32 27 24 20 24 23 20 24 27 29 32 32 30 30
43 43 43 41 38 34 31 31 28 25 20 20 21 24 25 30 32 33 35 36 33 37 37 39 32 30 30 29 30 30 27 24 22 20 20 10 16 22 24 25 26 30 32 32
43 43 43 42 39 37 33 33 26 21 20 19 22 24 26 29 29 34 36 31 29 32 35 29 27 27 27 28 29 29 27 25 22 21 20 18 21 26 25 24 24 26 27 29
43 43 43 42 41 38 35 34 31 24 22 24 26 23 23 26 27 32 28 27 32 36 33 28 24 23 24 26 28 31 28 27 24 24 21 16 17 27 28 26 23 28 30 32
43 43 43 42 41 39 36 36 32 28 25 27 26 22 22 22 21 25 24 23 31 34 30 29 27 24 25 24 24 26 27 28 27 26 24 23 25 28 29 22 24 30 33 34
43 43 43 42 41 40 36 36 36 28 27 28 30 29 26 23 22 25 22 28 29 30 30 28 27 26 25 24 25 26 25 24 25 26 23 18 27 29 28 30 32 32 34 34
43 43 43 41 41 40 35 33 37 33 28 28 32 31 31 31 29 26 24 27 30 30 31 29 28 28 28 26 21 26 24 25 24 25 22 26 29 29 31 29 28 29 33 35
43 43 43 41 40 39 37 35 35 29 26 27 27 27 29 30 30 31 22 26 27 28 30 30 29 26 29 25 25 27 27 30 27 27 27 24 23 30 25 24 23 27 35 35
43 43 42 41 39 38 36 33 34 29 27 23 25 28 29 30 31 31 30 29 29 29 27 23 26 25 29 27 28 27 29 26 23 22 26 22 25 24 24 26 26 33 34 33
43 43 41 39 38 38 37 36 36 33 26 24 25 28 28 29 31 31 31 29 27 26 22 21 22 24 23 24 24 21 24 19 21 20 23 22 23 25 27 26 30 34 35 34
43 42 41 39 39 38 31 27 32 37 31 25 23 27 28 26 28 29 29 29 29 28 25 25 26 27 26 19 15 22 23 24 23 27 30 32 32 29 28 31 34 35 36 36
43 41 41 39 39 36 29 27 33 37 31 25 24 24 27 33 32 31 29 30 29 27 27 26 25 23 26 25 18 23 27 31 33 32 32 30 31 31 33 34 35 35 35 35
41 41 41 40 38 36 32 37 37 32 26 22 13 16 24 29 28 30 32 29 28 28 26 27 26 27 26 20 21 28 32 34 33 31 32 32 33 34 33 35 36 35 34 35
41 40 38 33 30 28 32 38 37 32 26 17 17 12 11 27 26 30 32 29 24 28 24 24 26 25 22 24 27 30 33 32 31 31 31 30 30 32 34 33 34 33 35 35
40 35 28 27 32 36 37 30 27 27 27 26 19 25 17 25 25 25 28 29 26 21 24 28 25 24 25 26 30 32 33 33 32 28 27 29 29 30 31 32 32 35 36 35
33 28 28 32 36 31 26 21 19 21 17 26 25 24 22 27 23 24 28 26 27 21 23 24 23 23 24 29 31 33 33 33 31 30 28 29 31 30 30 30 32 31 32 32
32 32 33 29 24 18 12 14 18 17 12 26 24 26 26 26 29 26 28 24 26 20 26 23 22 23 24 25 30 31 32 32 31 29 25 27 30 31 30 30 30 30 30 31
28 25 22 19 17 3 -7 -1 8 13 23 26 24 18 25 27 28 27 26 23 23 28 24 21 21 22 22 24 30 30 30 30 30 29 27 26 28 31 30 29 30 29 28 29
19 15 10 7 4 3 5 5 11 20 25 24 24 23 24 26 24 25 20 22 29 24 20 20 21 21 23 26 29 28 25 26 27 28 28 26 25 28 29 29 28 26 24 27
16 14 3 10 19 21 20 22 24 26 27 25 23 23 24 22 21 23 21 18 18 21 19 18 20 23 25 25 25 24 24 24 26 26 27 26 25 26 27 29 29 28 24 25
20 18 15 21 19 20 23 23 21 25 26 24 21 20 19 19 19 18 18 17 16 18 19 20 21 20 20 20 22 23 24 25 25 25 26 27 26 26 28 30 29 29 27 26
17 13 22 19 17 19 21 22 23 25 24 17 19 11 9 20 18 18 20 18 20 22 19 19 20 20 21 22 23 23 23 23 22 23 24 25 27 29 30 28 28 29 28 27

GFSNW_sfc_30mbdewp_054.txt.gz
Dewpoint
44 44 45 45 44 44 44 41 36 44 45 38 35 33 32 35 34 36 35 36 33 30 26 22 28 28 32 36 35 30 31 31 29 32 37 34 31 27 27 23 23 23 20 14
44 44 45 45 43 43 40 39 39 45 44 32 31 32 33 35 32 32 30 30 36 36 33 28 31 32 35 37 34 31 31 30 26 29 32 34 32 31 28 28 27 25 20 18
44 44 44 44 42 43 40 38 34 39 41 40 34 33 33 32 35 34 31 29 29 31 29 30 31 33 36 36 35 35 33 29 27 22 26 30 30 31 31 29 26 23 23 22
44 44 44 43 39 45 37 35 34 36 33 35 34 34 35 32 31 33 34 31 31 27 27 29 30 32 34 36 38 34 32 29 28 25 28 31 30 30 32 31 29 26 25 23
44 44 44 41 40 42 33 31 33 34 30 30 34 33 32 32 34 35 33 31 32 30 28 29 29 31 32 34 36 35 32 29 27 25 26 29 28 29 30 31 30 30 30 29
44 44 43 40 39 34 32 33 35 32 25 28 32 29 28 30 33 35 37 36 32 34 36 38 36 33 32 32 34 34 34 29 26 23 24 24 21 22 24 27 30 30 28 27
44 44 42 39 38 35 31 33 33 27 23 26 25 25 28 31 33 34 34 35 33 36 35 39 31 30 30 30 30 31 29 27 26 23 22 13 18 21 24 24 25 25 26 28
43 43 43 40 39 37 34 33 27 25 21 22 25 26 28 30 33 35 34 30 30 34 34 30 28 28 28 29 30 28 28 26 25 22 19 19 24 26 25 24 26 28 29 30
43 43 43 42 39 38 35 34 31 27 23 23 26 23 24 32 30 33 30 27 33 37 33 29 25 23 25 26 28 30 28 27 24 23 21 16 19 24 28 27 23 30 31 32
43 43 43 42 41 39 37 36 33 29 25 27 25 22 22 23 24 28 25 25 31 34 32 29 26 25 26 24 23 26 27 28 26 24 22 20 26 28 29 23 26 30 29 29
43 43 42 41 39 40 37 36 36 29 27 29 30 30 24 23 22 29 24 29 30 32 31 29 28 26 26 25 25 26 25 24 23 25 21 18 24 30 27 28 24 22 22 25
43 43 42 41 39 39 36 33 36 33 29 28 32 31 32 30 28 24 28 30 31 31 31 29 29 28 28 26 21 26 26 26 25 25 24 27 23 29 26 26 26 25 25 28
43 43 41 41 40 39 37 34 33 32 28 27 27 27 29 30 31 31 22 27 29 29 30 31 29 27 29 25 26 28 28 27 26 23 28 25 25 30 26 26 28 28 30 33
43 42 40 39 39 38 36 33 34 33 30 26 26 29 29 30 32 31 31 29 30 29 28 25 28 26 29 27 27 25 25 21 20 19 21 25 26 27 28 30 30 29 33 34
43 42 40 39 39 38 37 37 37 34 30 26 26 28 29 29 31 31 30 29 28 26 25 25 23 25 23 23 23 21 21 25 25 23 25 27 27 30 32 31 30 31 32 33
43 41 39 39 39 36 32 27 35 36 33 29 25 28 29 30 30 30 29 30 29 28 25 25 26 27 27 19 15 22 24 26 29 28 29 31 32 31 31 31 33 33 34 34
42 41 39 39 39 38 31 29 34 36 32 28 26 26 27 33 32 32 30 31 30 28 27 26 24 24 27 24 19 24 28 32 33 33 32 30 32 31 33 33 35 35 34 33
41 40 40 39 38 36 33 36 36 32 26 23 19 20 25 29 29 28 33 29 28 29 27 27 26 27 26 23 25 25 29 31 33 31 31 30 30 31 32 32 33 33 33 35
41 40 38 34 32 31 34 39 36 33 28 15 18 15 15 27 27 31 32 29 25 28 25 24 26 25 24 24 25 27 29 30 31 30 30 28 27 29 31 31 32 31 32 35
40 34 29 29 33 37 37 30 28 27 28 26 20 25 20 26 26 27 28 29 26 24 24 27 24 24 26 26 28 31 32 31 31 29 28 26 26 26 28 30 30 31 32 32
32 28 30 33 37 30 26 21 18 20 17 27 25 25 23 28 24 25 28 26 26 22 25 25 24 23 25 28 30 31 30 30 31 31 31 30 26 25 28 29 30 30 30 30
32 33 33 29 25 19 11 14 19 16 15 27 25 26 26 27 30 26 28 25 26 21 27 24 22 25 24 24 25 29 30 29 28 28 28 28 28 26 27 28 29 30 30 29
30 26 22 18 16 -0 -9 -7 8 15 24 26 25 22 26 27 29 27 25 24 23 28 24 21 23 22 21 22 25 27 30 28 26 25 26 27 28 28 28 28 29 30 28 27
20 17 7 5 0 2 4 7 13 22 26 25 24 24 25 26 25 25 21 23 28 22 21 22 22 22 21 24 25 26 23 23 24 25 26 26 27 26 27 29 29 29 28 26
15 15 3 9 20 21 21 23 25 26 26 25 24 24 24 23 21 22 20 18 18 20 22 22 22 20 22 21 21 21 22 22 22 24 24 25 26 27 26 27 29 30 29 27
20 19 16 22 18 21 24 23 23 27 26 24 23 21 18 19 20 18 17 17 16 19 22 22 20 19 19 20 21 22 22 22 22 22 22 21 22 23 26 27 28 30 30 29
16 15 24 21 20 19 22 22 23 27 24 17 18 9 9 20 19 17 19 19 21 25 23 22 21 20 20 22 22 22 22 22 22 21 21 21 21 22 26 25 25 27 29 30

GFSNW_sfc_30mbdewp_057.txt.gz
Dewpoint
46 45 45 45 44 45 44 42 34 44 44 37 35 34 34 35 34 37 37 36 31 23 21 21 25 28 31 34 33 31 31 30 27 30 35 34 31 26 26 21 23 20 19 16
45 45 45 45 43 46 42 38 37 45 43 34 31 33 33 34 32 32 32 34 34 33 27 25 29 31 34 36 33 32 31 29 27 28 30 31 30 29 27 25 28 25 19 15
45 45 45 45 43 43 42 38 34 40 41 39 33 31 31 31 35 32 31 29 33 31 29 31 30 32 35 36 34 34 32 27 27 23 26 26 27 27 28 27 26 22 21 19
45 45 44 44 42 43 41 37 33 35 33 34 34 35 33 29 30 33 32 30 29 28 27 29 30 32 34 36 36 33 32 30 29 26 29 31 30 26 27 29 28 24 22 22
45 44 44 42 41 45 38 32 32 35 33 34 34 34 32 30 33 33 30 29 30 28 27 29 29 32 33 32 34 33 33 29 29 27 26 28 28 28 28 29 29 29 27 27
44 44 43 41 45 41 34 34 36 33 30 32 31 30 31 32 34 35 35 32 31 32 35 35 34 32 33 32 33 33 32 30 28 25 24 23 21 22 24 27 27 27 24 24
44 44 41 41 45 39 31 34 35 29 28 30 29 29 32 33 34 33 34 34 32 35 36 35 30 30 30 30 31 33 32 31 28 25 23 17 19 23 23 23 23 25 25 28
44 43 40 40 40 39 31 34 31 28 27 28 28 30 32 34 35 35 33 31 32 36 35 29 28 27 27 28 29 28 28 27 25 23 18 17 24 25 24 24 28 30 30 30
44 43 41 40 40 38 34 33 32 28 26 26 27 29 32 32 32 32 31 29 34 37 34 29 25 24 25 25 28 29 28 27 23 21 18 14 22 25 28 28 23 29 28 27
44 43 42 40 40 38 35 34 35 29 26 27 25 28 29 31 31 30 28 28 33 35 31 28 24 24 25 24 27 26 26 26 25 24 21 20 25 27 29 24 24 25 23 23
43 43 42 41 39 38 36 35 35 30 26 29 29 28 25 25 25 29 27 30 31 32 31 30 28 25 25 24 26 25 25 24 23 22 22 18 23 29 26 27 27 27 27 26
43 43 40 40 39 38 35 32 33 32 28 29 31 30 30 30 29 26 30 31 31 32 31 29 29 27 27 24 21 27 24 25 24 24 25 26 24 25 27 27 26 28 28 28
43 42 42 39 39 38 37 34 33 29 27 27 26 27 29 30 30 31 27 29 31 30 32 31 29 27 29 23 23 26 28 26 27 24 27 27 23 26 27 28 30 30 30 30
42 42 41 40 39 37 35 32 35 35 28 25 27 29 28 30 31 31 30 29 30 29 29 28 30 27 29 26 27 25 24 21 20 18 18 24 25 27 29 31 31 31 30 31
41 41 41 39 38 38 37 36 36 34 33 24 26 28 29 29 30 29 29 28 27 26 26 26 24 25 24 22 21 17 19 21 20 19 27 27 26 29 31 30 30 31 32 32
42 40 40 39 38 37 33 30 36 35 36 30 25 30 31 30 29 29 28 29 28 27 26 25 26 27 27 20 15 21 23 26 28 28 32 32 31 31 31 31 32 33 34 34
40 39 39 39 39 38 33 33 35 35 36 29 27 27 29 33 33 32 30 30 30 28 28 26 24 25 28 24 19 19 25 29 30 32 32 29 29 29 29 30 31 32 33 34
40 39 39 38 38 37 32 35 36 35 29 29 26 25 26 30 29 28 32 28 29 29 28 28 26 27 27 25 25 25 26 28 28 30 29 29 29 27 26 29 31 31 30 31
40 37 35 36 34 32 34 39 36 36 33 21 26 24 21 28 29 31 30 29 26 28 26 25 26 25 25 25 22 22 26 27 27 28 29 28 26 26 26 26 28 28 30 31
36 32 31 31 33 37 38 33 31 31 30 29 24 27 23 27 27 27 27 29 26 25 25 27 24 24 26 25 24 25 26 26 27 27 27 28 28 27 26 24 26 27 28 29
32 31 31 35 37 33 28 23 24 22 22 26 26 27 23 28 26 25 27 25 25 24 26 25 25 22 22 24 24 26 25 25 25 25 25 26 25 25 26 26 25 27 28 29
34 35 35 32 28 24 14 17 22 20 21 27 25 25 26 28 30 25 28 24 25 22 27 25 22 26 23 20 23 23 24 25 23 22 21 22 23 24 25 26 27 28 29 29
33 27 24 23 18 7 2 -0 13 19 26 26 25 24 26 28 28 26 25 24 22 28 24 21 24 20 18 19 20 20 24 27 26 24 23 24 25 26 26 25 26 26 28 28
24 19 6 14 5 9 13 20 23 26 28 26 26 25 25 26 25 25 22 22 26 21 18 20 20 20 18 18 19 19 18 19 22 24 25 26 27 27 27 27 27 26 26 27
18 22 6 14 22 24 25 28 27 27 27 26 26 25 24 24 23 21 21 19 17 19 19 25 23 20 19 19 19 19 19 19 20 20 22 24 24 24 23 24 23 25 25 27
23 23 17 22 22 23 26 27 26 27 26 26 26 22 19 21 21 19 19 17 16 20 27 25 19 19 20 21 20 21 21 21 21 20 20 20 19 20 22 23 23 24 26 26
22 21 24 26 23 24 26 24 23 27 26 23 22 11 15 21 20 18 18 19 22 26 27 26 24 25 24 22 21 22 22 22 22 22 22 22 22 23 23 23 23 23 24 26

GFSNW_sfc_30mbdewp_060.txt.gz
Dewpoint
50 49 46 46 46 44 46 42 37 44 45 38 37 32 33 35 35 37 36 36 32 25 22 23 26 31 32 34 34 31 33 30 30 32 37 35 33 29 26 24 22 22 20 17
50 48 46 46 45 46 43 39 38 44 43 33 31 34 33 33 33 34 36 33 33 33 24 25 28 31 34 35 35 33 31 30 26 27 30 32 31 30 29 28 27 25 20 18
49 47 46 46 45 47 46 38 33 38 41 39 36 31 30 31 34 32 31 33 34 31 27 31 29 32 34 35 35 34 33 29 28 24 26 28 27 28 28 28 26 24 24 22
49 47 46 46 44 47 45 39 34 35 32 34 34 35 30 29 30 32 31 29 29 28 28 28 27 31 33 36 34 34 33 29 27 27 29 31 30 27 27 27 28 25 24 22
48 47 46 46 44 45 42 35 34 36 33 33 33 33 31 29 33 34 29 29 29 28 29 31 28 31 31 31 34 32 33 29 29 27 26 28 27 28 28 28 29 28 28 27
47 47 46 45 43 44 39 36 36 35 33 33 32 32 31 32 34 35 35 32 32 33 35 33 33 32 33 33 32 31 32 29 28 24 23 23 21 23 26 27 28 27 27 26
48 46 45 43 45 45 35 34 35 33 29 31 30 31 32 34 34 33 33 33 33 35 35 35 31 31 31 31 33 33 32 31 29 25 23 16 20 24 23 23 25 27 27 30
47 46 43 42 46 46 35 37 36 32 29 30 29 32 33 35 35 33 32 32 33 36 35 30 28 28 28 28 29 28 30 31 27 25 21 20 24 25 25 26 28 29 29 28
47 45 42 42 45 46 36 35 34 33 29 27 30 32 33 34 32 32 30 31 36 38 34 30 27 24 24 25 28 29 28 27 25 21 18 15 24 27 29 28 26 26 24 24
46 43 41 41 42 42 36 34 36 32 27 28 28 30 32 33 32 31 29 30 34 36 33 29 25 25 26 25 25 26 26 26 24 24 22 23 24 27 29 24 24 27 27 27
46 43 41 41 40 39 37 35 36 32 28 29 29 29 27 28 27 29 28 30 31 33 31 30 28 26 25 25 27 25 26 23 24 25 25 20 25 28 26 26 27 27 28 29
46 43 41 41 40 39 36 32 33 34 31 30 29 29 30 30 29 29 32 31 32 33 31 30 29 27 27 25 23 27 24 27 26 25 26 26 25 24 27 29 30 30 30 30
44 43 42 40 40 39 37 34 33 30 28 28 28 27 29 31 31 31 29 30 31 31 33 32 30 27 29 24 25 26 28 25 26 23 27 25 24 28 30 31 31 31 31 31
43 41 40 39 38 38 36 35 37 36 29 26 27 29 28 30 31 31 30 30 30 30 31 30 30 27 30 27 27 26 24 21 21 20 26 26 27 29 31 30 30 30 32 32
43 42 40 39 38 38 37 37 36 36 33 26 27 29 30 30 30 29 28 28 28 27 28 27 26 25 25 22 21 19 20 21 20 24 30 29 29 31 30 29 29 30 31 32
43 42 40 39 39 38 37 30 36 35 37 29 26 31 30 30 30 29 28 29 28 29 28 26 26 27 29 20 17 21 26 27 28 28 31 32 32 30 30 28 29 31 32 32
42 41 40 39 39 38 35 32 34 35 38 29 27 27 30 33 33 32 31 31 30 30 28 27 25 26 28 26 21 22 24 29 30 31 31 28 29 28 29 27 28 29 30 30
40 39 40 38 37 36 31 35 35 37 31 33 26 24 27 30 28 28 31 29 30 30 29 28 26 27 27 24 25 25 26 27 28 29 29 28 28 27 26 27 26 26 27 28
41 40 39 36 34 33 30 38 37 38 31 20 29 23 20 29 28 29 30 30 27 29 27 26 27 26 25 27 26 23 27 26 27 28 28 27 27 28 28 27 25 24 25 27
39 33 33 29 34 38 39 34 27 27 30 30 23 28 23 28 28 26 26 28 25 24 26 27 25 25 27 24 25 26 26 26 25 24 23 24 25 26 25 25 26 26 26 26
33 32 31 36 38 33 28 21 19 24 21 27 27 27 24 29 26 25 27 24 25 22 26 24 23 23 25 24 25 25 25 25 24 23 22 22 22 22 23 24 25 26 27 27
34 34 35 33 28 24 14 18 20 22 18 27 25 26 27 29 29 25 26 23 24 21 27 24 21 26 21 21 21 23 25 25 24 24 23 22 22 23 25 25 26 26 27 27
35 27 23 22 18 8 2 1 13 15 26 27 24 24 27 29 27 25 24 23 23 28 24 20 24 21 19 18 19 19 21 22 23 22 23 24 24 26 26 25 25 25 25 25
22 13 5 9 2 14 21 23 25 29 28 28 27 26 26 26 25 24 22 24 24 19 19 20 22 19 17 18 19 19 18 19 19 21 22 23 24 25 26 25 25 26 25 24
17 21 2 15 24 26 28 28 27 28 29 27 25 25 25 24 22 23 22 19 18 19 19 25 23 20 19 19 19 20 20 20 20 20 20 20 21 22 21 22 23 23 23 23
24 22 18 24 23 24 27 26 26 28 28 27 26 21 20 20 22 19 18 18 14 19 26 26 19 19 23 23 23 21 21 22 22 22 21 21 21 20 20 22 22 22 23 23
24 21 24 26 25 26 27 25 25 28 27 19 21 9 16 22 19 17 19 18 21 25 25 26 24 24 23 23 21 21 22 22 22 22 22 22 23 23 22 21 21 23 24 24

GFSNW_sfc_30mbdewp_063.txt.gz
Dewpoint
53 51 49 48 47 46 47 42 35 44 45 37 37 31 34 33 34 37 35 35 32 29 23 26 30 32 32 34 34 31 34 31 28 31 37 36 34 30 27 22 20 23 19 15
52 50 48 48 47 47 44 39 39 44 44 31 30 33 34 35 34 34 34 32 33 33 29 26 31 32 35 35 35 33 32 29 27 28 30 33 31 31 29 29 27 24 15 17
52 50 48 48 47 47 44 36 33 39 41 39 36 32 32 32 34 34 33 34 34 29 29 29 29 32 34 35 34 35 33 30 25 22 26 29 29 29 30 28 24 23 24 20
51 49 48 49 47 47 45 38 33 34 32 34 35 34 32 31 31 33 32 30 33 29 27 27 30 31 34 35 34 33 33 28 27 28 30 30 29 27 29 27 27 24 23 24
51 48 48 49 47 48 43 37 35 35 33 33 33 33 30 31 34 33 30 30 31 31 31 32 28 29 29 30 34 33 33 29 27 26 27 27 27 28 28 27 28 28 27 26
51 48 48 48 47 47 40 38 36 35 34 33 32 32 31 33 35 34 34 33 34 33 33 32 32 32 32 33 33 32 31 28 27 25 23 23 21 24 25 28 28 29 27 29
50 48 47 48 47 46 38 35 36 32 32 32 32 32 34 34 34 33 33 34 32 35 36 34 31 31 32 32 32 33 31 29 28 23 21 16 20 24 24 28 29 29 29 28
49 47 47 47 46 46 36 37 36 32 30 32 31 33 35 34 33 32 31 32 34 36 35 29 28 28 28 29 29 28 32 30 26 23 21 21 23 26 25 26 28 27 27 25
49 48 47 46 45 45 38 35 35 33 29 27 27 34 34 33 32 31 29 32 36 38 34 30 25 24 24 26 28 29 28 27 25 23 18 16 23 27 29 27 26 25 26 26
49 47 46 44 45 46 36 34 37 30 27 28 29 32 33 33 32 30 30 31 34 36 32 28 25 24 26 25 25 25 25 25 23 23 22 23 24 25 30 22 22 28 29 29
48 47 46 43 46 46 34 34 36 30 29 29 30 29 29 29 30 29 28 30 32 33 29 29 28 25 25 25 28 26 25 23 24 25 25 22 24 27 26 26 29 30 30 30
47 46 43 42 46 40 35 31 33 33 29 28 30 30 31 30 30 30 32 31 32 33 30 30 29 27 27 25 23 27 25 26 25 25 25 25 26 29 31 31 30 30 30 31
46 45 42 42 41 38 35 32 32 29 28 27 27 27 29 31 31 31 30 30 31 31 33 31 30 27 29 24 24 26 28 25 26 25 25 25 29 30 30 30 30 30 31 31
45 44 43 41 40 39 36 32 37 30 28 24 27 29 28 30 31 30 30 31 31 31 31 30 29 27 29 26 27 26 27 23 22 22 27 27 30 30 30 30 30 30 30 31
45 45 43 41 40 39 36 36 36 36 26 25 27 29 30 30 30 29 30 29 29 29 27 26 25 26 24 22 21 21 22 22 20 18 28 27 29 31 30 28 28 30 30 31
45 43 41 41 40 38 33 24 32 36 32 28 25 31 31 32 31 30 30 29 29 29 27 26 26 27 27 17 18 21 27 28 28 28 31 32 32 30 30 28 28 29 30 29
44 42 42 41 40 37 33 26 31 36 35 27 26 26 30 32 33 32 31 31 30 29 28 26 25 26 28 25 20 22 26 29 31 31 29 28 29 27 28 26 27 27 28 29
42 42 41 39 37 35 28 32 36 37 32 28 21 24 26 29 28 28 31 28 30 28 28 27 25 26 26 22 25 26 28 29 29 29 28 28 28 27 27 28 27 25 25 25
42 41 40 35 33 27 27 36 38 37 22 23 23 19 19 28 28 29 29 30 26 28 27 26 27 26 23 23 26 26 27 26 27 27 27 26 26 25 26 26 25 24 25 25
42 38 32 26 33 38 38 32 21 27 28 26 25 24 24 27 27 25 26 27 26 22 26 27 24 24 27 25 26 27 26 25 24 19 16 21 19 21 22 22 24 24 25 25
33 30 30 35 38 32 27 18 10 23 18 25 27 24 25 29 24 24 27 24 24 21 25 24 22 23 24 25 25 25 24 24 24 23 22 22 21 20 21 22 24 24 24 22
32 32 35 33 27 23 9 16 19 19 12 26 23 26 27 29 29 25 25 22 23 20 27 23 20 24 22 22 22 22 23 22 22 23 22 22 22 22 23 24 24 24 24 24
34 25 22 20 16 2 -9 -4 11 18 26 26 26 24 26 28 26 24 23 22 22 27 23 19 22 24 19 19 19 19 20 19 21 21 21 21 22 23 24 24 25 25 24 24
17 11 6 5 -1 7 16 9 14 26 25 25 26 26 25 27 24 23 21 25 24 19 18 19 21 20 18 18 19 19 17 19 20 20 20 21 21 21 22 23 24 23 22 23
18 14 -3 14 24 27 27 27 27 28 28 25 24 24 24 23 22 23 21 20 17 17 16 22 22 20 19 19 19 19 20 20 20 21 20 20 20 20 20 21 21 21 22 22
22 20 18 24 24 25 25 25 26 27 27 26 22 20 16 19 20 17 16 13 8 13 23 26 22 18 20 23 22 22 21 21 21 21 21 21 21 21 21 22 23 22 22 22
21 21 26 26 24 24 24 25 25 28 25 12 16 5 14 21 16 15 19 13 13 24 27 24 21 21 22 21 20 18 18 19 20 20 20 21 22 22 21 20 20 22 22 22

GFSNW_sfc_30mbdewp_066.txt.gz
Dewpoint
46 49 51 48 47 48 47 42 34 44 45 36 37 31 34 34 32 35 34 34 32 27 24 28 32 31 32 34 34 31 33 31 29 31 34 36 34 29 27 19 19 22 17 17
46 48 50 48 48 48 45 38 39 44 44 30 31 33 34 34 34 35 34 31 32 33 29 29 32 33 35 35 34 32 31 28 24 25 28 32 31 31 29 28 27 22 14 18
46 46 51 49 49 48 43 37 33 39 41 38 34 32 33 33 35 34 35 33 33 31 29 29 30 33 35 35 33 35 33 29 24 21 24 30 29 30 30 27 24 24 24 20
44 50 50 49 49 49 42 35 32 34 31 34 35 33 33 32 31 33 32 31 33 29 26 27 30 31 35 35 34 33 32 26 27 28 29 30 28 29 29 27 26 23 22 23
45 51 49 49 48 49 44 36 33 34 33 34 35 34 32 31 33 31 30 29 30 30 28 29 28 30 31 31 33 32 32 28 26 25 26 26 27 28 28 29 28 27 27 27
45 46 49 48 48 49 42 39 37 34 33 33 33 32 32 33 34 34 33 32 33 31 31 32 31 32 32 33 32 32 30 28 25 24 23 22 21 23 26 28 29 28 27 29
44 49 48 48 48 46 39 36 36 33 31 32 31 33 34 34 33 32 33 34 32 35 36 33 31 31 31 31 31 33 30 28 26 22 19 17 20 25 27 28 28 28 27 26
47 49 48 47 48 44 37 37 35 32 31 32 32 34 34 33 32 31 31 32 34 36 33 29 28 28 28 29 28 29 32 29 25 21 18 20 22 26 26 26 25 25 25 26
46 48 48 47 48 49 39 34 36 33 31 29 28 34 33 31 31 30 30 34 37 38 32 29 24 23 25 26 27 29 28 28 23 23 19 17 22 26 28 28 24 27 27 27
47 47 48 47 48 47 36 34 37 30 27 28 29 33 32 33 31 30 31 33 33 36 31 27 26 25 26 24 24 25 25 25 23 23 21 22 25 25 28 20 20 28 29 29
48 48 47 46 47 44 32 33 36 30 28 28 29 29 30 29 31 29 30 31 32 33 29 28 27 24 25 26 26 25 24 23 23 24 23 20 24 26 26 27 30 30 29 30
48 47 46 46 45 42 34 31 32 32 29 29 30 30 31 30 30 30 31 30 32 33 30 30 28 27 26 25 25 27 24 25 24 25 24 25 29 28 30 30 29 29 29 31
48 46 45 44 46 41 34 31 31 30 27 27 28 27 29 30 31 31 30 31 32 32 33 30 29 26 28 23 24 26 27 26 25 25 26 28 29 30 30 30 30 30 31 30
46 45 43 44 43 40 33 31 35 30 27 25 27 30 29 31 30 30 31 31 31 31 31 30 29 26 29 26 26 26 27 25 23 24 27 29 30 30 30 30 30 29 30 30
45 44 43 44 41 39 36 36 36 34 26 25 27 29 31 32 30 30 30 29 29 29 26 26 26 26 24 22 22 23 23 23 22 21 27 26 29 30 29 27 28 29 29 29
44 44 43 43 41 37 30 26 33 34 32 27 25 31 31 32 32 30 30 30 30 29 26 25 26 27 25 17 16 20 26 28 28 28 31 30 32 30 29 28 27 27 29 28
44 43 43 43 40 36 30 26 31 37 32 28 26 26 29 31 32 31 30 30 30 27 27 25 24 24 27 24 18 22 27 30 31 31 29 28 28 27 28 26 27 27 27 27
43 41 42 41 38 35 30 34 38 36 28 24 22 25 26 29 27 27 31 28 28 28 27 27 25 25 26 19 25 27 30 30 29 28 27 26 28 27 26 27 27 25 24 24
43 42 41 35 32 26 27 38 37 33 22 18 20 21 22 28 28 29 28 29 25 28 26 26 26 25 21 21 24 27 28 26 27 27 26 25 24 22 22 23 23 23 23 24
42 39 31 25 33 39 37 30 19 25 26 25 23 23 24 27 27 26 25 27 25 21 26 26 23 23 26 26 27 27 27 26 25 17 15 18 18 18 19 20 22 23 24 24
34 30 30 35 38 31 26 16 10 20 15 25 25 25 25 28 23 24 26 24 24 21 23 23 22 22 24 25 25 25 24 24 23 22 22 21 21 20 20 20 22 24 24 22
32 33 35 32 27 21 8 12 21 15 11 24 24 25 28 28 28 25 25 22 23 19 27 22 20 23 24 24 24 24 24 22 21 22 21 21 21 21 21 22 22 23 24 23
33 25 22 19 16 -2 -10 -8 8 17 25 26 26 23 26 26 26 24 23 21 21 26 21 19 20 23 23 22 20 21 21 19 19 19 20 20 20 21 22 21 22 23 23 23
18 13 9 6 -0 5 6 8 12 23 25 24 25 25 24 26 23 23 21 24 23 19 17 16 20 23 20 19 18 18 17 18 19 19 20 20 20 20 21 21 22 22 21 21
19 10 -7 9 22 26 26 25 26 26 26 24 23 23 23 22 23 22 23 20 17 17 12 18 22 22 18 18 19 19 19 19 19 20 20 19 19 19 19 20 22 22 21 21
21 20 18 25 24 24 24 25 25 26 24 23 20 16 14 18 19 16 14 10 3 8 18 24 23 19 18 19 21 22 21 20 19 20 19 19 19 19 21 22 21 20 21 21
20 23 26 25 24 23 23 24 23 27 17 7 11 1 10 21 15 12 17 9 9 15 25 24 21 18 19 22 21 20 18 18 18 18 18 19 20 20 19 17 19 21 22 22

GFSNW_sfc_30mbdewp_069.txt.gz
Dewpoint
43 44 47 50 48 49 48 42 34 43 44 35 35 32 33 34 33 35 34 32 32 25 25 29 32 30 32 34 34 31 33 30 27 31 34 35 34 29 25 17 20 20 16 18
42 46 46 49 48 49 45 39 38 44 43 30 31 33 34 32 32 34 33 31 32 33 28 29 32 33 35 35 33 31 31 28 24 24 26 31 31 31 29 27 25 21 14 19
43 45 46 49 49 50 45 38 32 38 41 38 33 32 33 31 34 34 35 32 33 31 28 31 31 33 35 34 34 36 32 28 22 19 22 29 29 30 29 26 21 23 22 23
41 46 45 49 48 50 46 36 33 34 31 33 34 34 34 31 32 33 35 32 31 28 27 29 29 33 34 34 35 33 29 27 27 27 29 29 29 29 29 27 25 22 23 22
39 47 46 48 48 49 45 37 33 34 32 34 34 34 32 31 32 30 30 29 30 29 27 27 27 30 31 31 33 32 31 27 26 25 24 25 27 28 29 29 28 27 26 26
40 45 45 46 48 48 43 41 37 34 33 33 33 33 32 32 33 33 33 31 31 30 31 32 31 32 33 33 32 31 29 27 24 23 22 21 21 22 26 28 29 28 27 28
43 44 46 48 49 48 41 38 36 32 31 33 33 33 33 33 33 32 33 33 32 35 35 32 31 30 30 30 30 32 28 27 24 22 19 15 19 26 26 28 26 27 26 25
46 45 50 49 47 46 37 36 35 33 31 32 33 34 34 33 32 31 32 33 34 35 31 28 27 27 28 28 29 31 30 27 24 19 18 19 22 27 27 26 26 25 25 26
45 46 48 48 49 46 37 35 36 33 31 29 29 33 33 31 30 30 32 35 37 36 32 28 23 21 24 25 27 28 27 26 24 23 19 16 20 27 28 29 21 27 27 27
45 49 48 48 48 49 38 34 36 30 28 28 30 33 32 32 30 30 32 33 34 35 30 27 25 25 26 23 24 25 26 25 23 22 20 21 24 25 28 20 19 28 28 28
45 48 48 47 47 47 36 32 34 30 28 28 29 29 30 31 31 29 31 31 32 32 28 27 27 24 26 25 26 25 25 24 23 23 22 17 25 27 25 26 29 29 29 29
47 48 47 47 47 43 35 30 33 32 29 28 30 30 30 30 30 31 31 30 32 32 29 29 28 26 26 25 24 27 23 24 23 24 23 26 29 28 29 30 29 29 29 30
49 48 47 45 46 39 33 31 31 29 27 27 27 27 29 30 30 31 31 31 33 32 32 30 29 26 27 24 24 26 27 27 26 25 26 27 29 30 30 30 29 30 30 30
47 47 46 45 45 40 32 30 34 29 28 26 27 30 30 32 31 31 32 32 32 31 31 29 28 26 29 25 26 26 27 26 25 25 26 28 29 30 29 29 29 29 29 30
46 44 43 46 44 39 36 35 35 33 27 25 26 29 32 33 31 30 30 30 29 28 26 26 26 27 25 22 23 24 24 24 23 23 25 26 27 30 30 27 27 28 27 27
44 42 44 43 40 37 31 27 33 33 31 26 24 30 30 32 32 30 30 30 29 27 25 25 26 27 24 18 18 19 24 27 25 25 29 29 30 30 29 27 27 27 27 28
44 45 44 43 40 36 29 28 32 35 32 27 25 25 29 30 30 30 29 30 29 27 27 25 23 24 26 22 15 21 27 30 30 31 30 29 28 27 29 27 26 27 27 26
44 44 42 40 39 35 31 36 38 32 25 25 23 25 26 29 27 25 30 27 27 28 26 26 23 25 25 18 23 25 30 29 27 27 26 24 28 27 26 26 26 24 23 23
43 41 39 34 31 28 30 38 34 31 21 18 22 22 22 28 28 28 28 28 22 28 25 26 25 23 18 18 23 28 29 27 26 26 24 25 23 21 20 20 20 20 20 22
42 36 32 27 32 38 37 28 18 22 25 26 22 23 25 27 27 26 25 26 24 20 25 26 24 23 26 26 26 28 28 27 27 21 18 19 17 16 17 17 19 20 21 23
36 31 29 35 38 31 25 18 10 19 16 25 24 25 25 28 23 24 26 23 23 20 22 23 21 22 24 26 27 27 26 25 22 19 20 21 20 19 19 19 20 21 22 23
33 33 35 32 27 20 10 9 20 15 11 24 24 26 28 28 27 24 24 21 22 18 26 22 19 21 25 25 24 24 24 24 21 21 20 20 20 20 21 21 20 21 21 22
32 28 23 19 17 4 -2 -7 7 14 24 25 26 24 26 26 26 24 22 20 20 24 21 19 19 23 24 24 23 23 22 20 18 18 19 20 20 21 21 20 20 21 21 21
23 17 16 9 3 5 1 5 13 24 25 25 25 25 24 25 22 23 20 24 22 17 15 11 18 22 24 23 21 19 18 17 18 18 19 20 20 19 20 20 20 21 20 21
19 14 2 8 18 26 25 24 25 25 26 24 23 22 22 22 22 22 22 19 15 16 8 14 20 22 23 20 18 18 18 19 18 18 18 18 18 18 18 19 20 21 20 20
21 20 17 24 24 24 24 24 24 25 24 22 18 13 12 17 19 16 15 9 1 5 15 20 23 23 20 18 18 19 21 20 19 18 19 18 18 18 19 20 19 18 19 19
21 22 26 24 23 23 24 24 23 25 16 4 8 -1 9 19 13 8 15 7 6 12 16 23 23 21 19 19 21 22 20 18 17 17 17 17 19 18 18 18 18 19 21 21

GFSNW_sfc_30mbdewp_072.txt.gz
Dewpoint
42 42 43 46 48 48 45 41 32 44 44 35 34 30 32 34 33 34 33 30 30 25 26 30 32 30 32 35 34 31 32 29 28 31 34 35 34 28 23 18 19 18 17 18
42 43 43 47 49 47 44 37 37 44 43 30 31 34 32 32 31 32 32 31 32 32 28 29 32 33 35 34 33 31 30 26 23 23 25 30 30 30 28 25 23 18 15 19
42 43 43 46 50 49 44 37 31 37 40 38 31 33 31 30 34 33 34 31 33 30 28 31 32 33 34 34 35 35 31 26 21 17 20 27 28 29 28 24 18 21 18 22
42 42 44 47 49 48 44 37 33 36 31 33 34 33 32 30 31 33 35 31 31 27 27 27 31 34 33 33 34 32 29 27 26 26 29 29 29 29 28 26 24 20 22 22
43 40 47 48 49 49 43 36 34 34 30 33 34 34 31 31 32 32 31 29 32 29 27 27 27 31 31 31 32 31 30 27 25 24 24 25 27 28 29 28 27 26 23 25
42 41 46 46 48 49 43 41 37 33 32 32 32 31 32 32 32 33 32 31 30 29 31 31 32 33 33 33 31 30 28 26 24 23 22 21 21 23 27 28 29 28 25 27
42 42 46 47 47 48 43 40 36 32 29 32 32 33 33 32 32 32 33 33 31 34 33 32 31 30 30 29 31 31 27 26 23 22 20 18 19 27 26 27 27 27 27 27
41 46 46 48 45 47 41 37 36 33 29 32 33 33 33 32 32 31 31 33 35 35 31 29 28 28 28 28 29 30 29 26 22 19 18 18 21 28 26 26 26 26 25 26
43 46 48 49 49 45 37 35 36 33 32 30 29 33 32 31 30 31 33 36 37 34 30 26 23 22 24 26 27 28 27 26 24 22 18 14 20 27 28 28 19 26 26 27
43 47 49 49 47 45 37 34 35 31 29 28 29 32 32 31 30 30 33 34 34 33 29 26 24 24 26 23 25 26 26 25 23 22 20 20 23 26 27 20 18 28 28 28
43 48 49 49 48 45 36 31 33 30 28 28 29 30 30 31 31 30 32 31 32 31 27 26 26 24 25 25 25 25 25 24 23 23 21 15 25 27 24 25 29 29 29 29
45 49 48 48 48 45 35 31 32 32 29 28 30 29 30 30 30 31 31 30 32 32 29 29 27 25 25 25 21 27 23 24 22 23 22 26 29 28 29 29 29 29 29 30
44 49 48 47 47 42 34 31 31 30 28 28 28 27 29 31 31 31 30 32 33 32 32 30 28 26 26 24 24 25 27 28 26 25 26 27 29 30 30 29 29 30 30 29
47 48 47 47 42 37 32 30 32 30 28 28 27 30 31 33 32 31 32 32 32 32 31 29 28 26 28 25 25 25 27 26 25 25 26 28 29 29 29 29 29 29 29 29
48 46 46 47 41 37 35 34 35 32 28 26 26 29 31 32 31 31 31 30 29 28 27 27 26 27 25 22 24 24 26 25 24 23 25 26 26 29 30 27 27 27 27 25
47 45 45 44 42 36 30 27 33 33 31 27 26 30 30 31 31 30 29 29 28 27 26 25 26 27 24 20 20 20 22 26 24 23 27 28 29 29 29 26 26 27 26 26
45 46 44 41 38 35 29 27 32 35 32 26 25 25 29 29 29 29 28 29 28 26 26 24 23 25 25 21 15 17 26 29 30 29 30 29 29 28 29 27 26 26 26 25
45 43 41 39 38 35 31 35 37 31 26 26 23 24 26 29 26 24 29 26 26 27 26 26 22 24 24 18 21 24 29 29 29 29 26 24 28 27 27 26 24 22 21 21
42 40 37 33 30 28 32 37 33 31 21 20 23 22 20 28 28 28 28 28 19 27 25 25 25 21 15 15 18 25 29 28 26 26 24 25 23 22 20 19 18 17 17 18
37 34 29 27 31 39 37 27 19 19 25 25 21 24 25 26 26 25 25 26 23 20 25 26 24 23 25 26 25 26 29 28 27 22 20 21 18 16 15 15 17 19 19 20
34 30 29 34 37 30 24 16 9 17 14 24 24 26 25 27 23 24 26 22 23 19 21 23 21 20 23 25 26 27 29 28 25 17 17 18 17 16 17 17 18 20 20 20
32 33 34 31 25 19 11 9 18 15 6 24 25 25 27 27 27 24 24 21 21 16 24 22 17 19 24 26 26 26 25 24 22 21 19 19 19 20 20 20 20 20 20 21
32 26 21 19 18 9 2 -3 4 12 23 25 26 24 26 26 26 24 22 19 18 23 20 18 17 21 24 25 24 23 23 22 20 19 18 18 19 20 20 19 20 20 19 19
25 20 16 15 10 9 4 1 8 22 25 25 25 24 23 24 22 22 18 22 21 16 11 6 14 19 23 25 23 23 22 19 17 17 18 18 19 18 19 19 20 20 19 19
21 16 10 14 17 24 24 23 25 26 27 24 23 22 22 22 22 22 21 18 14 14 4 10 17 20 23 24 21 20 18 17 18 18 17 17 17 17 17 18 19 20 20 19
19 18 13 22 21 22 23 23 23 26 25 22 19 14 12 16 19 17 12 6 -2 3 13 17 22 23 23 22 20 18 18 20 20 18 18 17 17 17 18 18 18 18 19 18
20 19 25 23 23 22 24 23 24 25 18 5 9 -2 7 19 11 6 14 5 4 9 15 18 24 23 21 19 19 20 21 20 18 17 16 16 18 17 17 17 18 20 20 21

GFSNW_sfc_30mbdewp_075.txt.gz
Dewpoint
43 43 43 43 46 48 44 40 32 44 46 34 34 30 31 34 32 34 31 30 28 25 26 30 31 31 33 35 34 31 32 30 28 30 32 34 34 28 22 18 17 17 18 18
44 43 44 43 47 48 43 35 36 44 43 30 31 33 33 32 31 31 30 31 31 30 29 29 32 33 35 34 33 30 29 27 24 24 26 29 30 30 26 23 21 17 14 20
44 44 43 45 48 47 43 36 31 36 39 37 31 33 30 30 34 34 32 32 32 29 29 31 32 33 34 34 35 35 29 26 21 20 22 28 27 29 27 23 17 19 18 23
43 44 43 47 48 47 42 37 33 36 30 33 34 34 31 30 29 34 33 31 29 27 27 27 31 33 32 32 33 31 29 26 25 25 28 29 29 29 28 25 23 18 21 23
43 43 43 47 47 47 41 35 34 36 31 33 33 34 29 30 31 32 31 30 30 28 26 26 28 31 30 31 31 30 29 26 24 23 23 26 27 28 29 28 26 25 23 24
43 44 44 46 47 48 42 41 39 35 33 32 32 32 31 31 32 33 32 31 30 29 30 31 33 33 33 32 31 28 27 26 23 22 21 21 21 24 28 29 29 26 22 26
43 43 45 47 48 47 43 39 36 31 30 31 31 33 33 31 32 31 32 32 30 33 33 32 31 30 30 31 31 30 27 25 22 22 20 16 20 28 26 27 28 28 27 29
43 43 46 48 48 45 39 36 35 32 29 31 33 33 32 31 31 31 32 34 35 33 30 29 28 27 28 28 28 28 28 24 21 19 19 18 21 27 26 25 25 27 26 27
44 45 48 48 47 42 36 34 36 34 31 30 29 32 32 30 30 31 34 36 37 33 29 25 22 20 24 25 27 27 26 26 22 21 16 12 20 27 28 28 18 26 26 27
43 46 49 48 45 41 36 32 34 31 29 28 29 31 31 31 31 31 33 33 33 32 28 25 23 23 25 22 24 26 26 25 22 22 20 20 23 26 27 19 17 27 27 28
44 49 48 47 44 41 35 31 33 31 28 28 29 29 30 31 31 30 32 31 32 30 26 26 26 24 25 24 25 25 25 23 23 22 20 12 25 27 23 24 28 28 28 29
45 49 48 48 45 40 35 30 32 31 29 28 29 30 30 30 30 32 31 30 31 31 28 28 27 24 25 24 20 26 22 24 22 23 21 25 27 28 29 29 28 29 28 29
46 49 48 48 45 41 34 30 31 30 28 29 28 28 30 32 32 31 30 32 33 31 31 29 28 25 26 23 24 25 26 27 25 24 25 26 28 29 29 29 28 29 29 29
46 48 48 48 45 40 35 30 32 30 30 28 27 31 31 33 32 31 32 33 32 32 30 28 28 25 28 25 24 25 26 27 25 25 25 26 28 29 29 29 29 29 29 29
46 48 46 43 40 38 34 34 34 32 29 27 26 29 31 32 31 31 31 30 29 29 28 27 25 27 25 23 24 24 26 26 24 23 26 26 25 28 29 28 27 27 26 25
45 47 47 42 40 36 31 26 33 33 31 28 27 30 29 30 30 29 29 28 27 27 26 25 26 27 24 21 21 23 26 25 25 24 27 27 29 29 29 27 26 26 27 26
46 46 46 43 39 35 28 26 32 35 31 27 25 24 28 29 29 29 28 28 27 26 25 23 23 26 26 21 17 16 21 25 28 28 29 28 29 28 29 27 26 26 26 25
45 43 41 41 39 37 32 35 37 31 27 26 23 24 24 28 25 24 29 24 25 26 25 25 21 24 24 19 21 22 27 29 29 29 26 24 27 28 28 26 24 21 18 18
43 39 38 33 30 28 32 36 33 30 22 19 22 21 21 28 28 27 27 27 19 27 23 24 25 20 14 15 16 23 28 27 27 27 25 26 25 25 22 19 17 15 15 17
41 33 29 27 30 39 34 26 20 18 24 24 22 24 23 26 26 25 24 25 22 18 23 26 24 22 24 24 23 24 28 27 26 22 20 21 19 17 15 14 16 17 18 19
33 29 28 33 37 28 22 17 13 15 10 23 25 25 25 27 22 23 25 22 22 18 20 23 20 19 22 25 26 26 29 28 25 18 16 19 16 14 15 16 18 19 20 19
33 32 34 31 23 18 13 9 14 14 -0 23 24 25 26 26 27 24 25 21 21 14 22 21 15 18 22 25 26 27 28 27 24 20 18 18 18 19 19 19 19 19 19 19
31 26 22 19 17 11 9 2 3 10 21 25 26 25 26 26 26 23 21 18 16 23 20 14 14 18 23 25 25 24 23 23 21 20 18 17 17 19 20 19 19 19 18 18
26 20 14 12 12 12 10 4 8 18 24 26 25 25 23 24 22 22 17 21 21 15 9 4 11 17 21 25 24 23 22 21 18 17 18 17 17 17 18 19 19 19 18 19
24 19 14 14 18 22 22 22 24 25 26 24 22 23 22 22 21 22 21 18 12 12 1 7 15 19 22 24 23 22 21 19 17 18 18 16 16 16 16 17 18 19 19 19
20 17 13 19 18 19 23 22 23 26 25 22 19 18 15 16 19 18 12 5 -4 2 12 16 21 23 23 23 22 20 18 18 19 20 18 17 16 16 17 17 17 18 19 20
21 17 22 21 21 18 22 23 24 26 20 11 11 3 2 18 13 8 13 3 2 9 14 18 23 23 22 21 20 19 20 21 19 17 16 16 17 16 16 17 19 20 20 20

GFSNW_sfc_30mbdewp_078.txt.gz
Dewpoint
44 44 44 42 47 47 44 40 31 42 46 32 34 31 31 32 32 34 31 30 26 26 28 30 30 31 34 34 34 31 32 30 29 29 32 33 34 28 23 20 18 20 18 19
45 45 44 44 47 47 43 36 36 45 43 29 31 34 33 32 31 31 30 30 30 29 30 28 32 33 35 35 34 31 29 28 27 26 27 30 29 27 25 23 23 19 17 20
45 45 44 48 47 46 43 37 30 35 37 38 29 34 30 28 34 33 32 32 31 29 29 32 32 32 34 34 35 34 30 27 25 21 25 29 27 27 27 24 22 18 18 23
44 44 44 48 48 48 43 38 33 36 30 34 34 34 30 28 29 34 32 30 28 27 27 29 31 32 31 32 33 31 30 28 27 26 27 29 29 29 28 25 23 20 21 22
44 44 45 47 47 48 42 35 35 37 33 35 33 33 28 29 32 32 30 28 29 28 26 27 28 30 30 31 31 30 30 27 26 25 24 27 27 29 29 27 26 24 23 24
44 45 45 47 48 47 41 41 40 35 32 32 34 33 31 31 32 33 33 30 29 29 31 32 33 33 32 32 31 28 28 28 27 24 22 22 21 23 27 29 29 26 22 27
44 45 45 48 48 45 43 40 37 31 30 30 33 33 32 32 33 31 33 33 31 33 33 32 31 30 30 30 29 29 27 26 26 25 22 18 20 27 27 26 28 29 28 30
44 44 48 49 46 42 39 37 36 32 30 32 34 32 32 32 33 33 34 34 34 33 31 29 27 27 27 28 28 27 27 24 22 21 20 18 21 26 26 25 24 28 28 28
44 48 49 48 42 38 36 34 37 35 31 30 29 32 32 31 31 33 34 36 37 34 29 25 22 20 24 25 27 28 28 26 23 21 15 10 20 26 28 29 18 27 27 28
45 49 49 46 44 36 35 33 35 34 31 29 29 31 31 32 32 32 33 33 33 33 29 25 23 23 26 21 23 25 26 26 23 23 20 20 23 27 28 19 18 27 27 28
47 48 47 46 42 37 33 32 34 33 30 29 29 30 31 32 32 31 33 32 32 31 27 26 26 23 25 24 25 25 25 23 23 23 21 13 26 27 23 25 27 28 28 29
49 48 46 44 42 39 36 32 32 32 31 29 30 30 31 31 31 33 32 31 32 32 29 28 27 24 25 24 19 27 23 25 21 23 20 25 27 28 29 29 28 29 29 30
49 48 48 47 44 39 34 32 33 33 30 30 29 29 30 33 32 32 32 33 34 32 33 30 29 26 26 22 24 25 27 27 25 25 25 26 27 28 29 30 29 30 30 30
49 49 48 47 44 41 36 32 34 33 32 30 28 31 31 32 32 32 32 33 33 33 32 30 29 26 28 25 25 25 26 27 26 26 26 26 27 29 29 30 30 30 30 29
48 48 48 46 42 38 35 35 34 33 33 29 27 29 30 31 31 31 32 31 31 31 31 30 28 28 27 25 26 25 27 26 24 21 26 26 26 28 29 29 29 29 27 25
46 47 44 42 39 35 32 29 34 35 33 31 28 30 29 30 30 29 29 29 28 29 29 27 27 28 26 24 22 24 27 27 27 25 26 27 29 30 30 29 28 26 26 26
47 47 44 41 39 37 30 29 34 35 33 30 28 27 28 29 29 30 29 29 28 28 27 25 25 28 28 24 21 20 20 26 26 27 29 28 29 28 29 27 26 27 26 25
47 46 43 42 39 37 32 35 38 33 28 28 25 26 26 29 26 26 29 25 26 27 26 25 23 25 25 21 23 22 25 28 29 29 26 25 27 28 29 27 25 22 18 16
44 42 38 34 32 29 32 37 37 32 24 20 24 24 25 29 28 28 28 27 23 27 24 24 25 21 19 20 18 21 27 28 28 29 26 26 25 25 25 21 17 14 14 16
37 33 29 28 31 39 33 27 23 21 24 26 23 26 25 27 27 25 25 26 22 19 24 27 24 22 24 23 22 21 27 28 28 25 22 22 20 19 16 14 16 17 18 18
32 29 28 33 36 28 23 21 19 18 14 23 25 26 25 28 24 23 26 23 24 20 22 24 23 20 23 25 26 26 28 28 25 20 17 20 18 15 15 17 18 19 19 18
32 32 33 31 24 20 16 15 15 15 12 23 25 26 27 27 28 25 25 23 23 18 24 23 17 21 23 25 26 27 29 28 24 19 18 18 18 18 18 18 19 19 19 19
31 26 24 23 20 15 12 8 9 10 20 25 27 25 26 26 27 24 22 20 19 24 21 16 16 19 23 25 26 27 28 27 23 20 19 17 17 19 19 19 20 19 18 18
27 24 17 18 14 16 14 12 12 18 25 26 26 25 24 25 23 22 18 21 21 17 11 7 15 19 21 25 25 24 24 22 21 19 18 19 18 17 19 19 20 19 18 18
26 21 17 16 19 22 21 22 24 25 27 25 23 23 23 23 21 21 21 18 15 15 4 11 16 19 22 25 24 23 22 21 19 18 18 18 17 17 17 19 19 18 18 19
22 19 17 17 17 18 22 22 23 27 26 23 21 19 17 17 20 19 16 11 2 6 15 18 20 21 23 25 24 22 21 19 17 19 19 17 17 17 18 18 18 20 20 20
28 22 20 20 19 19 20 22 23 26 23 18 14 7 6 19 16 13 15 8 7 13 17 20 23 23 24 24 22 21 18 19 21 17 17 17 18 17 18 17 19 20 20 21

GFSNW_sfc_30mbdewp_081.txt.gz
Dewpoint
45 45 47 47 47 46 43 36 30 44 43 32 33 32 32 28 30 31 29 28 25 25 27 28 29 32 35 34 34 30 31 30 28 28 31 32 32 24 22 21 20 20 20 22
46 46 47 48 47 47 42 35 34 42 43 30 32 33 30 29 28 30 30 28 29 28 28 28 30 32 33 34 33 31 28 27 28 26 28 29 27 25 24 23 24 19 19 22
45 45 46 47 48 48 44 38 30 36 37 38 31 28 24 27 33 32 32 30 29 28 29 30 30 31 33 33 34 33 31 27 27 24 27 29 26 25 23 25 22 15 20 23
44 45 45 47 48 48 43 38 34 36 32 31 34 30 25 26 29 32 31 28 26 26 27 28 29 29 30 31 32 31 30 28 27 25 27 28 27 26 24 23 21 19 21 22
44 45 45 47 48 47 41 36 34 35 33 35 33 29 24 26 30 31 27 26 26 26 27 27 27 26 26 29 28 29 30 28 28 24 24 26 26 27 26 26 24 22 22 24
45 45 46 48 49 46 40 41 40 34 32 34 30 26 26 29 31 32 30 28 29 31 32 31 31 31 30 30 29 28 28 29 29 24 23 23 20 23 26 28 28 26 21 27
44 45 48 49 47 46 41 41 36 28 29 31 33 30 30 31 31 31 33 32 30 33 32 32 31 30 29 28 28 28 27 27 29 26 24 18 20 26 27 26 28 29 29 29
46 49 49 48 45 42 39 37 36 30 31 32 31 31 31 32 33 34 34 34 33 33 32 28 27 25 27 28 29 27 26 23 22 22 17 17 20 24 25 25 24 28 28 29
49 49 48 43 42 38 36 36 38 34 31 32 30 32 31 29 30 32 33 34 36 35 28 24 21 20 23 23 24 28 28 26 23 19 16 8 20 26 28 28 18 27 29 29
49 48 46 44 41 38 36 35 37 36 34 30 31 31 32 33 32 31 33 33 33 34 26 22 21 21 25 19 20 22 24 24 22 20 18 19 23 27 28 19 21 27 28 29
49 47 46 43 40 37 36 35 35 36 32 30 31 31 32 33 33 29 33 32 32 29 25 24 23 21 23 22 23 22 23 22 20 22 20 16 25 28 24 26 28 28 29 29
48 46 45 43 42 39 37 34 33 34 33 31 31 31 32 32 32 33 33 32 32 31 26 26 25 22 24 22 16 26 21 24 21 22 21 25 27 28 29 29 28 29 29 30
49 47 47 46 44 40 36 35 36 35 32 31 31 30 31 33 32 33 32 34 35 33 34 29 28 24 25 19 20 24 26 27 24 24 24 26 27 27 29 30 29 30 30 30
49 49 48 46 44 40 37 34 35 36 33 31 30 31 31 32 33 33 33 33 34 34 33 30 28 25 28 24 25 24 26 27 25 25 25 26 27 28 28 29 30 30 30 29
49 49 48 45 42 39 37 35 35 34 36 30 29 30 30 31 31 32 33 33 33 33 33 32 27 28 27 26 26 24 26 24 23 18 26 26 27 28 29 29 30 29 28 26
47 46 44 42 37 35 36 32 35 35 37 35 30 31 29 30 30 30 30 30 30 31 31 30 29 29 28 26 21 23 26 27 27 25 26 27 29 29 30 29 29 28 26 25
47 44 41 40 38 39 33 32 37 37 35 33 30 31 29 30 30 30 29 29 29 30 30 28 27 28 30 27 22 22 22 27 26 27 28 28 29 28 29 28 27 27 25 23
48 45 43 41 38 38 34 35 35 34 31 33 30 31 28 30 28 28 29 27 28 29 28 26 25 26 27 24 25 22 22 24 27 28 27 26 28 29 29 28 27 23 18 14
46 44 39 36 35 32 34 38 40 35 29 29 30 29 29 29 29 30 29 27 27 28 26 25 25 23 23 24 23 21 25 26 26 28 27 26 25 25 27 24 18 14 13 15
41 35 31 33 33 39 36 33 29 29 29 29 27 30 29 29 28 27 28 27 26 25 25 27 24 23 25 23 20 20 24 28 29 28 26 24 22 23 18 15 14 16 16 17
35 32 31 35 36 31 26 26 25 25 22 25 27 30 27 29 28 28 27 29 27 23 27 24 24 21 22 24 24 24 25 28 28 24 21 22 21 17 14 15 17 17 17 17
36 35 35 33 28 27 20 22 21 20 21 24 26 26 28 27 29 27 26 27 25 22 26 24 21 24 25 25 26 26 27 27 24 19 17 16 16 17 18 18 18 19 19 19
33 30 28 28 26 21 19 13 18 18 23 27 27 26 27 27 28 26 25 23 23 24 22 21 21 23 24 26 27 28 29 28 24 19 18 18 18 20 19 19 20 19 18 18
29 25 20 22 21 21 24 22 25 26 27 28 29 27 26 26 25 24 21 21 21 20 15 11 21 22 23 26 27 28 29 28 25 22 20 20 20 19 20 20 20 19 18 18
27 25 20 21 25 25 25 24 26 27 28 28 25 25 24 25 23 21 22 19 17 18 13 19 25 24 25 26 26 26 25 24 22 21 19 19 18 18 19 20 20 19 18 18
26 26 23 21 21 24 25 25 26 28 28 26 26 23 21 20 23 21 18 17 10 14 20 26 21 22 26 26 25 24 23 21 19 18 20 18 18 18 19 19 19 20 20 20
30 27 25 25 25 25 24 23 22 27 26 24 23 14 13 22 20 16 19 15 17 22 22 24 24 24 26 26 25 22 20 19 20 20 18 18 19 19 19 17 18 20 20 21

GFSNW_sfc_30mbdewp_084.txt.gz
Dewpoint
46 46 46 48 49 46 40 36 32 44 42 33 33 31 34 28 29 31 29 27 29 29 28 31 31 32 35 34 34 30 30 31 27 27 30 31 32 25 22 22 20 23 23 23
46 46 46 48 48 47 39 35 35 41 43 30 31 35 29 32 29 30 29 28 28 29 29 31 31 31 33 34 33 31 30 27 28 26 28 30 26 24 26 25 27 20 22 23
46 46 46 48 48 48 43 37 31 37 39 39 34 27 27 30 33 31 30 29 29 29 29 30 29 31 32 33 33 33 33 28 27 25 27 29 26 25 24 25 21 22 23 25
46 46 46 47 49 48 44 38 34 36 32 33 31 26 28 29 28 30 29 27 26 26 27 28 28 29 32 31 31 31 31 26 27 25 27 28 27 26 25 23 20 21 24 25
45 46 47 48 49 47 42 36 35 37 33 34 28 27 28 28 30 30 26 27 29 30 28 28 26 27 28 29 28 29 30 26 28 23 25 25 24 26 27 27 25 23 25 25
46 47 48 49 48 47 40 41 40 34 33 32 25 26 28 31 31 31 33 31 32 31 31 30 30 29 28 28 28 28 29 29 30 22 23 23 22 23 26 28 28 27 25 27
48 49 49 48 45 44 41 41 39 32 30 31 28 29 32 33 32 32 33 32 31 32 33 33 30 29 29 28 27 27 26 27 30 23 25 19 21 25 26 26 28 29 29 29
50 50 48 43 42 40 39 39 39 33 30 30 29 29 32 33 34 33 34 33 33 34 33 29 27 26 27 27 28 28 27 25 23 22 17 17 21 25 26 26 26 28 29 29
48 46 44 43 40 39 39 38 39 39 31 30 31 31 31 29 31 32 33 34 36 35 30 24 21 21 21 22 23 27 28 26 24 21 16 11 21 27 28 28 22 28 29 29
49 48 46 44 42 39 39 37 38 39 32 31 31 31 32 34 32 32 33 33 33 34 29 23 23 21 24 21 19 21 24 24 22 20 20 20 26 27 28 19 22 27 29 30
48 45 44 44 42 39 39 35 36 37 32 31 32 32 32 33 34 31 34 33 33 32 26 24 23 22 23 23 22 22 23 23 21 21 20 16 27 27 23 26 28 29 29 30
48 46 46 46 45 41 39 36 37 37 34 31 32 32 32 32 32 33 34 33 32 33 30 27 25 23 23 21 18 25 19 24 23 22 23 25 27 29 30 29 29 29 30 30
49 47 48 47 45 42 38 37 37 39 33 32 31 31 31 33 32 33 33 35 35 34 34 32 29 26 25 20 21 23 25 27 24 23 24 26 26 28 29 30 29 30 30 30
49 49 49 46 43 40 38 35 37 38 36 32 31 31 31 32 33 33 33 33 35 34 34 32 29 26 28 25 25 24 26 27 25 24 25 26 27 28 29 29 30 30 30 29
48 49 48 45 42 39 40 37 37 35 37 32 30 30 31 31 32 33 34 34 33 34 34 33 30 29 28 27 26 25 27 26 24 20 26 26 27 28 29 29 30 30 29 27
45 48 45 40 38 37 39 36 38 37 36 36 30 32 30 30 31 31 30 31 31 32 32 32 30 29 28 27 24 24 26 26 27 26 27 28 29 29 30 30 29 28 27 26
45 44 40 39 37 38 33 32 36 37 36 35 31 32 30 30 30 31 31 30 31 31 31 29 29 29 29 29 25 24 26 27 27 28 28 27 28 29 29 29 27 27 25 22
46 43 42 40 38 39 36 36 38 38 33 34 30 31 29 30 30 29 30 29 30 30 30 27 25 27 27 24 27 21 21 26 27 27 27 28 29 29 28 27 26 24 19 15
47 44 42 39 36 34 35 39 40 38 30 28 30 26 27 30 30 31 29 29 27 30 27 26 25 25 23 23 24 25 23 24 26 28 26 26 27 28 28 27 21 14 13 15
45 38 33 34 34 38 37 35 29 31 31 29 25 32 27 30 29 29 29 28 28 24 27 28 24 24 26 27 24 23 25 27 29 27 26 25 24 24 23 18 15 15 16 17
36 34 32 36 36 33 27 25 24 28 23 28 28 31 25 29 28 29 28 30 28 21 27 22 25 24 24 25 21 21 26 29 29 26 27 26 24 21 15 14 16 17 18 17
36 36 36 34 31 27 21 21 25 21 22 25 25 26 29 27 30 28 26 26 24 17 27 24 21 24 26 25 24 24 28 29 23 19 17 16 17 17 17 17 17 18 19 19
34 31 28 29 26 22 19 15 18 20 24 27 27 25 27 27 29 27 25 23 22 24 22 19 19 26 25 26 27 27 28 26 20 18 17 17 18 19 18 18 19 19 18 18
29 24 20 20 20 21 24 23 27 27 28 28 30 26 27 27 24 25 21 23 21 19 15 10 20 24 24 27 28 29 28 24 21 20 19 19 20 19 19 19 19 19 18 19
26 26 20 22 26 26 26 26 24 25 29 29 26 26 26 25 25 23 22 18 14 17 11 18 28 24 25 27 28 28 28 27 24 21 19 19 19 17 18 20 20 19 19 18
27 28 25 25 23 25 24 24 26 29 30 28 27 23 21 21 23 20 16 16 7 10 20 26 23 25 26 26 27 27 26 25 22 20 20 20 18 18 19 18 18 19 19 19
30 28 29 26 25 28 25 27 25 29 27 22 24 15 13 22 19 17 21 15 15 25 24 25 23 24 26 26 25 24 22 21 19 19 18 18 18 18 17 15 18 20 20 20

GFSNW_sfc_30mbdewp_087.txt.gz
Dewpoint
47 48 47 48 46 42 39 37 30 43 44 33 33 31 33 35 33 32 29 29 30 29 32 33 32 32 35 37 34 33 34 30 28 26 30 31 31 27 24 22 20 23 23 26
47 47 47 48 49 48 39 35 36 41 41 27 30 35 33 33 31 31 30 28 29 30 32 29 31 32 33 34 33 31 30 27 26 26 25 28 27 25 25 27 24 23 21 26
47 47 47 48 49 49 41 37 30 35 38 38 33 30 29 30 33 31 30 29 29 29 30 31 30 31 32 33 32 33 33 27 26 23 26 29 26 26 26 24 20 23 24 28
47 48 48 49 49 48 42 36 32 35 31 34 35 30 31 30 30 31 28 27 28 27 28 28 28 30 31 32 31 31 30 25 25 25 28 26 26 27 27 25 23 21 26 28
47 49 49 49 48 48 40 34 34 36 33 34 29 29 31 30 31 31 31 31 31 30 29 28 26 28 28 28 29 29 31 23 28 22 25 22 21 25 27 27 26 25 26 27
50 50 49 45 43 46 39 40 39 34 33 31 28 30 32 31 31 32 33 32 31 30 30 31 32 29 28 28 28 27 28 28 29 18 24 23 18 22 26 28 28 27 25 27
49 47 44 43 42 43 41 40 39 32 29 30 30 32 33 33 33 31 33 32 31 32 34 33 31 29 29 28 28 28 26 26 29 20 25 11 20 25 26 25 28 29 29 31
47 46 46 44 42 42 39 38 38 35 29 30 30 32 33 33 33 33 32 32 33 35 34 29 27 26 27 26 28 27 28 25 21 18 16 17 20 25 26 25 26 28 29 30
48 46 45 45 42 43 39 37 38 38 29 30 31 31 32 30 31 31 32 34 36 35 32 24 20 19 22 21 21 26 27 26 23 21 15 11 20 26 28 28 22 27 30 29
48 45 46 46 44 42 38 35 37 37 31 31 32 31 31 34 33 31 32 33 32 34 28 23 22 20 23 21 19 17 23 23 21 21 18 20 25 27 28 16 18 27 29 30
46 46 48 47 46 44 37 34 36 36 31 31 31 32 32 33 34 31 33 32 32 31 26 25 23 23 23 22 22 21 20 21 21 21 19 10 27 27 21 25 28 28 29 30
49 47 49 47 45 43 40 34 38 37 32 31 32 31 32 32 32 32 34 32 33 33 31 27 26 23 23 21 13 25 16 21 22 20 20 25 27 28 29 29 28 29 29 30
49 48 48 47 44 42 38 36 36 38 32 32 32 31 31 32 32 33 33 34 34 34 34 32 29 23 26 19 20 23 24 27 22 21 22 25 26 29 30 29 30 30 30 30
48 49 48 45 43 42 37 34 36 37 37 31 31 31 31 32 32 33 33 33 35 34 34 32 29 27 28 23 24 24 23 26 24 24 25 26 27 27 28 29 30 30 29 29
46 49 47 45 41 39 37 36 36 35 36 31 30 31 31 31 31 32 34 34 33 34 32 33 29 29 28 27 26 25 27 25 23 19 24 25 27 28 29 29 29 30 29 27
44 46 45 40 38 38 38 33 39 36 35 36 28 32 30 30 31 31 30 31 31 32 32 31 30 29 27 25 25 25 26 27 27 24 28 28 29 29 30 30 30 28 27 25
45 45 40 39 38 36 32 28 32 37 37 34 30 30 30 29 30 31 31 31 31 31 31 29 29 29 28 27 23 24 26 27 27 27 28 27 28 27 29 29 28 27 24 23
47 45 41 41 40 38 34 35 38 37 32 34 27 27 28 30 29 29 30 29 29 30 29 28 25 27 26 24 25 27 25 27 27 27 27 28 29 29 28 27 26 24 21 16
47 43 42 39 36 33 34 39 39 36 28 22 28 21 23 30 29 30 29 29 26 29 27 26 26 24 23 23 23 25 22 25 25 27 27 28 28 28 28 27 25 18 14 15
46 39 33 33 34 38 36 34 26 28 29 29 22 29 28 29 28 28 28 28 27 25 26 28 25 24 25 26 26 26 25 25 28 26 25 25 25 27 27 24 18 14 15 16
36 32 31 35 36 32 27 24 22 26 22 26 26 30 26 29 27 27 29 28 27 20 23 23 21 23 25 25 26 25 26 28 28 26 26 26 25 25 23 16 15 16 17 17
35 35 35 34 30 26 20 19 24 21 20 25 23 26 28 26 29 28 27 25 24 17 26 22 17 21 26 24 22 25 28 29 27 25 26 25 23 20 16 16 17 17 18 18
33 29 27 28 25 21 18 14 16 19 23 26 26 24 25 26 28 27 24 22 21 23 20 15 16 21 26 25 24 27 29 26 21 18 17 18 18 18 17 17 19 19 17 18
26 23 20 21 19 19 19 19 17 24 25 26 27 25 25 27 24 24 19 22 21 16 12 7 15 22 25 26 27 27 26 22 19 17 18 18 18 18 19 17 18 18 17 18
25 25 20 20 22 25 25 25 22 25 28 28 26 25 24 23 24 23 21 18 12 14 5 12 23 24 25 27 27 28 25 22 20 20 19 19 19 17 17 19 19 19 18 18
27 27 24 26 24 23 22 20 21 27 28 27 27 22 21 20 21 19 17 12 3 3 15 19 25 23 25 26 28 28 28 25 22 20 19 19 18 16 17 18 18 18 19 18
31 28 28 24 23 22 23 22 23 28 27 21 22 14 13 21 19 17 18 13 10 18 23 23 24 22 24 26 27 27 27 26 23 20 20 20 19 18 16 14 17 19 19 19

GFSNW_sfc_30mbdewp_090.txt.gz
Dewpoint
48 48 48 49 49 40 38 36 28 40 43 31 33 31 33 36 35 36 34 30 29 30 33 33 32 31 34 37 36 33 35 30 27 27 29 31 31 29 25 21 20 23 22 25
48 48 48 49 50 46 38 35 35 39 41 28 30 33 35 35 31 31 30 28 29 32 32 29 32 32 34 35 34 31 30 27 25 24 20 27 27 27 27 26 24 23 19 23
49 49 49 49 49 49 39 35 27 33 37 37 33 31 28 30 32 30 30 30 30 29 30 31 30 31 32 33 32 33 32 27 26 21 26 28 25 27 27 23 20 23 24 28
50 49 49 49 48 48 39 34 31 34 30 32 34 34 31 30 30 31 32 29 30 28 28 28 28 29 30 31 32 31 29 23 25 25 28 25 25 26 27 24 24 20 26 27
49 47 46 45 46 46 39 32 32 36 33 33 29 30 31 30 31 31 31 30 31 30 28 29 26 28 28 28 29 28 30 23 28 22 24 23 20 25 27 27 27 27 27 27
46 47 46 45 45 43 38 40 39 34 31 28 30 31 32 31 31 32 33 32 30 29 30 32 32 32 29 28 28 27 28 27 28 15 23 24 15 21 26 27 28 27 25 27
48 47 46 44 45 42 40 39 38 32 28 29 30 32 33 32 33 31 32 32 29 31 35 34 32 30 29 28 28 28 26 26 27 19 22 7 16 25 26 26 28 29 30 31
46 47 47 44 45 41 37 37 37 33 29 30 31 32 32 32 32 32 31 32 33 35 32 27 25 24 25 25 26 27 28 26 20 18 15 15 20 23 25 25 25 28 29 31
47 47 48 47 45 43 37 36 38 36 29 29 31 31 32 29 30 29 31 34 35 34 31 23 19 16 21 19 20 23 26 26 23 20 13 7 17 26 28 27 17 27 29 29
48 47 47 46 46 43 37 35 37 34 30 31 31 31 31 33 32 30 32 33 32 33 26 22 21 20 23 18 16 16 21 22 20 20 17 18 23 27 28 15 10 27 30 30
48 48 48 45 44 43 36 35 37 35 31 31 31 32 31 33 33 30 32 32 31 30 25 25 23 23 22 21 21 20 16 18 21 21 19 6 27 27 20 19 28 28 30 30
47 49 48 46 42 40 39 34 37 36 32 31 32 31 32 32 32 33 33 32 33 33 30 27 26 23 23 21 12 25 19 20 20 20 16 22 28 25 28 27 27 29 29 30
47 49 48 48 44 40 36 34 36 36 32 32 32 31 31 32 33 33 33 34 34 34 33 32 29 24 26 20 20 21 23 26 24 21 17 24 26 29 29 29 29 30 31 30
46 49 49 46 44 40 36 32 35 37 36 31 31 32 31 32 32 33 33 33 34 34 34 31 29 27 28 24 23 24 23 26 24 23 23 25 26 28 29 29 30 30 30 29
46 48 48 47 43 40 36 35 34 36 35 29 29 31 31 31 31 32 33 33 33 33 31 32 27 29 28 27 26 25 26 24 22 17 21 22 25 28 29 29 30 30 28 26
45 45 45 43 41 41 39 32 38 35 37 34 26 32 30 30 30 31 31 32 31 31 32 30 31 29 28 24 23 25 26 27 27 22 26 27 28 29 30 30 30 30 29 26
46 45 42 41 40 36 33 29 31 37 37 32 27 29 31 29 30 31 31 31 31 30 31 30 29 29 29 25 22 22 25 26 27 27 28 27 28 27 30 29 29 28 25 24
47 46 41 41 41 37 34 35 39 36 32 32 24 25 27 30 28 28 30 29 29 29 28 28 27 27 27 25 25 26 26 26 27 27 28 27 29 29 28 28 26 24 22 18
47 46 41 38 36 33 34 39 38 34 27 22 26 19 17 29 29 29 29 28 26 29 27 26 26 25 23 24 25 24 25 26 26 27 29 29 28 28 27 26 25 23 17 14
46 38 34 31 34 38 36 32 27 27 27 28 23 26 27 28 28 28 28 28 26 25 25 28 25 25 26 26 26 26 26 26 27 26 26 27 27 27 27 26 24 17 14 15
37 33 31 34 37 32 27 24 24 24 22 25 23 28 26 29 26 26 28 26 26 21 20 24 21 20 24 27 26 25 27 26 27 26 26 26 26 27 27 24 17 15 16 16
35 34 35 33 29 25 22 20 22 23 19 25 24 27 27 27 29 28 27 24 23 20 24 23 17 17 23 25 24 25 27 27 27 27 26 26 25 26 24 17 16 17 18 18
32 29 26 26 24 21 19 17 17 19 22 25 26 25 25 26 28 26 24 22 22 23 20 17 15 17 20 25 24 26 29 27 24 24 24 23 22 19 17 17 18 18 17 18
25 23 21 20 20 20 19 16 15 20 23 25 25 25 24 26 24 23 19 21 21 17 14 8 11 14 23 24 26 26 27 24 20 19 19 19 18 17 18 18 18 17 16 18
25 24 21 20 21 22 22 22 24 26 26 26 24 24 23 23 23 23 21 18 15 15 10 9 11 21 23 23 26 26 26 22 20 18 18 18 19 18 18 19 19 18 18 17
26 26 22 23 23 22 23 23 18 26 27 26 24 21 20 19 21 20 18 14 10 5 13 14 19 22 21 24 26 27 27 23 20 19 19 19 19 18 17 20 18 18 18 17
32 28 27 25 23 22 23 22 22 28 26 19 20 15 12 20 18 17 17 14 10 9 13 18 24 20 20 23 26 27 28 26 23 20 20 19 19 18 18 15 17 18 19 19

GFSNW_sfc_30mbdewp_093.txt.gz
Dewpoint
49 48 49 50 50 42 39 35 28 35 42 31 33 32 35 36 34 36 34 31 29 29 32 31 32 31 32 36 37 34 35 31 26 26 29 31 31 28 28 22 20 23 22 26
49 49 49 50 49 42 37 33 33 37 38 28 30 32 34 35 32 31 30 28 29 33 32 30 32 32 34 37 34 32 31 27 25 18 19 27 27 27 28 26 24 22 19 23
49 49 49 49 49 48 38 32 26 32 36 34 33 31 30 30 32 31 30 31 30 30 30 31 30 30 32 33 32 33 32 27 25 20 25 27 24 25 28 23 20 22 23 27
46 46 47 46 46 48 38 33 30 34 29 31 32 33 31 30 30 32 32 30 30 28 27 27 27 28 29 31 31 32 29 23 25 25 26 26 23 25 27 25 25 20 25 26
46 45 45 47 47 44 38 32 32 34 31 32 29 31 31 30 31 31 30 30 30 29 28 29 26 28 27 27 28 29 30 22 28 22 24 24 23 21 26 27 26 27 27 26
46 45 43 45 46 41 38 39 39 34 30 29 29 32 32 31 31 32 33 32 29 28 30 32 32 32 31 28 27 26 28 26 26 14 23 23 16 19 25 27 28 27 23 26
47 47 45 45 42 42 39 38 37 30 28 30 31 33 33 32 33 31 31 31 29 31 35 34 33 31 29 29 28 28 26 26 26 19 18 9 12 25 25 26 28 29 30 30
48 48 47 44 41 40 37 37 37 32 28 30 30 31 32 30 31 31 31 32 33 35 31 25 23 23 23 23 25 27 27 25 21 16 16 13 17 21 24 25 23 28 30 31
49 48 49 46 43 40 36 36 38 34 29 27 31 31 32 30 30 26 29 33 35 33 28 22 18 13 20 16 19 25 26 26 23 20 12 1 14 25 28 25 11 27 30 31
48 48 49 49 45 41 36 36 38 33 30 31 31 31 30 33 32 29 31 33 33 32 26 22 20 19 23 16 16 16 18 22 19 21 18 15 20 27 27 10 4 27 30 30
47 48 48 48 48 42 37 36 37 34 31 31 32 32 31 33 33 30 32 31 31 29 25 24 23 22 22 22 19 20 15 15 18 20 18 4 27 27 18 16 27 28 30 30
46 48 48 47 48 45 39 34 37 35 33 31 32 32 32 32 33 33 33 32 32 32 29 27 26 24 23 21 13 21 18 19 16 21 15 20 28 22 27 27 27 28 29 30
46 49 49 48 46 42 39 34 36 34 32 31 31 31 32 33 33 33 32 34 34 34 33 31 29 25 25 20 20 20 22 25 23 21 15 22 25 27 29 29 28 29 30 30
45 48 48 47 46 42 36 32 36 37 34 30 30 32 31 32 33 33 33 33 34 34 33 31 29 26 27 24 22 22 20 25 24 23 23 24 25 26 28 29 30 30 30 30
46 46 47 47 43 40 37 34 34 36 35 29 29 31 31 31 32 32 33 33 33 33 31 31 28 28 28 27 26 25 26 23 21 17 20 20 20 26 29 29 30 30 29 28
46 44 45 44 41 41 38 32 37 35 37 33 26 31 31 30 30 31 32 33 32 31 31 29 30 30 28 24 22 24 26 27 26 22 24 25 28 29 29 29 30 30 28 27
45 46 45 41 40 37 35 30 33 38 37 32 27 28 31 29 30 31 31 31 30 30 30 30 29 28 29 26 23 23 24 26 26 27 28 27 28 27 29 30 30 31 27 25
45 47 45 41 41 38 33 35 39 35 32 31 23 23 26 30 28 28 30 29 29 29 28 28 28 27 28 26 27 27 27 26 26 27 28 27 28 29 29 29 27 25 24 21
46 47 42 38 35 32 33 39 37 33 26 23 24 20 16 29 29 29 29 28 26 28 27 26 26 25 24 25 26 25 25 25 26 28 28 28 28 28 28 27 25 24 22 17
47 39 34 32 34 37 35 31 28 27 26 27 23 24 26 27 27 27 28 27 26 24 26 27 26 25 26 26 27 27 26 26 27 26 27 28 27 27 27 26 26 24 19 15
40 36 33 34 37 31 26 25 25 24 22 25 23 25 25 28 25 26 28 25 25 22 21 24 22 20 22 24 25 26 24 26 27 27 27 28 28 28 27 26 25 18 15 15
38 35 34 31 28 25 24 22 21 23 19 24 24 27 26 27 29 28 27 24 23 19 23 24 19 18 20 22 22 24 27 27 27 27 25 26 26 28 28 25 19 16 17 18
32 29 27 26 24 23 23 22 19 19 22 25 26 26 25 27 28 26 25 23 22 23 20 18 17 17 18 19 24 24 28 27 26 26 26 25 25 27 24 19 17 18 18 18
27 26 23 21 20 21 21 20 17 20 24 25 25 24 23 25 25 23 21 21 21 18 17 13 14 11 14 22 24 25 26 25 24 24 23 23 23 21 18 17 18 17 15 17
26 23 21 20 21 21 21 20 24 25 26 25 24 24 23 23 22 23 20 18 17 16 13 13 10 12 20 20 23 25 26 24 21 20 20 19 18 17 18 19 18 16 17 17
27 25 23 22 22 21 24 22 21 25 26 25 23 21 20 19 20 20 18 15 12 11 15 15 15 17 19 19 22 26 26 25 22 19 18 18 18 17 17 19 18 18 17 15
32 28 26 25 25 26 25 24 21 27 25 18 20 14 12 20 18 17 18 15 13 14 11 14 18 17 16 19 22 25 27 26 23 20 19 19 19 18 17 16 17 18 18 17

GFSNW_sfc_30mbdewp_096.txt.gz
Dewpoint
49 49 49 49 49 44 38 33 28 36 39 31 34 32 35 36 33 35 33 31 29 29 31 29 31 30 32 35 37 34 35 32 26 25 30 30 31 28 28 23 21 24 22 25
49 49 49 49 49 43 36 31 31 36 36 28 29 31 34 35 32 31 30 29 31 33 32 29 32 32 33 36 35 33 33 27 23 16 20 27 27 27 27 27 24 22 19 23
47 47 47 47 47 46 36 31 25 31 35 33 32 30 30 30 33 32 31 31 30 31 30 32 30 30 32 35 35 34 31 27 25 19 23 27 24 23 27 25 20 21 23 27
47 47 46 47 47 45 36 33 31 33 29 30 30 32 31 30 30 32 32 29 30 29 27 26 26 28 28 32 30 33 30 23 26 25 26 25 24 21 26 25 24 18 24 26
47 48 47 47 47 42 38 32 32 33 30 30 30 31 31 30 31 31 30 29 30 29 27 28 26 29 26 26 28 29 29 24 27 24 24 24 23 23 25 27 27 27 27 26
48 49 49 47 46 41 37 38 38 32 30 29 30 31 32 31 32 32 32 31 29 28 30 32 32 32 32 30 27 26 27 26 24 15 20 21 16 19 24 26 28 26 23 25
48 48 50 48 45 42 37 38 36 29 27 30 31 32 32 30 32 30 31 31 29 31 35 34 33 32 31 29 28 28 26 25 25 17 17 5 10 24 25 25 26 29 29 30
49 47 49 49 47 42 37 38 35 31 27 30 29 31 31 29 30 30 31 32 33 35 30 25 22 22 22 25 25 26 27 25 21 14 14 12 15 19 22 23 19 28 28 30
49 48 48 49 49 44 37 37 38 33 27 25 31 31 32 30 30 26 28 33 34 31 26 22 16 10 18 15 17 26 26 26 22 19 11 -1 9 24 28 24 9 24 30 30
47 48 48 48 49 43 37 36 37 33 28 30 31 30 30 33 32 28 29 32 32 31 25 22 18 17 22 16 16 15 17 21 19 20 16 15 17 26 27 9 2 26 30 30
46 47 48 48 48 45 38 36 37 35 30 30 32 32 31 32 33 27 30 29 30 28 23 23 23 22 21 21 20 17 15 12 16 19 18 3 26 26 17 15 26 27 29 30
46 47 50 48 47 43 39 34 37 35 33 31 32 33 33 33 33 33 32 30 31 31 27 27 26 23 23 20 13 20 15 18 11 18 13 18 26 23 25 26 26 27 29 30
46 46 49 48 46 43 37 34 36 34 32 31 31 30 32 32 33 34 32 33 34 33 32 29 28 25 26 20 20 20 21 24 21 21 16 21 23 26 28 28 26 28 29 30
45 45 48 48 45 40 35 32 35 37 34 30 29 32 31 32 33 33 33 33 34 33 33 30 29 26 27 22 21 20 19 24 22 23 22 23 24 25 26 28 29 30 30 30
44 46 46 46 43 41 38 34 34 36 35 29 28 31 32 32 32 32 33 32 32 32 31 30 28 28 27 27 26 25 25 22 20 17 19 19 18 24 27 28 29 30 29 29
44 45 45 45 43 41 37 32 37 35 36 32 26 31 30 30 31 31 32 33 32 31 31 29 30 30 28 25 23 24 26 26 25 22 24 23 26 28 29 29 30 30 29 28
44 45 46 43 42 38 35 31 32 38 36 30 26 27 31 29 30 30 31 30 30 30 29 29 28 28 30 26 24 24 24 25 25 27 27 26 27 26 29 30 30 32 28 27
44 45 47 44 41 37 34 34 39 35 31 30 23 22 25 30 27 28 30 29 29 29 29 28 28 27 28 26 27 27 27 27 26 26 27 27 28 29 29 29 29 28 26 24
45 46 44 38 36 33 33 39 36 32 26 22 23 19 15 29 28 29 29 28 26 28 27 27 27 25 24 26 27 26 26 25 25 27 27 28 28 28 28 28 27 27 25 22
46 41 36 34 33 37 36 31 29 28 26 26 22 24 22 27 27 28 28 27 26 24 26 27 26 25 26 26 27 27 26 27 27 26 26 27 27 27 27 27 27 26 25 20
41 37 34 34 36 31 27 26 27 25 23 25 24 24 24 28 25 26 28 25 25 23 22 24 22 22 23 24 24 26 25 25 26 27 27 28 27 27 27 27 27 25 23 18
39 36 33 31 28 25 25 24 21 23 22 23 22 24 26 27 29 27 27 24 23 20 22 24 20 20 22 22 22 21 24 26 26 27 27 26 27 28 28 27 26 22 18 17
33 30 27 26 24 23 24 23 22 20 22 24 26 25 25 27 28 26 25 24 23 22 20 18 17 18 19 19 19 22 25 27 27 27 26 26 26 27 27 26 23 18 17 18
32 28 24 22 21 22 23 23 22 22 23 24 25 24 23 25 25 24 22 22 21 19 18 15 17 17 14 16 21 24 25 26 25 26 26 25 25 25 24 23 19 17 17 17
32 27 24 23 22 22 22 21 21 24 25 25 23 23 23 23 22 23 19 18 17 17 13 15 15 14 13 18 19 23 25 25 24 23 23 22 22 22 20 19 18 17 16 17
31 27 23 22 21 21 22 22 24 26 25 24 23 20 19 18 20 20 17 15 11 12 17 18 15 13 17 17 18 22 25 25 24 21 21 21 20 19 18 18 17 16 16 16
31 29 27 24 24 24 24 25 24 26 24 18 19 14 12 20 18 16 19 16 13 15 17 17 17 15 14 16 18 22 25 26 25 22 20 19 19 18 17 16 17 17 17 16

GFSNW_sfc_30mbdewp_099.txt.gz
Dewpoint
48 48 48 48 49 47 37 33 30 36 39 31 33 32 34 35 33 35 33 30 29 30 30 29 31 30 31 35 37 33 34 31 27 26 30 30 31 28 27 24 21 24 23 24
49 49 48 48 48 45 35 30 30 35 36 28 28 30 33 34 31 31 30 29 32 33 32 29 32 32 33 36 36 33 34 28 22 15 20 27 26 27 27 27 25 22 20 22
49 49 49 48 49 46 34 31 25 31 33 33 31 29 30 29 33 32 31 31 30 31 29 31 29 29 32 36 36 35 33 27 24 17 20 27 25 24 26 26 21 21 22 28
48 49 50 49 49 45 35 33 31 33 28 29 30 31 31 30 30 32 32 29 30 29 26 26 26 28 27 32 31 33 30 25 25 25 25 26 26 24 23 24 23 19 21 27
47 48 49 49 47 45 37 32 31 31 30 30 30 31 30 30 31 31 29 28 30 29 27 28 26 29 26 26 27 29 29 25 27 23 25 24 23 23 23 26 27 26 26 25
48 48 49 49 46 43 36 37 37 30 30 30 29 30 30 30 32 31 32 31 29 27 29 31 31 31 31 30 27 26 27 25 23 15 19 20 15 18 23 26 27 25 23 24
49 48 49 49 46 41 38 37 34 27 26 29 30 31 32 29 31 30 30 31 29 30 35 34 33 33 32 31 28 28 26 25 24 18 16 -1 9 23 25 24 25 28 28 28
48 49 48 48 47 43 37 37 34 29 24 29 29 30 30 30 30 30 31 31 33 34 29 24 20 20 21 25 26 27 27 25 21 15 14 10 11 16 21 21 15 25 28 29
47 48 48 49 47 43 36 37 37 32 25 23 29 30 31 28 28 27 27 32 34 31 26 22 13 7 16 14 17 27 26 26 23 19 10 -4 3 22 27 24 9 20 29 29
46 47 48 49 48 43 38 36 37 33 28 29 31 29 28 32 31 28 28 31 32 30 24 20 17 14 22 15 14 14 17 21 20 20 16 13 16 26 26 9 -1 23 30 30
46 46 49 49 47 43 37 36 37 35 30 30 31 32 31 32 32 26 27 27 28 27 22 22 21 21 20 21 20 16 12 12 15 19 17 1 23 26 16 13 23 26 29 30
45 46 48 49 47 43 39 34 37 35 33 31 32 33 33 33 33 33 32 28 30 30 25 25 25 23 22 18 11 19 13 16 10 16 9 16 26 22 24 21 24 26 27 29
44 45 47 48 46 41 35 33 36 35 32 32 31 30 32 32 33 34 31 32 33 33 32 28 27 24 25 20 20 20 20 23 20 19 15 19 22 23 27 27 26 26 28 29
44 45 46 48 46 41 35 31 35 36 34 30 29 32 31 32 33 33 33 33 34 33 33 30 28 26 26 22 21 20 17 22 20 22 21 21 21 23 23 26 28 28 29 29
43 44 46 45 46 43 39 35 33 35 35 30 30 31 31 32 32 32 32 32 32 32 30 29 28 28 27 26 25 24 23 21 19 16 19 18 18 21 27 26 26 29 29 29
43 44 45 46 43 41 37 33 36 34 36 31 26 30 31 31 31 32 32 32 32 31 31 29 29 30 28 26 24 25 26 26 24 21 22 22 23 26 28 27 28 30 30 29
43 44 45 46 42 38 35 33 32 37 36 28 25 25 30 30 30 30 30 31 31 30 29 29 28 28 30 27 24 24 24 25 26 26 27 26 26 25 27 29 29 32 30 28
43 44 46 46 41 38 34 35 39 35 30 29 22 21 23 29 28 28 30 29 29 29 29 28 28 28 28 26 27 27 26 25 26 27 27 27 27 28 28 29 30 29 28 26
44 45 45 39 37 34 33 39 35 32 28 22 23 20 14 29 28 29 28 28 27 28 27 27 27 26 25 27 27 27 27 26 25 26 27 27 27 27 28 28 28 28 27 25
45 42 38 35 34 37 37 31 29 29 27 27 24 24 21 27 27 28 27 27 26 24 25 27 26 25 26 27 27 27 27 27 26 26 24 25 26 27 27 27 27 28 27 23
41 37 35 34 36 30 27 27 27 26 25 26 25 23 23 27 25 26 28 25 25 23 22 25 23 22 24 25 25 27 28 27 26 26 26 27 27 27 27 27 27 27 25 23
40 36 33 31 28 26 26 24 23 24 24 24 23 23 26 27 28 26 27 24 23 20 22 23 20 21 23 22 22 22 22 23 25 26 26 26 27 27 27 27 27 26 25 21
38 34 29 27 26 24 24 22 23 22 23 23 25 24 26 27 28 26 25 23 22 22 20 18 17 18 20 19 19 19 24 26 27 27 27 27 26 27 27 27 27 25 21 18
33 31 27 24 21 22 23 23 23 24 23 24 25 24 24 26 25 24 22 23 21 20 18 16 18 18 18 14 19 21 23 25 25 26 26 26 25 25 26 27 24 21 18 17
31 30 25 25 24 22 22 23 20 23 26 25 23 23 23 23 23 23 20 19 17 17 13 15 16 17 12 14 16 19 23 24 24 24 24 24 23 24 24 24 22 19 17 17
31 30 27 23 21 21 21 21 23 26 26 25 23 20 20 19 20 20 18 15 11 12 17 19 17 12 13 15 16 18 23 24 24 24 23 23 22 22 22 20 19 18 17 16
29 28 28 24 23 22 22 23 25 28 25 22 21 17 15 20 18 16 18 15 15 16 17 18 18 12 13 15 16 18 23 24 24 24 23 22 21 20 19 19 18 17 17 16

GFSNW_sfc_30mbdewp_102.txt.gz
Dewpoint
49 49 49 48 50 46 38 36 33 39 43 34 36 33 34 35 33 35 32 30 30 29 30 29 30 29 31 35 37 33 34 31 28 27 30 30 31 28 25 24 24 24 23 23
49 49 49 48 50 44 37 34 35 41 41 31 32 32 33 33 32 32 31 31 33 33 31 28 31 31 33 36 36 32 34 30 25 20 24 28 27 28 26 27 26 24 21 21
49 49 49 48 48 46 37 35 28 36 37 34 32 30 31 31 33 32 31 31 31 31 29 31 29 30 33 36 36 36 34 29 25 18 19 26 25 25 26 27 25 21 21 23
48 48 49 48 46 46 38 35 32 33 31 30 32 31 31 30 30 32 31 29 30 29 26 26 26 28 28 34 34 34 32 28 26 25 25 26 26 25 24 25 24 21 19 24
48 48 49 49 45 43 39 33 33 33 31 30 31 30 30 30 31 31 29 28 29 29 26 27 25 28 26 26 28 30 31 29 26 24 24 26 24 24 23 23 24 26 24 25
49 49 49 48 45 41 38 39 37 31 31 30 28 29 30 30 32 32 32 31 29 27 29 32 32 32 31 30 28 27 28 27 25 20 19 18 16 18 21 22 26 25 23 22
48 49 49 49 46 41 39 38 35 28 25 29 29 31 31 29 31 31 31 32 30 31 35 34 33 33 32 32 31 29 26 26 26 24 19 8 11 23 24 23 25 27 26 26
47 48 49 49 46 42 39 39 37 31 25 29 29 30 30 30 30 30 31 31 33 34 30 26 21 20 22 25 28 29 28 26 23 19 15 10 12 15 21 20 14 22 26 27
47 47 49 49 47 42 38 38 38 34 27 23 29 30 31 27 28 28 27 32 35 31 27 23 16 8 15 15 18 26 27 27 24 20 12 -3 2 21 26 25 12 20 26 26
46 47 49 50 47 43 39 37 38 35 31 30 31 29 28 32 31 27 28 30 32 30 25 19 17 16 21 14 14 18 22 23 22 21 17 13 16 26 26 11 1 19 28 29
44 46 48 49 47 43 39 37 38 37 33 32 32 32 32 33 32 27 28 29 29 28 23 21 20 21 19 21 20 16 14 15 17 20 18 7 23 27 17 16 17 26 30 31
44 45 46 48 47 43 39 36 37 36 34 33 33 33 33 33 34 33 33 28 30 30 25 25 25 22 23 18 10 19 14 14 11 16 13 18 26 24 25 21 24 27 28 30
43 44 46 48 46 41 36 35 37 36 34 34 32 31 32 33 33 35 32 33 34 33 33 29 28 24 25 19 20 21 20 21 18 19 16 20 20 21 26 27 26 27 28 29
43 43 45 47 46 42 37 34 36 37 35 31 31 32 32 32 33 33 34 34 34 34 34 31 29 25 27 22 21 19 17 21 19 19 19 20 21 22 22 23 26 27 28 29
44 43 44 46 45 44 40 37 35 36 35 30 31 32 31 32 33 33 33 33 33 33 32 31 29 29 28 27 26 25 23 20 18 15 17 17 18 21 26 26 26 27 28 30
44 44 44 45 44 43 38 35 36 35 37 31 26 31 31 31 32 32 32 33 33 33 32 31 31 31 28 27 25 26 26 24 22 20 22 21 23 25 27 27 27 28 29 30
45 44 44 45 44 39 36 34 34 36 37 29 24 26 30 30 30 31 31 32 32 32 32 30 30 30 31 29 24 24 26 26 26 26 26 25 26 25 28 29 29 31 31 30
45 44 45 46 44 40 37 37 40 36 31 30 23 23 23 30 29 29 30 30 30 30 30 29 29 29 30 28 28 28 27 26 26 25 26 26 27 28 28 29 30 30 29 28
45 44 44 41 39 36 34 39 37 33 30 27 26 23 19 29 28 29 29 29 28 29 28 28 28 28 26 28 28 28 28 27 28 27 27 27 26 27 27 28 29 29 29 27
45 43 39 35 35 37 39 32 31 30 30 29 27 26 23 29 28 28 28 28 27 26 27 28 27 26 28 28 29 28 28 28 27 26 26 26 24 25 27 27 29 29 29 27
42 37 35 35 36 31 29 29 28 28 28 28 27 26 24 28 26 27 29 27 27 24 25 26 25 24 26 27 25 26 27 28 28 27 28 27 26 26 27 27 28 28 28 27
40 37 35 32 30 28 27 26 25 26 26 26 25 25 26 27 29 27 27 25 24 21 24 23 21 23 25 24 23 24 24 24 23 24 24 25 26 27 28 28 28 28 28 26
40 36 33 32 29 25 24 21 25 24 25 25 25 25 27 28 28 26 26 23 22 23 21 19 21 21 20 19 19 19 22 24 26 27 27 27 27 27 28 27 28 28 27 25
33 31 27 27 25 24 24 24 25 26 25 25 26 25 25 27 26 25 22 24 23 21 18 17 21 20 20 20 19 19 21 25 26 27 27 27 26 26 27 27 27 27 25 22
31 31 26 27 27 24 24 25 23 24 26 26 24 25 24 24 24 24 22 19 19 19 16 19 21 21 18 12 15 17 21 24 25 25 26 26 26 25 25 26 27 25 23 20
32 30 29 26 24 25 23 22 24 27 27 26 25 22 21 21 22 21 20 18 14 15 20 22 20 16 13 13 15 16 20 23 24 24 24 25 25 25 25 24 25 23 21 20
29 28 31 27 24 25 24 23 25 28 26 24 24 21 18 21 19 18 20 17 16 19 20 20 20 17 12 15 16 16 19 23 24 24 24 23 23 23 22 22 23 22 20 19

GFSNW_sfc_30mbdewp_105.txt.gz
Dewpoint
48 48 49 49 49 45 42 38 36 40 44 37 35 34 34 34 33 34 31 30 29 28 29 29 28 28 31 35 36 31 33 30 27 27 31 32 31 28 24 23 24 24 23 23
49 48 48 47 47 47 39 33 36 40 40 34 32 32 32 32 32 32 31 31 32 32 30 27 28 30 33 34 35 31 32 29 26 22 26 28 28 27 26 25 26 24 21 20
49 49 49 48 46 47 40 36 32 37 36 36 31 30 30 31 33 31 31 31 31 29 27 29 28 29 33 35 35 35 34 29 25 21 20 24 22 24 25 25 25 21 20 17
48 49 49 48 46 44 41 36 34 35 33 30 31 31 31 30 30 31 30 28 29 28 23 24 25 27 29 34 35 34 32 27 27 26 23 22 22 23 23 24 25 20 18 20
48 49 49 49 46 44 39 33 33 33 30 31 28 28 29 30 31 30 27 26 27 26 24 26 24 26 24 23 29 29 31 28 26 25 23 23 22 22 22 23 22 23 22 22
48 49 49 49 46 42 38 39 36 32 30 29 26 26 28 29 32 32 31 30 28 26 28 31 30 31 30 29 26 25 26 27 26 21 19 18 13 15 19 21 21 21 19 20
47 48 49 50 46 43 39 39 36 30 23 27 27 29 30 28 30 30 30 31 29 31 34 33 33 32 31 30 30 29 26 26 26 25 21 13 13 21 23 19 20 21 23 23
47 47 49 49 47 42 40 40 37 31 23 26 27 29 29 29 29 30 31 30 32 34 31 24 19 21 23 26 29 29 29 26 23 22 15 12 9 15 20 21 14 20 23 23
45 47 48 50 47 43 40 39 40 35 27 24 28 27 30 25 23 25 27 31 34 33 26 21 15 6 12 13 19 25 28 28 25 19 14 1 7 18 23 23 12 17 20 20
44 46 47 50 48 44 40 39 40 38 31 29 29 25 27 31 29 24 27 28 32 32 23 17 13 13 20 12 13 21 23 23 23 21 19 16 16 22 26 12 9 18 22 23
44 44 46 49 48 45 40 39 39 39 34 32 32 32 31 32 31 22 29 28 30 29 23 18 16 17 17 18 15 14 14 16 18 18 17 13 24 26 15 17 20 24 27 28
44 44 45 47 48 44 39 37 38 36 36 35 34 33 34 33 32 31 33 30 28 28 23 22 21 19 19 15 6 17 14 11 10 14 15 19 25 20 23 23 23 25 26 29
44 44 44 47 47 44 40 37 38 38 36 34 34 32 33 34 34 36 29 32 34 33 34 28 25 22 21 15 16 15 17 18 17 14 12 16 18 20 23 26 25 25 27 27
45 44 43 45 46 45 42 41 38 38 36 32 31 33 32 33 33 34 34 35 35 35 34 31 28 24 24 19 18 20 16 20 17 16 16 18 18 19 20 21 23 24 26 27
47 44 43 44 46 45 43 42 39 38 36 32 31 33 32 32 33 33 34 34 33 33 33 32 29 28 28 26 26 24 21 19 17 14 17 16 17 21 24 25 26 27 27 27
48 45 44 44 45 42 40 37 38 36 38 34 29 33 31 32 33 33 33 33 33 33 33 31 31 33 28 25 21 22 24 23 21 19 22 21 21 24 25 26 26 27 28 28
48 45 44 44 46 42 37 36 35 36 38 31 29 31 31 31 32 32 32 33 33 33 33 32 30 31 31 29 22 20 25 25 25 25 24 24 25 25 27 28 28 30 30 30
49 45 44 45 46 44 40 39 40 37 34 32 29 29 25 31 30 29 32 31 32 32 31 31 30 30 31 28 27 26 25 26 26 26 26 26 27 27 27 28 29 30 30 30
48 45 45 42 41 38 37 40 39 37 34 33 31 28 27 30 30 30 30 31 29 31 29 29 30 28 28 29 29 28 28 29 28 28 28 27 26 27 27 27 28 29 29 29
45 42 38 33 37 38 40 35 33 33 33 31 30 31 28 29 29 29 29 29 29 27 28 29 27 26 28 29 29 29 29 29 29 27 26 27 27 28 27 26 27 28 29 30
41 37 34 37 37 33 31 31 30 31 30 31 31 30 28 29 28 29 29 31 29 26 28 26 26 26 27 27 27 28 28 28 28 29 28 29 28 27 26 27 28 29 30 30
40 37 36 34 32 32 29 29 28 28 28 30 28 27 28 28 29 28 29 28 26 23 27 25 22 25 27 26 25 24 24 25 27 27 27 24 24 25 27 28 29 29 29 30
40 36 33 32 31 26 25 23 26 27 29 28 27 27 28 28 29 28 27 26 24 24 23 22 22 26 25 21 20 21 22 22 24 26 27 28 27 28 28 28 29 29 29 29
34 31 27 28 28 27 27 26 29 30 29 28 28 28 27 28 27 27 25 25 24 23 20 18 25 26 25 23 22 20 18 24 26 27 28 27 28 28 28 28 28 28 28 27
33 31 26 28 30 30 29 30 27 26 28 28 27 27 26 27 26 25 25 21 21 22 20 24 27 23 22 18 15 17 19 23 25 27 27 27 28 27 27 27 27 28 27 24
33 31 29 30 29 30 28 27 28 29 28 29 28 26 25 24 25 23 21 21 18 21 25 26 24 21 19 16 15 16 18 22 23 24 25 26 27 27 27 27 26 27 26 24
30 29 33 32 31 29 31 29 27 29 28 27 28 25 24 24 22 21 22 22 23 23 26 26 22 21 20 19 16 17 17 19 23 24 24 24 25 25 24 22 24 25 25 24

GFSNW_sfc_30mbdewp_108.txt.gz
Dewpoint
49 49 49 49 49 48 41 42 35 45 45 38 35 34 33 33 32 33 31 31 30 28 28 27 28 29 31 36 35 30 33 31 28 29 32 32 31 29 27 22 26 26 23 22
50 49 49 49 48 48 42 36 37 44 45 34 32 32 32 33 32 32 31 31 32 32 29 27 29 30 33 35 34 33 32 30 26 24 26 28 27 28 29 25 27 24 23 23
49 49 49 49 48 47 44 38 30 40 37 37 32 31 30 31 33 31 30 30 31 29 27 28 28 30 33 35 35 35 34 29 26 23 23 24 24 25 27 25 26 25 24 22
48 49 49 49 47 47 45 37 33 35 34 31 31 31 30 29 29 31 30 28 29 28 23 23 25 27 31 34 36 34 32 28 28 27 27 25 23 22 24 24 24 23 20 20
48 49 49 49 46 46 40 37 35 34 30 30 31 28 29 29 30 31 27 25 26 26 24 26 24 26 25 24 32 30 31 27 27 24 23 23 22 23 23 23 24 25 25 24
47 48 50 50 46 45 39 39 36 33 28 28 27 28 29 30 32 32 31 30 29 26 30 31 31 31 30 29 26 26 26 27 25 19 24 23 12 18 19 22 22 23 22 23
46 48 49 50 46 45 42 40 38 33 25 26 27 28 29 28 29 31 30 30 29 33 33 32 32 32 31 30 29 29 26 26 26 23 24 13 13 20 22 19 20 23 22 21
44 47 49 49 47 44 42 41 40 33 28 25 27 28 28 28 29 29 30 30 33 33 31 27 22 25 25 27 29 29 29 27 24 23 20 17 13 19 17 15 13 20 20 22
44 45 48 49 48 44 42 41 41 39 31 25 26 26 28 26 23 27 29 32 33 34 29 23 18 10 13 17 23 25 28 28 27 22 17 4 12 17 23 22 4 19 19 22
45 44 47 49 48 44 41 41 41 41 35 30 28 26 28 30 29 25 27 28 33 32 26 21 15 14 19 11 14 22 25 26 25 25 22 20 19 20 25 2 7 18 21 21
45 44 45 48 48 45 39 40 40 39 37 35 31 32 30 32 30 23 30 30 32 30 25 19 18 19 18 17 15 18 19 21 22 23 20 14 23 24 12 15 21 24 25 26
45 45 44 46 48 45 43 38 39 38 35 36 35 34 34 34 34 34 32 31 28 29 26 23 21 19 19 16 11 16 13 13 13 19 19 21 25 19 24 21 23 25 25 28
46 45 44 44 47 46 43 41 39 39 37 36 36 34 34 34 34 35 31 32 34 33 35 31 27 23 23 17 17 15 16 17 15 15 11 12 18 24 24 26 26 25 26 27
48 46 44 43 45 46 44 43 41 39 37 33 32 33 32 33 34 34 35 35 35 35 35 32 30 26 24 21 19 18 18 19 18 17 17 17 18 18 19 21 23 25 24 25
49 47 44 43 44 45 44 44 42 39 36 33 33 34 32 33 33 33 34 34 34 33 32 32 30 30 27 27 27 24 22 18 18 13 16 16 18 20 23 22 22 25 25 26
50 47 44 43 44 44 41 39 38 37 38 34 30 33 31 32 33 33 33 34 34 34 34 32 33 33 29 25 23 24 24 22 20 19 20 20 22 23 25 24 25 27 27 28
51 48 45 43 44 44 39 38 37 36 38 33 30 32 31 32 33 33 33 33 33 33 33 32 31 32 31 30 23 22 23 24 24 24 23 23 25 23 25 26 28 29 30 31
51 48 45 44 45 45 41 39 41 38 36 33 30 30 27 31 30 30 32 32 32 33 32 32 30 31 31 28 28 29 27 26 25 26 26 26 27 27 27 28 28 28 29 30
50 46 44 42 41 38 38 40 39 38 35 34 33 28 27 30 31 31 30 31 28 32 30 29 30 29 27 28 29 29 30 28 29 28 28 28 27 27 27 27 27 28 28 30
45 42 37 33 38 39 39 36 34 33 34 32 30 33 30 30 29 30 30 30 28 26 28 30 28 27 29 29 29 28 29 30 30 28 27 27 27 27 27 27 27 27 28 29
41 37 36 37 37 35 33 31 30 32 30 32 31 31 29 30 27 28 30 30 29 25 27 27 26 25 28 28 27 24 26 28 30 30 30 29 29 28 28 27 27 28 29 29
40 38 36 34 33 33 29 29 29 28 26 31 30 28 29 29 30 28 29 27 27 22 27 25 22 23 28 25 23 26 25 23 23 27 28 29 28 26 26 27 28 29 29 30
40 36 34 33 32 27 26 23 25 26 29 29 26 26 28 28 29 29 28 25 24 25 22 21 22 25 26 26 22 19 21 21 21 23 26 27 27 28 27 27 28 29 29 30
35 33 29 28 27 27 27 26 28 30 31 29 29 29 28 28 27 27 25 26 24 22 20 19 24 28 23 22 21 21 18 20 23 25 27 27 27 27 28 28 28 28 27 28
33 31 26 28 29 31 31 32 28 26 31 29 27 28 27 27 27 27 26 22 19 21 19 24 28 25 22 18 14 14 15 17 22 24 26 26 27 27 27 28 28 27 27 27
33 32 28 31 29 30 29 27 27 29 29 29 29 26 25 25 25 25 21 22 18 17 24 25 26 23 22 21 18 15 16 16 18 22 23 24 26 27 27 28 27 27 26 26
31 29 32 31 30 29 31 31 29 30 28 24 28 26 23 28 24 23 23 21 19 24 26 27 26 23 23 23 21 18 15 15 16 19 21 22 25 25 25 23 23 25 25 25

GFSNW_sfc_30mbdewp_111.txt.gz
Dewpoint
49 49 49 49 49 45 40 42 31 43 44 33 35 31 33 33 32 33 31 32 31 28 27 27 29 30 32 35 35 32 32 31 28 28 33 33 31 28 28 23 25 25 24 22
49 49 50 49 48 48 41 37 37 45 45 30 31 33 32 33 32 31 31 31 32 31 29 28 29 31 34 35 34 33 32 30 24 25 26 28 28 29 29 26 26 22 22 21
49 49 50 49 48 49 43 38 27 38 36 36 32 31 31 30 33 31 30 30 31 30 27 28 29 31 33 35 35 35 33 30 26 20 22 26 26 27 28 27 23 21 23 22
48 48 49 48 47 49 42 36 30 35 29 29 31 31 30 29 30 31 30 28 27 27 24 24 26 29 31 34 36 34 33 28 28 28 28 28 26 25 25 27 25 22 19 21
48 48 50 48 46 47 37 34 33 34 29 30 29 29 29 30 30 30 28 27 27 26 25 27 26 26 26 28 33 32 32 23 28 25 25 25 24 24 24 23 26 25 25 23
46 48 50 49 46 44 37 39 36 33 28 28 27 27 29 30 32 32 30 30 29 27 29 30 30 32 31 30 28 28 29 27 24 14 24 23 9 15 21 22 23 24 23 23
44 48 50 49 47 44 42 39 38 33 25 26 26 28 28 28 29 30 31 30 29 32 33 32 32 32 31 30 30 29 27 26 25 21 23 1 5 18 19 19 20 23 22 23
45 46 49 49 47 45 40 40 39 33 27 25 27 27 27 28 29 28 29 31 32 33 31 25 20 25 25 27 29 29 29 27 23 20 20 16 12 19 16 16 10 20 22 23
46 45 47 49 47 46 42 39 41 39 30 23 26 25 27 25 25 28 29 31 33 33 29 23 16 9 13 17 25 25 28 29 25 24 18 1 4 15 22 20 2 14 20 21
46 45 45 48 48 46 41 39 40 40 35 33 27 22 27 30 28 24 27 29 32 32 27 22 17 13 19 9 14 21 26 27 25 25 23 21 22 18 23 0 -10 17 20 20
46 45 45 47 48 46 41 40 38 36 34 34 33 31 29 30 29 20 27 25 30 30 23 22 18 18 17 17 17 21 17 20 23 25 23 11 23 23 12 7 21 20 21 22
46 45 45 44 47 46 44 37 40 38 33 30 37 35 34 33 33 32 32 26 29 29 27 24 22 19 19 17 8 16 13 18 19 22 18 22 24 19 22 21 19 20 24 25
48 46 45 44 44 46 44 41 40 39 36 34 36 33 34 34 34 35 28 31 32 33 34 30 27 23 23 17 17 16 15 17 15 14 11 16 19 22 24 25 23 24 25 26
49 48 45 44 43 45 45 42 41 39 37 32 30 33 32 33 34 33 35 35 35 36 34 30 28 25 26 21 18 19 18 19 17 16 16 17 17 18 18 19 22 25 26 26
51 49 46 44 43 45 43 43 41 39 35 30 32 35 32 33 33 33 34 34 34 33 31 30 29 31 28 27 27 23 23 19 18 16 16 15 16 20 22 21 22 23 24 24
51 50 47 44 43 45 41 38 39 36 38 32 25 33 31 32 33 33 33 33 33 33 32 31 33 33 29 26 24 25 24 24 23 19 19 19 20 22 23 22 22 25 26 27
50 50 47 44 43 43 35 36 36 36 38 33 28 28 31 32 33 33 33 33 33 33 32 31 31 31 32 29 25 23 25 24 25 25 24 23 24 23 24 24 24 27 29 30
49 50 47 44 44 44 40 39 41 38 35 34 29 28 29 31 30 30 33 31 32 32 31 32 31 30 31 28 28 29 29 29 29 28 27 26 26 27 26 27 28 27 27 28
48 48 45 42 40 37 38 40 39 38 35 32 31 27 25 30 30 31 30 31 28 31 30 29 30 28 26 29 29 29 30 30 30 30 29 28 27 27 27 27 27 27 27 28
46 42 38 35 38 39 39 36 33 32 33 31 29 31 29 29 29 30 30 30 27 26 28 29 28 26 28 28 28 28 28 28 27 28 28 28 28 27 27 27 27 27 27 27
41 38 37 37 37 35 32 31 29 31 30 31 31 30 28 30 26 26 30 28 28 23 26 27 25 24 27 29 28 26 25 25 24 27 28 29 29 29 28 28 28 27 28 28
40 38 36 35 33 33 30 28 29 29 26 29 29 29 29 29 29 28 29 25 26 21 26 24 21 23 25 27 24 24 22 23 21 20 21 23 25 26 25 25 26 27 28 29
39 36 35 33 32 27 26 23 25 25 28 28 27 25 27 28 28 27 28 25 22 24 21 19 20 22 24 24 22 20 21 19 21 22 25 27 27 27 27 26 27 27 28 29
35 32 26 27 25 27 27 25 25 28 30 28 29 27 27 28 26 26 25 24 24 21 19 17 21 21 26 23 20 15 13 16 18 22 24 25 26 26 27 28 28 28 27 27
32 31 25 26 28 28 29 30 27 27 30 29 28 27 27 26 27 28 26 24 20 19 18 20 21 24 25 22 21 18 14 14 14 18 20 22 24 26 26 27 27 28 27 27
33 32 28 30 28 28 28 26 27 28 28 28 29 26 24 24 25 25 22 20 18 15 20 23 25 24 23 22 24 22 20 17 15 15 19 21 22 22 23 25 26 26 26 26
29 28 31 29 28 26 28 28 27 29 26 23 26 25 23 26 24 23 23 20 20 20 23 27 29 27 25 24 25 25 24 22 20 18 16 19 23 24 24 22 22 24 24 25

GFSNW_sfc_30mbdewp_114.txt.gz
Dewpoint
49 48 49 48 49 46 41 41 32 43 44 32 33 31 33 33 32 33 32 32 30 29 29 28 30 29 31 34 34 32 32 30 29 30 32 33 32 29 28 23 22 24 23 18
49 49 49 48 48 47 41 36 37 44 43 29 30 33 32 32 32 31 31 31 32 31 29 27 30 31 35 36 34 32 32 28 23 25 27 29 30 30 29 26 25 23 21 14
48 49 49 48 48 50 42 35 27 36 35 35 32 31 31 29 33 30 30 30 30 29 26 29 29 30 33 35 35 35 33 30 25 17 21 27 26 27 30 27 24 23 22 21
48 49 49 49 48 49 39 32 31 35 27 29 30 31 30 29 29 31 30 27 27 27 24 25 27 31 32 34 36 34 32 26 27 27 28 28 27 26 26 28 28 23 17 19
46 49 50 49 48 46 36 33 29 34 29 30 28 28 29 29 30 30 28 26 28 26 25 26 25 26 29 29 34 32 32 22 27 23 25 25 24 25 26 26 27 27 26 24
45 48 50 49 47 41 35 38 36 31 28 28 26 25 28 28 31 31 30 29 28 27 28 30 30 31 31 30 30 29 29 27 23 14 22 22 10 17 22 24 24 24 23 24
45 46 49 49 48 44 39 39 38 32 23 27 25 27 28 28 29 29 31 30 28 31 33 32 32 32 31 30 30 29 26 26 25 20 21 -3 3 17 19 20 20 23 22 22
46 45 48 49 48 45 38 39 38 32 24 27 27 28 27 28 29 28 27 31 31 33 30 24 18 22 24 27 29 29 29 27 23 18 19 15 7 18 19 17 10 18 21 22
46 45 46 48 47 46 40 38 40 37 25 18 26 26 27 24 25 26 29 32 34 33 28 22 10 2 13 16 26 25 29 28 24 23 17 -2 2 15 22 16 0 5 19 20
46 46 45 47 47 46 40 37 39 39 31 32 28 23 22 29 27 23 26 29 31 30 25 20 16 13 17 12 14 21 26 27 25 25 23 21 23 21 22 4 -10 15 20 20
47 46 46 45 47 46 41 39 38 34 31 31 34 31 30 30 29 20 24 24 28 29 22 21 18 18 17 17 17 20 18 21 23 24 23 9 24 22 11 9 17 20 19 20
48 46 46 44 45 46 42 37 40 38 33 29 37 36 35 33 32 29 31 23 28 27 25 25 22 19 20 17 6 20 14 17 16 22 16 22 23 19 21 21 19 19 21 21
49 48 46 45 44 45 43 40 40 38 35 32 33 34 33 34 34 35 29 29 32 32 32 28 26 21 22 16 16 15 16 19 18 17 14 18 22 23 23 24 23 23 23 24
51 49 47 45 44 44 44 41 42 38 37 30 28 33 32 33 33 33 35 34 35 35 34 29 26 24 25 20 18 17 16 17 16 16 16 16 16 17 18 19 20 22 24 25
51 51 49 46 44 44 42 42 40 39 34 27 29 34 32 33 33 33 34 34 34 33 31 29 28 30 29 28 27 25 24 21 18 16 17 16 17 17 19 21 20 21 22 23
50 51 49 46 44 44 41 38 38 36 38 31 24 32 31 33 33 33 33 33 33 33 31 30 31 33 29 26 25 25 26 25 23 21 23 24 24 23 22 22 22 22 25 26
48 50 50 46 44 41 35 35 36 37 38 33 27 27 31 32 33 33 33 33 33 33 32 31 31 31 32 29 26 25 26 28 29 29 29 27 27 26 25 24 24 25 27 29
47 49 49 45 45 43 39 39 40 39 36 33 28 27 30 31 30 29 32 31 32 31 31 31 31 30 30 28 29 29 29 29 29 29 30 29 29 28 27 27 27 27 27 27
46 48 45 42 39 36 37 40 38 37 35 32 31 26 25 31 31 31 30 31 27 30 30 29 30 28 26 28 29 28 28 28 28 29 27 28 29 28 28 28 27 27 27 27
46 42 39 36 37 40 39 35 32 32 33 31 29 31 29 28 29 29 29 29 27 24 28 30 28 26 28 28 28 29 28 27 27 24 21 25 25 28 28 28 28 28 27 27
41 38 36 37 37 34 32 31 29 30 29 31 30 30 28 30 25 25 29 27 27 24 25 27 24 24 25 28 28 27 24 23 24 24 23 22 25 26 28 28 28 28 27 27
40 38 36 34 33 33 30 29 29 29 26 28 29 29 29 29 29 27 28 25 26 21 26 25 21 22 23 24 24 20 19 20 18 20 21 23 26 26 26 26 25 26 27 28
39 35 34 33 32 27 25 22 24 25 27 28 28 26 27 28 28 26 28 25 22 24 22 20 20 21 22 24 23 19 16 15 16 17 21 24 25 26 26 26 26 26 27 28
34 33 26 27 24 25 25 24 23 26 29 27 28 26 26 27 26 25 24 24 24 21 19 17 20 20 22 24 22 21 20 19 18 18 17 19 21 23 26 27 27 27 27 27
32 31 24 24 26 27 28 27 27 27 29 28 28 26 26 26 26 27 25 23 21 20 18 19 21 23 24 24 24 22 23 23 22 21 20 19 19 20 22 25 27 27 27 27
32 30 28 29 28 27 29 26 28 27 28 28 27 25 23 23 24 24 23 20 19 19 20 22 25 25 25 25 26 25 24 25 25 24 22 21 21 21 20 22 24 25 26 26
28 27 29 27 27 26 29 29 27 28 27 23 25 24 22 24 23 22 23 21 20 21 23 23 25 25 26 27 27 27 27 27 27 26 25 24 23 22 22 21 20 23 25 25

GFSNW_sfc_30mbdewp_117.txt.gz
Dewpoint
49 49 49 49 48 47 40 40 32 43 43 31 32 31 32 33 32 33 32 32 30 29 28 28 30 28 31 34 34 31 32 30 27 29 32 33 32 29 28 22 20 24 22 17
49 49 49 49 49 44 41 36 37 44 42 27 30 32 31 32 31 30 31 31 31 31 29 27 30 31 35 35 34 32 32 28 24 24 27 31 31 30 29 26 25 23 19 8
48 49 49 49 49 50 41 34 26 34 35 34 31 30 30 29 33 30 30 30 30 28 26 29 29 30 33 35 36 34 31 28 23 13 17 26 29 28 29 27 24 23 23 19
47 49 49 49 49 51 38 32 30 34 26 29 31 31 30 29 28 31 29 26 27 26 24 25 28 31 32 34 36 34 31 22 27 27 27 27 26 26 27 28 28 24 19 19
45 49 49 49 48 49 36 31 28 32 29 30 28 28 28 27 30 29 26 24 27 26 24 24 24 28 29 27 34 32 32 22 26 23 24 26 25 26 27 27 29 29 28 27
45 47 50 49 48 41 36 37 36 28 28 28 26 24 28 28 31 30 30 29 27 27 27 29 29 30 30 30 31 30 29 27 23 14 20 22 11 16 20 23 25 25 24 23
46 45 48 49 48 41 39 39 36 30 21 26 25 27 28 28 29 28 31 30 28 30 33 31 31 31 31 30 30 30 27 25 24 20 20 -7 1 16 20 20 21 24 22 22
47 46 46 48 47 43 37 38 37 30 20 25 26 28 26 28 29 27 26 30 31 33 29 23 17 21 25 27 29 29 28 26 22 17 17 12 5 18 18 17 7 18 21 21
47 46 45 47 47 45 38 37 39 35 21 16 26 26 27 22 23 25 29 32 33 32 26 21 9 1 13 18 25 29 29 28 24 23 15 -6 -1 14 21 17 -2 6 17 18
47 46 46 46 47 46 38 37 38 37 28 28 27 22 22 28 26 22 25 28 31 29 23 17 13 11 16 12 15 23 26 27 25 24 22 19 22 20 21 3 -7 13 19 18
47 46 46 45 46 46 40 39 38 33 29 28 35 31 30 31 28 18 22 23 27 27 21 20 18 17 17 16 15 21 20 22 23 25 23 8 24 22 10 8 13 19 19 19
48 47 46 45 44 45 41 36 40 39 34 30 37 37 36 33 30 27 29 21 27 27 22 24 22 19 20 17 5 21 13 18 16 22 14 21 23 21 20 22 21 22 21 21
51 48 46 45 44 45 41 40 40 38 34 31 31 33 33 33 33 35 29 29 31 31 30 26 25 19 21 15 15 15 17 20 18 16 12 18 20 23 23 23 20 20 22 23
51 51 49 46 44 45 42 40 41 38 36 29 27 34 32 33 33 33 34 33 35 35 33 29 26 22 24 19 19 17 16 17 16 17 16 16 15 17 18 20 21 21 21 22
50 50 50 47 44 44 42 40 38 39 33 29 29 34 32 33 33 33 34 34 33 32 30 30 28 29 29 28 27 25 23 20 17 15 19 20 22 21 25 25 24 24 22 22
49 50 51 48 44 43 41 37 37 37 38 29 26 32 31 33 33 33 33 33 33 32 30 29 30 32 29 26 25 26 26 26 26 24 27 28 28 28 26 26 27 26 24 24
46 49 50 48 44 40 36 35 37 37 38 33 28 27 32 32 32 32 32 33 33 32 31 31 31 31 32 29 26 26 26 28 30 30 29 25 27 26 28 29 29 27 26 28
46 47 49 46 45 43 38 38 40 39 36 33 28 27 30 31 30 29 32 31 31 31 31 31 31 30 30 28 29 30 30 29 27 28 29 29 28 28 29 29 28 28 27 27
45 47 46 42 39 37 37 39 38 36 35 30 30 26 25 31 30 30 30 30 26 30 29 29 29 28 26 27 28 28 28 28 27 27 26 25 25 23 24 27 28 28 28 28
46 42 40 36 37 40 38 34 32 32 32 31 29 31 28 28 29 28 29 29 27 25 28 30 28 26 28 29 29 29 28 26 24 21 16 19 19 21 23 26 27 28 28 28
40 37 36 36 38 34 32 31 29 30 28 31 30 29 28 30 26 25 29 27 27 23 25 27 25 24 25 27 26 25 21 20 20 22 22 22 22 22 25 25 26 26 25 25
39 37 36 34 33 32 30 28 30 29 26 28 29 29 29 29 29 27 28 25 25 21 26 26 22 23 25 24 23 21 19 16 17 17 18 19 21 23 25 25 25 25 26 26
38 34 33 31 30 26 24 21 25 25 27 28 28 27 27 27 28 26 27 24 22 23 22 21 20 22 22 23 23 22 22 21 21 22 23 22 22 22 22 21 24 26 26 26
34 30 26 24 24 24 24 25 23 26 27 27 27 26 26 27 25 25 23 25 24 21 19 18 20 21 22 24 24 24 24 25 24 24 24 24 24 23 22 23 23 23 24 26
30 30 23 24 25 26 28 28 28 27 28 28 27 26 26 26 25 26 25 23 20 21 20 20 21 22 23 24 24 25 25 26 26 26 26 25 25 24 23 23 24 24 24 24
31 31 26 27 26 26 27 28 28 28 28 27 26 24 22 22 24 24 23 21 19 20 21 22 23 23 24 24 26 26 26 27 27 27 27 27 26 25 25 24 24 24 24 24
27 25 29 27 26 27 28 30 29 28 27 24 26 23 21 23 23 21 23 21 20 22 22 24 24 24 25 26 25 25 26 27 28 28 28 27 27 26 24 25 26 27 26 25